[[{"header":{"parameterUnit":"m.s-1","parameterCategory":1,"la1":30.6,"la2":29.2853,"lo1":-89.7004,"lo2":-87.6739,"dy":0.0162,"dx":0.0183,"nx":112,"ny":82,"refTime":"2023-09-09T12:00:00:Z","depth":0,"parameterNumber":2,"parameterNumberName":"U-component_of_WINDS"},"data":[0.0,0.0,0.0,0.0,0.0,0.0,0.0,0.0,0.0,0.0,0.0,0.0,0.0,0.0,0.0,0.0,0.0,0.0,0.0,0.0,0.0,0.0,0.0,0.0,0.0,0.0,0.0,0.0,0.0,0.0,0.0,0.0,0.0,0.0,0.0,0.0,0.0,0.0,0.0,0.0,0.0,0.0,0.0,0.0,0.0,0.0,0.0,0.0,0.0,0.0,0.0,0.0,0.0,0.0,0.0,0.0,0.0,0.0,0.0,0.0,0.0,0.0,0.0,0.0,0.0,0.0,0.0,0.0,0.0,0.0,0.0,0.0,0.0,0.0,0.0,0.0,0.0,0.0,0.0,0.0,0.0,0.0,0.0,0.0,0.0,0.0,0.0,0.0,0.0,0.0,-0.6338,-0.6338,-0.6261,-0.6257,-0.6183,-0.6022,-0.5786,-0.5559,0.0,0.0,0.0,0.0,0.0,0.0,0.0,0.0,0.0,0.0,0.0,0.0,0.0,0.0,0.0,0.0,0.0,0.0,0.0,0.0,0.0,0.0,0.0,0.0,0.0,0.0,0.0,0.0,0.0,0.0,0.0,0.0,0.0,0.0,0.0,0.0,0.0,0.0,0.0,0.0,0.0,0.0,0.0,0.0,0.0,0.0,0.0,0.0,0.0,0.0,0.0,0.0,0.0,0.0,0.0,0.0,0.0,0.0,0.0,0.0,0.0,0.0,0.0,0.0,0.0,0.0,0.0,0.0,0.0,0.0,0.0,0.0,0.0,0.0,0.0,0.0,0.0,0.0,0.0,0.0,0.0,0.0,0.0,0.0,0.0,0.0,0.0,0.0,0.0,0.0,0.0,0.0,0.0,0.0,0.0,0.0,0.0,0.0,0.0,0.0,0.0,0.0,0.0,0.0,-0.6338,-0.6338,-0.6099,-0.5864,-0.5715,-0.5637,-0.5482,-0.5093,0.0,0.0,0.0,0.0,0.0,0.0,0.0,0.0,0.0,0.0,0.0,0.0,0.0,0.0,0.0,0.0,0.0,0.0,0.0,0.0,0.0,0.0,0.0,0.0,0.0,0.0,0.0,0.0,0.0,0.0,0.0,0.0,0.0,0.0,0.0,0.0,0.0,0.0,0.0,0.0,0.0,0.0,0.0,0.0,0.0,0.0,0.0,0.0,0.0,0.0,0.0,0.0,0.0,0.0,0.0,0.0,0.0,0.0,0.0,0.0,0.0,0.0,0.0,0.0,0.0,0.0,0.0,0.0,0.0,0.0,0.0,0.0,0.0,0.0,0.0,0.0,0.0,0.0,0.0,0.0,0.0,0.0,0.0,0.0,0.0,0.0,0.0,0.0,0.0,0.0,0.0,0.0,0.0,0.0,0.0,0.0,0.0,0.0,0.0,0.0,0.0,0.0,0.0,-0.6338,-0.6338,-0.6338,-0.618,-0.6103,-0.5948,-0.5715,-0.5715,-0.5867,-0.565,0.0,0.0,0.0,0.0,0.0,0.0,0.0,0.0,0.0,0.0,0.0,0.0,0.0,0.0,0.0,0.0,0.0,0.0,0.0,0.0,0.0,0.0,0.0,0.0,0.0,0.0,0.0,0.0,0.0,0.0,0.0,0.0,0.0,0.0,0.0,0.0,0.0,0.0,0.0,0.0,0.0,0.0,0.0,0.0,0.0,0.0,0.0,0.0,0.0,0.0,0.0,0.0,0.0,0.0,0.0,0.0,0.0,0.0,0.0,0.0,0.0,0.0,0.0,0.0,0.0,0.0,0.0,0.0,0.0,0.0,0.0,0.0,0.0,0.0,0.0,0.0,0.0,0.0,0.0,0.0,0.0,0.0,0.0,0.0,0.0,0.0,0.0,0.0,0.0,0.0,0.0,0.0,0.0,0.0,0.0,0.0,0.0,0.0,0.0,0.0,0.0,0.0,-0.6338,-0.6338,-0.6338,-0.6183,-0.6106,-0.6106,-0.5718,-0.5715,-0.6177,-0.6173,0.0,0.0,0.0,0.0,0.0,0.0,0.0,0.0,0.0,0.0,0.0,0.0,0.0,0.0,0.0,0.0,0.0,0.0,0.0,0.0,0.0,0.0,0.0,0.0,0.0,0.0,0.0,0.0,0.0,0.0,0.0,0.0,0.0,0.0,0.0,0.0,0.0,0.0,0.0,0.0,0.0,0.0,0.0,0.0,0.0,0.0,0.0,0.0,0.0,0.0,0.0,0.0,0.0,0.0,0.0,0.0,0.0,0.0,0.0,0.0,0.0,0.0,0.0,0.0,0.0,0.0,0.0,0.0,0.0,0.0,0.0,0.0,0.0,0.0,0.0,0.0,0.0,0.0,0.0,0.0,0.0,0.0,0.0,0.0,0.0,0.0,0.0,0.0,0.0,0.0,0.0,0.0,0.0,0.0,0.0,0.0,0.0,0.0,0.0,0.0,0.0,0.0,-0.6338,-0.6338,-0.6338,-0.5873,-0.5637,-0.5637,-0.5249,-0.5096,-0.5093,-0.6173,0.0,0.0,0.0,0.0,0.0,0.0,0.0,0.0,0.0,0.0,0.0,0.0,0.0,0.0,0.0,0.0,0.0,0.0,0.0,0.0,0.0,0.0,0.0,0.0,0.0,0.0,0.0,0.0,0.0,0.0,0.0,0.0,0.0,0.0,0.0,0.0,0.0,0.0,0.0,0.0,0.0,0.0,0.0,0.0,0.0,0.0,0.0,0.0,0.0,0.0,0.0,0.0,0.0,0.0,0.0,0.0,0.0,0.0,0.0,0.0,0.0,0.0,0.0,0.0,0.0,0.0,0.0,0.0,0.0,0.0,0.0,0.0,0.0,0.0,0.0,0.0,0.0,0.0,0.0,0.0,0.0,0.0,0.0,0.0,0.0,0.0,0.0,0.0,0.0,0.0,0.0,0.0,0.0,0.0,0.0,0.0,0.0,0.0,0.0,0.0,0.0,0.0,-0.6338,-0.6338,0.0,-0.6022,-0.5867,-0.6028,-0.5637,-0.5559,-0.5944,0.0,0.0,0.0,0.0,0.0,0.0,0.0,0.0,0.0,0.0,0.0,0.0,0.0,0.0,0.0,0.0,0.0,0.0,0.0,0.0,0.0,0.0,0.0,0.0,0.0,0.0,0.0,0.0,0.0,0.0,0.0,0.0,0.0,0.0,0.0,0.0,0.0,0.0,0.0,0.0,0.0,0.0,0.0,0.0,0.0,0.0,0.0,0.0,0.0,0.0,0.0,0.0,0.0,0.0,0.0,0.0,0.0,0.0,0.0,0.0,0.0,0.0,0.0,0.0,0.0,0.0,0.0,0.0,0.0,0.0,0.0,0.0,0.0,0.0,0.0,0.0,0.0,0.0,0.0,0.0,0.0,0.0,0.0,0.0,0.0,0.0,0.0,0.0,0.0,0.0,0.0,0.0,0.0,0.0,0.0,0.0,0.0,0.0,0.0,0.0,0.0,0.0,-0.6338,-0.6338,-0.6338,0.0,-0.6022,-0.5941,-0.6103,-0.5715,-0.5789,-0.6328,0.0,0.0,0.0,0.0,0.0,0.0,0.0,0.0,0.0,0.0,0.0,0.0,0.0,0.0,0.0,0.0,0.0,0.0,0.0,0.0,0.0,0.0,0.0,0.0,0.0,0.0,0.0,0.0,0.0,0.0,0.0,0.0,0.0,0.0,0.0,0.0,0.0,0.0,0.0,0.0,0.0,0.0,0.0,0.0,0.0,0.0,0.0,0.0,0.0,0.0,0.0,0.0,0.0,0.0,0.0,0.0,0.0,0.0,0.0,0.0,0.0,0.0,0.0,0.0,0.0,0.0,0.0,0.0,0.0,0.0,0.0,0.0,0.0,0.0,0.0,0.0,0.0,0.0,0.0,0.0,0.0,0.0,0.0,0.0,0.0,0.0,0.0,0.0,0.0,0.0,0.0,0.0,0.0,0.0,0.0,0.0,0.0,0.0,0.0,0.0,0.0,0.0,-0.6338,-0.6338,-0.6338,-0.6338,-0.6099,-0.5864,-0.5637,-0.5476,-0.5473,0.0,0.0,0.0,0.0,0.0,0.0,0.0,0.0,0.0,0.0,0.0,0.0,0.0,0.0,0.0,0.0,0.0,0.0,0.0,0.0,0.0,0.0,0.0,0.0,0.0,0.0,0.0,0.0,0.0,0.0,0.0,0.0,0.0,0.0,0.0,0.0,0.0,0.0,0.0,0.0,0.0,0.0,0.0,0.0,0.0,0.0,0.0,0.0,0.0,0.0,0.0,0.0,0.0,0.0,0.0,0.0,0.0,0.0,0.0,0.0,0.0,0.0,0.0,0.0,0.0,0.0,0.0,0.0,0.0,0.0,0.0,0.0,0.0,0.0,0.0,0.0,0.0,0.0,0.0,0.0,0.0,0.0,0.0,0.0,0.0,0.0,0.0,0.0,0.0,0.0,0.0,0.0,0.0,0.0,0.0,0.0,0.0,0.0,0.0,0.0,0.0,0.0,0.0,-0.718,-0.7633,-0.7787,-0.7176,-0.7472,-0.7468,-0.6942,-0.7242,-0.7391,-0.7246,0.0,0.0,0.0,0.0,0.0,0.0,0.0,0.0,0.0,0.0,0.0,0.0,0.0,0.0,0.0,0.0,0.0,0.0,0.0,0.0,0.0,0.0,0.0,0.0,0.0,0.0,0.0,0.0,0.0,0.0,0.0,0.0,0.0,0.0,0.0,0.0,0.0,0.0,0.0,0.0,0.0,0.0,0.0,0.0,0.0,0.0,0.0,0.0,0.0,0.0,0.0,0.0,0.0,0.0,0.0,0.0,0.0,0.0,0.0,0.0,0.0,0.0,0.0,0.0,0.0,0.0,0.0,0.0,0.0,0.0,0.0,0.0,0.0,0.0,0.0,0.0,0.0,0.0,0.0,0.0,0.0,0.0,0.0,0.0,0.0,0.0,0.0,0.0,0.0,0.0,0.0,0.0,0.0,0.0,0.0,0.0,0.0,0.0,0.0,0.0,0.0,0.0,-0.7758,-0.8474,-0.8866,-0.8317,-0.8627,-0.8627,-0.8243,-0.8394,-0.8499,-0.8431,0.0,0.0,0.0,0.0,0.0,0.0,0.0,0.0,0.0,0.0,0.0,0.0,0.0,0.0,0.0,0.0,0.0,0.0,0.0,0.0,0.0,0.0,0.0,0.0,0.0,0.0,0.0,0.0,0.0,0.0,0.0,0.0,0.0,0.0,0.0,0.0,0.0,0.0,0.0,0.0,0.0,0.0,0.0,0.0,0.0,0.0,0.0,0.0,0.0,0.0,0.0,0.0,0.0,0.0,0.0,0.0,0.0,0.0,0.0,0.0,0.0,0.0,0.0,0.0,0.0,0.0,0.0,0.0,0.0,0.0,0.0,0.0,0.0,0.0,0.0,0.0,0.0,0.0,0.0,0.0,0.0,0.0,0.0,0.0,0.0,0.0,0.0,0.0,0.0,0.0,0.0,0.0,0.0,0.0,0.0,0.0,0.0,0.0,0.0,0.0,0.0,0.0,-0.8302,-0.9145,-0.972,-0.9639,-0.9639,-0.9639,-0.9399,-0.9213,-0.9252,-0.9551,0.0,0.0,0.0,0.0,0.0,0.0,0.0,0.0,0.0,0.0,0.0,0.0,0.0,0.0,0.0,0.0,0.0,0.0,0.0,0.0,0.0,0.0,0.0,0.0,0.0,0.0,0.0,0.0,0.0,0.0,0.0,0.0,0.0,0.0,0.0,0.0,0.0,0.0,0.0,0.0,0.0,0.0,0.0,0.0,0.0,0.0,0.0,0.0,0.0,0.0,0.0,0.0,0.0,0.0,0.0,0.0,0.0,0.0,0.0,0.0,-0.7966,0.0,0.0,0.0,0.0,0.0,0.0,0.0,0.0,0.0,0.0,0.0,0.0,0.0,0.0,0.0,0.0,0.0,0.0,0.0,0.0,0.0,0.0,0.0,0.0,0.0,0.0,0.0,0.0,0.0,0.0,0.0,0.0,0.0,0.0,0.0,0.0,0.0,0.0,0.0,0.0,0.0,-1.0121,-1.0858,-1.1186,-1.0536,-1.1025,-1.1106,-1.0455,-1.0895,-1.1022,-1.0584,-1.0445,0.0,0.0,0.0,0.0,0.0,0.0,0.0,0.0,0.0,0.0,0.0,0.0,0.0,0.0,0.0,0.0,0.0,0.0,0.0,0.0,0.0,0.0,0.0,0.0,0.0,0.0,0.0,0.0,0.0,0.0,0.0,0.0,0.0,0.0,0.0,0.0,0.0,0.0,0.0,0.0,0.0,0.0,0.0,0.0,0.0,0.0,0.0,0.0,0.0,0.0,0.0,0.0,0.0,0.0,0.0,0.0,0.0,0.0,0.0,0.0,-0.8689,0.0,0.0,0.0,0.0,0.0,0.0,0.0,0.0,0.0,0.0,0.0,0.0,0.0,0.0,0.0,0.0,0.0,0.0,0.0,0.0,0.0,0.0,0.0,0.0,0.0,0.0,0.0,0.0,0.0,0.0,0.0,0.0,0.0,0.0,0.0,0.0,0.0,0.0,0.0,0.0,-1.0945,-1.1709,-1.2129,-1.1709,-1.2046,-1.2129,-1.1709,-1.1934,-1.1966,-1.1582,-1.1178,0.0,0.0,0.0,0.0,0.0,0.0,0.0,0.0,0.0,0.0,0.0,0.0,0.0,0.0,0.0,0.0,0.0,0.0,0.0,0.0,0.0,0.0,0.0,0.0,0.0,0.0,0.0,0.0,0.0,0.0,0.0,0.0,0.0,0.0,0.0,0.0,0.0,0.0,0.0,0.0,0.0,0.0,0.0,0.0,0.0,0.0,0.0,0.0,0.0,0.0,0.0,0.0,0.0,-1.0445,-1.0617,-1.0857,-1.0987,-1.1083,-1.1221,-1.0655,-1.0296,-1.003,-1.0871,0.0,0.0,0.0,0.0,0.0,0.0,0.0,0.0,0.0,0.0,0.0,0.0,0.0,0.0,0.0,0.0,0.0,0.0,0.0,0.0,0.0,0.0,0.0,0.0,-1.0143,-1.0154,0.0,0.0,0.0,0.0,0.0,0.0,0.0,0.0,0.0,0.0,0.0,0.0,-1.1558,-1.2186,-1.2705,-1.2705,-1.2705,-1.2705,-1.2705,-1.2506,-1.2361,-1.2318,-1.1576,-1.1059,0.0,0.0,0.0,0.0,0.0,0.0,0.0,0.0,0.0,0.0,0.0,0.0,0.0,0.0,0.0,0.0,0.0,0.0,0.0,0.0,0.0,0.0,0.0,0.0,0.0,0.0,0.0,0.0,0.0,0.0,0.0,0.0,-0.8674,-0.912,0.0,0.0,0.0,0.0,0.0,0.0,0.0,0.0,0.0,0.0,0.0,0.0,0.0,-1.2444,-1.0838,-1.1835,-1.1787,-1.0743,-1.0936,-1.1272,-1.1848,-1.1804,-1.2227,-1.2876,-1.2798,0.0,-1.0274,-1.1135,0.0,0.0,0.0,0.0,0.0,0.0,0.0,0.0,0.0,0.0,0.0,0.0,0.0,0.0,0.0,0.0,0.0,0.0,0.0,0.0,0.0,0.0,-1.126,-1.1037,-1.0962,-1.1027,0.0,-0.9909,-0.8832,-0.9165,-0.9144,0.0,0.0,0.0,0.0,0.0,0.0,0.0,-1.2528,-1.2619,-1.2705,-1.2705,-1.2705,-1.2705,-1.2705,-1.2674,-1.2554,-1.2324,-1.2164,-1.1757,-1.0907,-1.0855,0.0,0.0,0.0,0.0,0.0,0.0,0.0,0.0,0.0,0.0,0.0,0.0,0.0,0.0,0.0,0.0,0.0,0.0,0.0,0.0,0.0,0.0,0.0,0.0,0.0,0.0,0.0,0.0,0.0,-0.9323,-0.9299,-0.9645,-1.0243,-1.0605,0.0,0.0,0.0,0.0,0.0,0.0,0.0,0.0,0.0,-1.2632,-1.3474,-1.3466,-1.2596,-1.3198,-1.3259,-1.2692,-1.2853,-1.3091,-1.3434,-1.3512,-1.3674,-1.3851,-1.3851,-1.3183,-1.2178,-1.2353,-1.2452,-1.2518,0.0,0.0,0.0,0.0,-1.2812,-1.2786,-1.2612,-1.2552,0.0,-1.2358,0.0,0.0,0.0,0.0,0.0,0.0,0.0,0.0,0.0,0.0,-1.1459,-1.1534,-1.157,-1.16,-1.1721,-1.11,-1.0499,0.0,-1.0814,-1.0969,-1.11,0.0,0.0,0.0,0.0,-1.2705,-1.2705,-1.2705,-1.2705,-1.2705,-1.2705,-1.2705,-1.2705,-1.2705,-1.2656,-1.2542,-1.2397,-1.2128,-1.1727,-1.1196,-1.0684,0.0,0.0,0.0,0.0,0.0,0.0,0.0,0.0,0.0,0.0,0.0,0.0,0.0,0.0,0.0,0.0,0.0,0.0,0.0,0.0,0.0,0.0,0.0,0.0,0.0,0.0,0.0,0.0,-1.0227,-1.0149,-1.0473,-1.1099,-1.1558,0.0,0.0,0.0,0.0,0.0,0.0,-1.3689,-1.3627,-1.3663,-1.3974,-1.4223,-1.4266,-1.4108,-1.4345,-1.4388,-1.4308,-1.454,-1.4689,-1.4703,-1.4832,-1.4716,-1.4545,-1.4545,-1.4345,-1.3948,-1.3507,-1.332,-1.3313,-1.324,-1.326,-1.3313,-1.324,-1.3213,-1.318,-1.2946,-1.2866,-1.2826,-1.2605,-1.2532,-1.2532,-1.2532,0.0,0.0,0.0,0.0,-1.2056,-1.2196,-1.1942,-1.1763,-1.1878,-1.192,-1.1944,-1.2005,-1.2023,-1.2023,0.0,-1.218,-1.2337,-1.2403,0.0,0.0,0.0,0.0,-1.2705,-1.2705,-1.2705,-1.2705,-1.2705,-1.2705,-1.2705,-1.2705,-1.2705,-1.2705,-1.2705,-1.2524,-1.2379,-1.2318,-1.1605,-1.1178,-1.089,0.0,0.0,0.0,0.0,0.0,0.0,0.0,0.0,0.0,0.0,0.0,0.0,0.0,0.0,0.0,0.0,0.0,0.0,0.0,0.0,0.0,0.0,0.0,0.0,0.0,0.0,0.0,0.0,0.0,-1.2077,-1.2378,0.0,0.0,0.0,0.0,-1.3561,-1.3522,-1.3618,-1.4031,-1.4031,-1.4201,-1.4465,-1.4518,-1.4588,-1.4588,-1.4889,-1.4949,-1.4692,-1.5276,-1.5347,-1.4929,-1.5123,-1.5171,-1.5006,-1.5006,-1.491,-1.483,-1.3975,-1.3539,-1.3512,-1.332,-1.338,-1.3587,-1.3313,-1.3213,-1.3206,-1.3193,-1.3186,-1.3186,-1.3173,-1.316,-1.316,-1.316,-1.316,0.0,0.0,-1.3002,-1.2771,-1.2625,-1.2393,-1.2234,-1.192,-1.192,-1.1992,-1.224,-1.2294,-1.2294,0.0,-1.23,-1.2391,-1.2644,0.0,-1.2705,-1.2705,-1.2705,-1.2705,-1.2705,-1.2705,-1.2705,-1.2705,-1.2705,-1.2705,-1.2705,-1.2705,-1.2705,-1.2705,-1.2693,-1.2572,-1.2324,-1.2288,-1.1786,-1.0895,-1.0873,0.0,0.0,0.0,0.0,0.0,0.0,0.0,0.0,0.0,0.0,0.0,0.0,0.0,0.0,0.0,0.0,0.0,0.0,0.0,0.0,0.0,0.0,0.0,0.0,0.0,0.0,0.0,0.0,-1.2565,-1.2667,0.0,-1.3104,-1.3135,-1.3274,-1.3733,-1.3597,-1.3743,-1.4351,-1.4438,-1.4538,-1.4909,-1.5228,-1.5401,-1.5401,-1.5791,-1.5857,-1.5763,-1.5973,-1.6031,-1.5863,-1.5963,-1.5835,-1.5493,-1.5493,-1.5315,-1.4937,-1.4623,-1.4382,-1.4175,-1.3888,-1.3841,-1.3915,-1.3814,-1.3774,-1.3748,-1.3554,-1.3487,-1.346,-1.3273,-1.3213,-1.3213,-1.3213,-1.3213,-1.3213,-1.3213,-1.2969,-1.2696,-1.2787,-1.2588,-1.2298,-1.2385,-1.2421,-1.2451,-1.2542,-1.2566,-1.2566,-1.2566,-1.2566,-1.2596,-1.2687,-1.2705,-1.2705,-1.2705,-1.2705,-1.2705,-1.2705,-1.2705,-1.2705,-1.2705,-1.2705,-1.2705,-1.2705,-1.2705,-1.2705,-1.2705,-1.2705,-1.2662,-1.2566,-1.2403,-1.214,-1.1786,-1.1455,-1.101,0.0,0.0,0.0,0.0,0.0,0.0,0.0,0.0,0.0,0.0,0.0,0.0,0.0,0.0,0.0,0.0,0.0,0.0,0.0,0.0,0.0,0.0,0.0,0.0,0.0,0.0,-1.2679,-1.2879,-1.2906,-1.3057,-1.3259,-1.3684,-1.3898,-1.3978,-1.4221,-1.4451,-1.476,-1.5196,-1.5508,-1.5807,-1.6645,-1.6908,-1.6571,-1.7124,-1.7231,-1.6888,-1.7347,-1.7489,-1.7401,-1.7175,-1.6869,-1.6411,-1.6063,-1.5714,-1.5342,-1.5241,-1.499,-1.479,-1.4496,-1.4382,-1.4382,-1.4382,-1.4382,-1.4342,-1.4041,-1.3874,-1.3761,-1.3567,-1.3507,-1.3507,-1.3507,-1.3507,-1.3507,-1.3507,-1.3338,-1.314,-1.3156,-1.2868,-1.2661,-1.2662,-1.2705,-1.2705,-1.2705,-1.2705,-1.2705,-1.2705,-1.2705,-1.2705,-1.2705,-1.2705,-1.2705,-1.2705,-1.2705,-1.2705,-1.2705,-1.2705,-1.2705,-1.2705,-1.2705,-1.2705,-1.2705,-1.2705,-1.2705,-1.2705,-1.2705,-1.2705,-1.2705,-1.2367,-1.2236,-1.2318,-1.1799,-1.1289,-1.0884,0.0,0.0,0.0,0.0,0.0,0.0,0.0,0.0,0.0,0.0,0.0,0.0,0.0,0.0,0.0,0.0,0.0,0.0,0.0,0.0,0.0,0.0,0.0,-1.3099,-1.3175,-1.3213,-1.3299,-1.3299,-1.3378,-1.3601,-1.4649,-1.5079,-1.4455,-1.5457,-1.5801,-1.5249,-1.6369,-1.7122,-1.7367,-1.8574,-1.8862,-1.7834,-1.8801,-1.8801,-1.7858,-1.9171,-1.9701,-1.9356,-1.8728,-1.8326,-1.794,-1.677,-1.6319,-1.6197,-1.571,-1.5503,-1.547,-1.5167,-1.4963,-1.4963,-1.4963,-1.4963,-1.4923,-1.4636,-1.4349,-1.4115,-1.4115,-1.4115,-1.4115,-1.4115,-1.4115,-1.4115,-1.4115,-1.4115,-1.403,-1.3508,-1.3423,-1.3332,-1.282,-1.2729,-1.2729,-1.2717,-1.2717,-1.2711,-1.2705,-1.2705,-1.2705,-1.2705,-1.2705,-1.2705,-1.2705,-1.2705,0.0,-1.2705,-1.2705,-1.2705,-1.2705,-1.2705,-1.2705,-1.2705,-1.2705,-1.2705,-1.2705,-1.2705,-1.2705,-1.2705,-1.2272,-1.2155,-1.2318,-1.1811,-1.1307,-1.0884,0.0,0.0,0.0,0.0,0.0,0.0,0.0,0.0,0.0,0.0,0.0,0.0,0.0,0.0,0.0,0.0,0.0,0.0,0.0,0.0,0.0,0.0,-1.5215,-1.4185,-1.4151,-1.4445,-1.5306,-1.5416,-1.5587,-1.5825,-1.6241,-1.654,-1.6466,-1.696,-1.7261,-1.7188,-1.7523,-1.7861,-1.8204,-1.8829,-1.9161,-1.9259,-1.9698,-1.9834,-1.9566,-1.9945,-2.0086,-1.9996,-1.9827,-1.9513,-1.9063,-1.8703,-1.8427,-1.8048,-1.7957,-1.7827,-1.7674,-1.5784,-1.4963,-1.4963,-1.4963,-1.4963,-1.495,-1.487,-1.479,-1.4723,-1.4723,-1.4723,-1.4723,-1.4723,-1.4723,-1.4723,-1.4723,-1.4628,-1.4356,-1.4084,-1.3913,-1.3659,-1.3379,-1.329,-1.3242,-1.3049,-1.3006,-1.2952,-1.2741,-1.2705,-1.2705,-1.2705,-1.2705,-1.2705,-1.2705,-1.2705,0.0,-1.2705,-1.2705,-1.2705,-1.2705,-1.2705,-1.2705,-1.2705,-1.2705,-1.2705,-1.2705,-1.2705,-1.2705,-1.2705,-1.2619,-1.2409,-1.2318,-1.184,-1.1341,0.0,0.0,0.0,0.0,0.0,0.0,0.0,0.0,0.0,0.0,0.0,0.0,0.0,0.0,0.0,0.0,0.0,0.0,0.0,0.0,0.0,0.0,-1.7133,-1.6325,-1.6039,-1.562,-1.5697,-1.6373,-1.6477,-1.6557,-1.683,-1.7245,-1.7488,-1.7496,-1.8134,-1.8391,-1.8228,-1.8941,-1.9472,-1.9694,-2.0427,-2.0752,-2.0625,-2.1123,-2.123,-2.0872,-2.123,-2.1409,-2.1409,-2.1051,-2.0602,-2.0257,-1.9712,-1.9347,-1.8972,-1.888,-1.8788,0.0,0.0,0.0,0.0,0.0,-1.623,-1.5756,-1.5756,-1.5417,-1.4963,-1.4963,-1.4963,-1.4963,-1.4963,-1.4963,-1.4963,-1.4963,-1.4874,-1.4681,-1.4405,-1.4231,-1.3966,-1.3701,-1.361,-1.3471,-1.332,-1.329,-1.3236,-1.3079,-1.2958,0.0,-1.288,-1.2783,-1.2705,-1.2705,-1.2705,-1.2705,-1.2705,-1.2705,-1.2705,-1.2705,-1.2705,-1.2705,-1.2705,-1.2705,0.0,0.0,0.0,-1.2619,-1.2443,-1.2619,0.0,0.0,0.0,-1.1747,-1.1443,0.0,0.0,0.0,-0.9357,-0.9084,0.0,0.0,0.0,0.0,0.0,0.0,0.0,0.0,0.0,0.0,0.0,0.0,0.0,0.0,0.0,0.0,-1.7755,-1.7269,-1.8078,-1.7513,-1.7017,-1.7017,-1.7025,-1.7098,-1.7253,-1.8095,-1.8451,-1.8129,-1.9163,-1.9633,-1.9029,0.0,0.0,0.0,0.0,-2.2639,-2.1882,-2.2687,-2.2687,-2.1882,-2.2687,-2.3135,-2.3047,-2.2236,-2.1695,-2.1338,-2.0257,-1.9704,-1.943,-1.9247,-1.9155,-1.9063,-1.888,-1.8788,-1.8788,-1.8788,-1.8041,-1.7145,-1.7145,0.0,0.0,-1.541,-1.541,-1.541,-1.541,-1.541,-1.541,-1.541,-1.5417,-1.5327,-1.5044,-1.4766,-1.4501,-1.4242,-1.3969,-1.3683,-1.3653,-1.3556,-1.355,-1.3519,-1.3326,-1.3169,-1.3169,-1.291,-1.2705,-1.2705,-1.2705,-1.2705,-1.2705,-1.2705,-1.2705,-1.2705,0.0,0.0,-1.2705,-1.2705,-1.2705,-1.2705,-1.2705,-1.2528,-1.21,-1.2443,-1.2534,-1.21,-1.2218,-1.226,-1.2312,-1.1032,-1.0488,-1.0461,-0.9964,-0.9544,0.0,0.0,0.0,0.0,0.0,0.0,0.0,0.0,0.0,0.0,0.0,0.0,0.0,0.0,0.0,-1.939,-1.9063,-1.8895,-1.9054,-1.8895,-1.8807,-1.8807,-1.8984,-1.9063,-1.9063,-1.9906,-2.0344,-2.0263,-2.0995,-2.1418,-2.1244,-2.1572,-2.1897,-2.2235,-2.2502,-2.2707,-2.2862,-2.3047,-2.3047,-2.2862,0.0,0.0,-2.3047,-2.2872,-2.2608,-2.2157,-2.198,-2.1624,-2.1177,-2.1186,-2.1186,-2.0997,-1.9438,-1.8788,-1.8788,-1.8788,-1.8656,-1.8409,-1.8409,-1.8279,-1.8049,-1.8049,-1.8049,-1.8049,-1.8049,-1.8049,0.0,-1.8049,-1.7766,-1.7405,-1.7128,-1.6757,-1.6392,-1.6126,-1.5558,-1.4929,-1.4797,-1.4198,-1.3767,-1.3556,-1.3471,-1.3441,-1.3441,-1.3031,-1.2705,-1.2705,-1.2705,-1.2705,-1.2705,-1.2705,-1.2705,-1.2705,-1.2705,-1.2705,-1.2705,-1.2705,-1.2705,-1.2705,-1.2705,-1.2619,-1.2534,-1.2619,-1.2619,-1.2534,-1.2225,-1.2102,-1.2312,-1.1629,-1.1398,-1.1511,-0.973,-0.8856,0.0,0.0,0.0,0.0,0.0,0.0,0.0,0.0,0.0,0.0,0.0,-2.0566,0.0,0.0,-1.9863,-1.9645,-1.939,-1.9301,-1.9301,-1.9485,-1.954,-1.9329,-1.939,-1.9631,-2.0085,-2.0372,-2.0824,-2.137,-2.1787,-2.2123,-2.2197,-2.2402,-2.2607,-2.2822,-2.2822,-2.293,-2.3135,-2.3135,-2.3135,-2.3135,-2.3135,-2.3135,-2.3135,-2.3135,-2.2872,-2.2441,-2.2441,-2.2176,-2.1741,-2.1741,-2.1741,-2.1642,-2.0628,-2.0266,-2.0266,-2.0266,-1.9985,-1.9521,-1.9521,-1.9247,-1.8788,-1.8788,-1.8788,-1.8788,-1.8788,-1.8788,-1.8788,-1.8788,-1.8603,-1.8326,-1.7963,-1.7304,-1.6749,-1.6763,-1.6103,-1.5488,-1.5732,-1.5223,-1.4622,-1.449,-1.4075,-1.3713,-1.3713,-1.3375,-1.3109,-1.3109,-1.3,-1.2916,-1.2916,-1.2789,-1.2705,-1.2705,-1.2705,-1.2705,-1.2705,-1.2705,-1.2705,-1.2705,-1.2705,-1.2705,-1.2705,-1.2705,-1.2705,-1.2705,-1.2448,-1.2383,-1.2506,-1.1957,-1.1669,-1.1782,-1.0354,-0.9735,0.0,0.0,0.0,0.0,0.0,0.0,0.0,0.0,-2.0566,-2.0566,-2.0566,-2.0489,-2.0264,-2.0108,-1.9863,-1.9636,-1.9478,-1.9301,-1.9301,-1.9668,-1.9806,-1.9467,-1.9565,-1.991,-2.0661,-2.0693,-2.1047,-2.1982,-2.2233,-2.2475,-2.2637,-2.2959,-2.3135,-2.3135,-2.3135,-2.3135,-2.3135,-2.3135,-2.3135,-2.3135,-2.3135,-2.3135,-2.3135,-2.3135,-2.2872,-2.2441,-2.2353,-2.2087,-2.1741,-2.1741,-2.1741,-2.1741,-2.1741,-2.1741,-2.1741,-2.1741,-2.1186,-2.0529,-2.0529,-2.0076,-1.9347,-1.9347,-1.9247,-1.9063,-1.9063,-1.8972,-1.888,-1.9063,-1.888,-1.8603,-1.8419,-1.7483,-1.6734,-1.6943,-1.6379,-1.5906,-1.6487,-1.6103,-1.5629,-1.5439,-1.4785,-1.4166,-1.3978,-1.3809,-1.3634,-1.3532,-1.3338,-1.32,-1.32,-1.2958,-1.2783,-1.2783,-1.2735,-1.2705,-1.2705,-1.2705,-1.2705,-1.2705,-1.2705,-1.2705,-1.2705,-1.2705,-1.2705,-1.2705,-1.2705,-1.2705,-1.2705,-1.2157,-1.1891,-1.1885,-1.1291,-1.0964,-2.0706,-2.1257,0.0,-2.0779,-2.0566,-2.0566,0.0,0.0,-2.0566,-2.0342,-2.0489,-2.0489,-2.002,-2.0098,-2.0108,-1.9645,-1.9566,-1.9478,-1.9301,-1.9668,-1.9916,-1.987,-2.0494,-2.1059,-2.1106,-2.1794,-2.2308,-2.2432,-2.2746,-2.2979,-2.3066,-2.3115,-2.3135,-2.3135,-2.3135,-2.3135,-2.3135,-2.3135,-2.3135,-2.3135,-2.3135,-2.3135,-2.3135,-2.3135,-2.2969,-2.2715,-2.2274,-2.2008,-2.1741,-2.1741,-2.1741,-2.1741,-2.1741,-2.1741,-2.1741,-2.1741,-2.1642,-2.1553,-2.1553,-2.1463,-2.1374,-2.1374,-2.0808,-2.0158,-2.0158,-1.9521,-1.8972,-1.9886,-1.9155,-1.8326,-1.9155,-1.8241,-1.7138,-1.7044,-1.6943,-1.6763,-1.6676,-1.6487,-1.6204,-1.5527,-1.5317,-1.5013,-1.4345,-1.4226,-1.4051,-1.3586,-1.3489,-1.3471,-1.3471,-1.3242,-1.3079,-1.3079,-1.285,-1.2705,-1.2705,-1.2705,-1.2705,-1.2705,-1.2705,-1.2705,-1.2705,-1.2705,-1.2705,-1.2705,-1.2705,-1.2705,-1.2705,-1.2589,-1.2577,-1.2571,-1.2308,-1.163,-2.0741,0.0,0.0,0.0,-2.0566,-2.0566,-2.0411,-2.042,-2.042,-2.0342,-2.0264,-2.0098,-1.9942,-2.002,-1.9942,0.0,-1.9627,-1.972,-1.9632,-2.009,-2.043,-2.0585,-2.1399,-2.1816,-2.158,-2.1892,-2.2274,-2.2775,-2.3037,-2.3135,-2.3135,-2.3135,-2.3135,-2.3135,-2.3135,-2.3135,-2.3135,-2.3135,-2.3135,-2.3135,-2.3135,-2.3135,-2.3135,-2.3135,-2.2969,-2.2794,-2.2274,-2.2008,-2.1919,-2.1741,-2.1741,-2.1741,-2.1741,-2.1741,-2.1741,-2.1741,-2.1741,-2.1741,-2.1741,-2.1741,-2.1741,-2.1741,-2.1454,-2.1087,-2.1087,-2.0817,-2.0538,-2.0997,-2.0628,-2.0257,-2.0357,-1.9155,-1.7956,-1.8056,-1.7124,-1.6487,-1.7333,-1.7052,-1.6676,-1.6749,-1.6001,-1.5343,-1.4962,-1.458,-1.422,-1.4002,-1.3839,-1.3743,-1.3743,-1.3513,-1.3296,-1.3139,-1.3019,-1.288,-1.2717,-1.2705,-1.2705,-1.2705,-1.2705,-1.2705,-1.2705,-1.2705,-1.2705,-1.2705,-1.2705,-1.2705,-1.2705,-1.2705,-1.2705,-1.2699,-1.2596,-1.2308,-2.1011,0.0,0.0,-2.0644,-2.0566,-2.0566,-2.0342,-2.0342,-2.0342,-2.0186,-2.0177,-2.002,-1.9942,-2.002,-1.9942,-1.9539,-1.9878,-2.0146,-1.9961,-2.0606,-2.1033,-2.1158,-2.1826,-2.224,-2.2121,-2.2169,-2.238,-2.3028,-2.3135,-2.3135,-2.3135,-2.3135,-2.3135,-2.3135,-2.3135,-2.3135,-2.3135,-2.3135,-2.3135,-2.3135,-2.3135,-2.3135,-2.3135,-2.3135,-2.2969,-2.2803,-2.2353,-2.2185,-2.2097,-2.183,-2.1741,-2.1741,-2.1741,-2.1741,-2.1741,-2.1741,-2.1741,-2.1741,-2.1741,-2.1741,-2.1741,-2.1741,-2.1553,-2.1275,-2.1275,-2.1096,-2.0997,-2.1275,-2.1087,-2.0907,-2.0808,-1.9695,-1.8495,-1.8226,-1.721,-1.6574,-1.752,-1.7239,-1.7044,-1.7598,-1.6842,-1.5906,-1.5432,-1.4962,-1.4484,-1.4298,-1.4135,-1.4014,-1.4014,-1.3785,-1.3519,-1.326,-1.323,-1.3121,-1.2843,-1.2819,-1.2789,-1.2711,-1.2705,-1.2705,-1.2705,-1.2705,-1.2705,-1.2705,-1.2705,-1.2705,-1.2705,-1.2705,-1.2705,-1.2705,-1.2705,-1.2705,0.0,0.0,-2.1614,-2.0789,-2.0566,-2.0566,-2.0342,-2.0411,-2.0489,-2.002,-2.0255,-2.0411,-2.002,-2.0255,-2.0411,-1.9942,-2.0432,-2.0709,-2.0242,-2.0932,-2.1444,-2.1453,-2.1836,-2.2264,0.0,-2.295,-2.3038,-2.3135,-2.3135,-2.3135,-2.3135,-2.3135,-2.3135,-2.3135,-2.3135,-2.3135,-2.3135,-2.3135,-2.3135,-2.3135,-2.3135,-2.3135,-2.3135,-2.3135,-2.2969,-2.2803,-2.253,-2.2264,-2.2097,-2.183,-2.1741,-2.1741,-2.1741,-2.1741,-2.1741,-2.1741,-2.1741,-2.1741,-2.1741,-2.1741,-2.1741,-2.1741,-2.1087,-2.0339,-2.0339,-1.9704,-1.9063,-2.0068,-1.9613,-1.9063,-2.0068,-1.9521,-1.8411,-1.6915,-1.7109,-1.7505,-1.677,-1.7138,-1.7692,-1.7692,-1.7684,-1.7124,-1.5622,-1.5343,-1.5153,-1.4394,-1.4292,-1.4286,-1.4286,-1.4057,-1.3797,-1.3532,-1.3501,-1.3399,-1.3133,-1.3109,-1.2994,-1.2723,-1.2705,-1.2705,-1.2705,-1.2705,-1.2705,-1.2705,-1.2705,-1.2705,-1.2705,-1.2705,-1.2705,-1.2705,-1.2705,-1.2705,-2.1395,0.0,-2.0944,-2.0634,-2.0566,-2.0566,-2.0342,-2.0342,-2.0333,-1.9942,-2.002,-2.0098,-1.9942,-2.0177,-2.0351,-2.0391,-2.0652,-2.0938,-2.1062,-2.1295,-2.1575,-2.1854,-2.2013,0.0,0.0,0.0,0.0,-2.3057,-2.3135,-2.3135,-2.3135,-2.3135,-2.3135,-2.3135,-2.3135,-2.3135,-2.3135,-2.3135,-2.3135,-2.3135,-2.3135,-2.3135,-2.3135,-2.3135,-2.3047,-2.2969,-2.2608,-2.2353,-2.2264,-2.183,-2.1741,-2.1741,-2.1741,-2.1741,-2.1741,-2.1741,-2.1741,-2.1741,-2.1741,-2.1741,-2.1741,-2.1741,-2.1463,-2.1266,-2.1266,-2.0997,-2.0808,-2.1087,-2.0997,-2.0817,-2.1177,-2.0538,-1.9704,-1.9139,-1.7933,-1.7109,-1.787,-1.7505,-1.7232,-1.8257,-1.8064,-1.7498,-1.703,-1.6089,-1.5153,-1.4394,-1.4298,-1.4298,-1.4298,-1.422,-1.4063,-1.3803,-1.3773,-1.367,-1.3405,-1.3224,-1.3085,-1.2988,-1.2807,-1.2705,-1.2705,-1.2705,-1.2705,-1.2705,-1.2705,-1.2705,-1.2705,-1.2705,-1.2705,-1.2705,-1.2705,-1.2705,-2.1385,-2.0789,-2.0566,-2.0566,-2.0566,-2.0566,-2.0342,-2.0342,-2.0342,-2.0098,-2.0323,-2.0673,-2.084,-2.082,-2.0987,-2.1418,-2.1374,-2.139,-2.1722,-2.1863,-2.1973,-2.2325,-2.2274,-2.2353,0.0,0.0,0.0,-2.3047,-2.3047,-2.3057,-2.3135,-2.3135,-2.3135,-2.3135,-2.3135,-2.3135,-2.3135,-2.3135,-2.3135,-2.3135,-2.3135,-2.3135,-2.3135,-2.3135,-2.3135,-2.3047,-2.2706,-2.253,-2.2353,-2.2008,-2.183,-2.1741,-2.1741,-2.1741,-2.1741,-2.1741,-2.1741,-2.1741,-2.1741,-2.1741,-2.1741,-2.1741,-2.1741,-2.1741,-2.1741,-2.1741,-2.1741,-2.1741,-2.1741,-2.1741,-2.1741,-2.1266,-2.0709,-2.0257,-1.8956,-1.7933,-1.8788,-1.8056,-1.7606,-1.8819,-1.8535,-1.7978,-1.7785,-1.6372,-1.5248,-1.4771,-1.449,-1.4298,-1.4298,-1.4298,-1.4232,-1.4063,-1.4045,-1.3936,-1.3676,-1.3501,-1.3363,-1.3272,-1.3006,-1.285,-1.285,-1.2759,-1.2705,-1.2705,-1.2705,-1.2705,-1.2705,-1.2705,-1.2705,-1.2705,-1.2705,-1.2705,-2.1907,-2.1165,-2.0566,-2.0566,-2.0566,-2.0566,-2.0342,-2.0489,-2.0566,-2.042,-2.1165,-2.1987,0.0,-2.2174,-2.2174,-2.3109,-2.2471,-2.1987,-2.2235,-2.2553,-2.2803,0.0,0.0,0.0,0.0,0.0,0.0,-2.3057,0.0,-2.2882,-2.3057,-2.3135,-2.3135,-2.3135,-2.3135,-2.3135,-2.3135,-2.3135,-2.3135,-2.3135,-2.3135,-2.3135,-2.3135,-2.3135,-2.3135,-2.3057,-2.2882,-2.2618,-2.2353,-2.2176,-2.1919,-2.1741,-2.1741,-2.1741,-2.1741,-2.1741,-2.1741,-2.1741,-2.1741,-2.1741,-2.1741,-2.1741,-2.1741,-2.1741,-2.1741,-2.1741,-2.1741,-2.1741,-2.1741,-2.1741,-2.1741,-2.1741,-2.1374,-2.0257,-1.9985,-1.9803,-1.9338,-1.888,-1.8703,-1.9455,-1.9188,-1.8542,-1.7878,-1.6466,-1.5527,-1.5439,-1.4771,-1.4292,-1.4298,-1.4298,-1.4298,-1.4298,-1.4298,-1.4195,-1.3948,-1.3912,-1.3797,-1.355,-1.329,-1.3145,-1.3145,-1.2874,-1.2729,-1.2729,-1.2711,-1.2705,-1.2705,-1.2705,-1.2705,-1.2705,-1.2705,-1.2705,-2.0944,-2.0644,-2.0566,-2.0411,-2.0489,-2.0566,-2.0566,-2.0566,-2.0712,-2.1088,-2.1538,-2.2129,0.0,-2.2657,-2.2584,-2.3484,-2.2755,0.0,-2.2582,-2.2551,0.0,-2.2803,0.0,-2.2362,-2.2803,-2.2451,0.0,0.0,-2.2969,-2.3057,-2.3135,-2.3135,-2.3135,-2.3135,-2.3135,-2.3135,-2.3135,-2.3135,-2.3135,-2.3135,-2.3135,-2.3135,-2.3135,-2.3135,-2.3135,-2.3057,-2.2882,-2.2618,-2.2353,-2.2176,-2.1919,-2.1741,-2.1741,-2.1741,-2.1741,-2.1741,-2.1741,-2.1741,-2.1741,-2.1741,-2.1741,-2.1741,-2.1741,-2.1741,-2.1741,-2.1741,-2.1741,-2.1741,-2.1741,-2.1741,-2.1741,-2.1741,-2.1642,-2.1275,-2.0538,-1.9985,-2.0439,-1.9704,-1.9163,-1.9546,-1.9188,-1.8542,-1.7878,-1.7404,-1.6749,-1.5527,-1.5248,-1.4962,-1.4388,-1.4298,-1.4298,-1.4298,-1.4298,-1.4268,-1.4201,-1.4014,-1.3876,-1.3809,-1.3562,-1.3417,-1.3417,-1.3157,-1.3019,-1.3019,-1.2813,-1.2705,-1.2705,-1.2705,-1.2705,-1.2705,-1.2705,-1.2705,-2.0644,-2.0411,-2.0489,-2.042,-2.0712,-2.1011,-2.1088,-2.1385,-2.1756,-2.2059,-2.2499,0.0,-2.4226,-2.3589,0.0,0.0,0.0,0.0,-2.2911,-2.2794,-2.2794,0.0,-2.253,0.0,-2.2803,-2.2451,-2.2362,0.0,-2.2882,-2.2969,-2.3135,-2.3135,-2.3135,-2.3135,-2.3135,-2.3135,-2.3135,-2.3135,-2.3135,-2.3135,-2.3135,-2.3135,-2.3135,-2.3135,-2.3135,-2.3047,0.0,-2.2706,-2.2353,-2.2264,-2.2008,-2.1741,-2.1741,-2.1741,-2.1741,-2.1741,-2.1741,-2.1741,-2.1741,-2.1741,-2.1741,-2.1741,-2.1741,-2.1741,-2.1741,-2.1741,-2.1741,-2.1741,-2.1741,-2.1741,-2.1741,-2.1741,-2.1741,-2.1741,-2.1186,-2.0817,-2.1186,-2.0619,-1.9985,-1.9911,-1.9463,-1.9004,-1.8619,-1.8056,-1.7311,-1.6103,-1.5629,-1.5153,-1.4394,-1.4298,-1.4298,-1.4298,-1.4298,-1.4298,-1.4298,-1.4165,-1.4081,-1.4081,-1.3833,-1.3688,-1.3688,-1.3435,-1.3296,-1.3296,-1.3139,-1.3,-1.2886,-1.2886,-1.2825,-1.2705,-1.2705,-1.2705,-2.0712,-2.0411,-2.0342,-2.0489,-2.1011,-2.1538,-2.168,-2.2435,-2.3032,-2.3106,0.0,-2.443,-2.5627,-2.4767,-2.4314,-2.56,0.0,-2.2801,-2.3086,-2.3135,-2.3135,-2.3135,-2.2706,-2.253,-2.2803,-2.2618,-2.253,-2.2803,-2.2794,-2.2882,-2.3057,-2.3135,-2.3135,-2.3135,-2.3135,-2.3135,-2.3135,-2.3135,-2.3135,-2.3135,-2.3135,-2.3135,-2.3135,-2.3135,-2.3135,-2.3135,-2.3057,0.0,-2.2441,-2.2353,-2.2087,-2.1741,-2.1741,-2.1741,-2.1741,-2.1741,-2.1741,-2.1741,-2.1741,-2.1741,-2.1741,-2.1741,-2.1741,-2.1741,-2.1741,-2.1741,-2.1741,-2.1741,-2.1741,-2.1741,-2.1741,-2.1741,-2.1741,-2.1741,-2.1741,-2.1741,-2.1741,-2.1365,-2.0817,-2.0382,-1.992,-1.9546,-1.9554,-1.8527,-1.7412,-1.6676,-1.5913,-1.5153,-1.4394,-1.4298,-1.4298,-1.4298,-1.4298,-1.4298,-1.4298,-1.4298,-1.4298,-1.4298,-1.4087,-1.396,-1.396,-1.3707,-1.3568,-1.3568,-1.3532,-1.3405,-1.3175,-1.3175,-1.3049,-1.2813,-1.2813,-1.2813,-2.042,-2.0342,-2.0264,-2.0098,-2.0779,-2.1538,-2.1538,-2.2285,0.0,0.0,0.0,-2.4649,-2.6344,-2.5919,0.0,-2.5738,0.0,0.0,0.0,0.0,-2.3135,0.0,0.0,0.0,0.0,0.0,0.0,0.0,0.0,-2.3047,-2.3135,-2.3135,-2.3135,-2.3135,-2.3135,-2.3135,-2.3135,-2.3135,-2.3135,-2.3135,-2.3135,-2.3135,-2.3135,-2.3135,-2.3135,-2.3057,-2.2882,0.0,-2.2353,-2.2185,-2.2008,-2.1741,-2.1741,-2.1741,-2.1741,-2.1741,-2.1741,-2.1741,-2.1741,-2.1741,-2.1741,-2.1741,-2.1741,-2.1741,-2.1741,-2.1741,-2.1741,-2.1741,-2.1741,-2.1741,-2.1741,-2.1741,-2.1741,-2.1741,-2.1741,-2.1741,-2.1741,-2.1365,-2.0817,-2.0382,-1.992,-1.9463,-1.9004,-1.8257,-1.7412,-1.6676,-1.5913,-1.5153,-1.4394,-1.4298,-1.4298,-1.4298,-1.4298,-1.4298,-1.4298,-1.4298,-1.4298,-1.4298,-1.4256,-1.4226,-1.4226,-1.3978,-1.3839,-1.3839,-1.3628,-1.3495,-1.3447,-1.3447,-1.3423,-1.3375,-1.3375,-1.3375,-2.0566,-2.0722,-2.0789,-2.0401,-2.1145,-2.2124,-2.2285,0.0,0.0,0.0,-2.4707,-2.5193,-2.6656,0.0,0.0,0.0,0.0,0.0,0.0,0.0,0.0,0.0,0.0,0.0,0.0,0.0,0.0,0.0,0.0,-2.3135,-2.3135,-2.3135,-2.3135,-2.3135,-2.3135,-2.3135,-2.3135,-2.3135,-2.3135,-2.3135,-2.3135,-2.3135,-2.3135,-2.3135,-2.3135,-2.3047,-2.2969,0.0,-2.2618,-2.2353,-2.2087,-2.1919,-2.1731,-2.1741,-2.1741,-2.1741,-2.1741,-2.1741,-2.1741,-2.1741,-2.1741,-2.1741,-2.1741,-2.1741,-2.1741,-2.1741,-2.1741,-2.1741,-2.1741,-2.1741,-2.1741,-2.1741,-2.1741,-2.1741,-2.1741,-2.1741,-2.1741,-2.1365,-2.0907,-2.0736,-2.0102,-1.9554,-1.9279,-1.8719,-1.7885,-1.677,-1.6298,-1.5629,-1.449,-1.4298,-1.4298,-1.4298,-1.4298,-1.4298,-1.4298,-1.4298,-1.4298,-1.4298,-1.4298,-1.4298,-1.4298,-1.4177,-1.4111,-1.4111,-1.3984,-1.3851,-1.3719,-1.3719,-1.3646,-1.3513,-1.3513,-1.3513,-2.0712,-2.1021,-2.1318,-2.0867,-2.1669,-2.2702,-2.3095,-2.4276,0.0,0.0,-2.5312,-2.56,-2.6574,0.0,0.0,0.0,0.0,0.0,0.0,0.0,0.0,0.0,0.0,0.0,0.0,0.0,0.0,0.0,0.0,0.0,-2.3135,-2.3135,-2.3135,-2.3135,-2.3135,-2.3135,-2.3135,-2.3135,-2.3135,-2.3135,-2.3135,-2.3135,-2.3135,-2.3135,-2.3135,-2.3135,-2.3047,0.0,0.0,-2.2441,-2.2264,-2.2097,-2.183,-2.1741,-2.1741,-2.1741,-2.1741,-2.1741,-2.1741,-2.1741,-2.1741,-2.1741,-2.1741,-2.1741,-2.1741,-2.1741,-2.1741,-2.1741,-2.1741,-2.1741,-2.1741,-2.1741,-2.1741,-2.1741,-2.1741,-2.1741,-2.1741,-2.1365,-2.1087,-2.0997,-2.0365,-1.9911,-1.9737,-1.9188,-1.8357,-1.7145,-1.6581,-1.592,-1.4675,-1.4388,-1.4298,-1.4298,-1.4298,-1.4298,-1.4298,-1.4298,-1.4298,-1.4298,-1.4298,-1.4298,-1.4298,-1.4298,-1.4298,-1.4298,-1.4298,-1.4195,-1.399,-1.399,-1.3882,-1.3682,-1.3682,-1.3682,-2.0644,-2.0789,-2.1011,-2.1318,-2.2038,-2.2776,-2.3526,0.0,0.0,-2.5312,-2.5312,-2.5492,-2.6069,-2.6512,0.0,0.0,0.0,0.0,0.0,0.0,0.0,0.0,0.0,0.0,0.0,0.0,0.0,0.0,0.0,0.0,-2.3135,-2.3135,-2.3135,-2.3135,-2.3135,-2.3135,-2.3135,-2.3135,-2.3135,-2.3135,-2.3135,-2.3135,-2.3135,-2.3135,-2.3135,-2.3057,-2.2882,0.0,0.0,-2.2274,-2.2097,-2.2097,-2.183,-2.1741,-2.1741,-2.1741,-2.1741,-2.1741,-2.1741,-2.1741,-2.1741,-2.1741,-2.1741,-2.1741,-2.1741,-2.1741,-2.1741,-2.1741,-2.1741,-2.1741,-2.1741,-2.1741,-2.1741,-2.1741,-2.1741,-2.1741,-2.1741,-2.1642,-2.1553,-2.1087,-2.0898,-2.0727,-2.0292,-1.9271,-1.8434,-1.8249,-1.6655,-1.5439,-1.5343,-1.4675,-1.4298,-1.4298,-1.4298,-1.4298,-1.4298,-1.4298,-1.4298,-1.4298,-1.4298,-1.4298,-1.4298,-1.4298,-1.4298,-1.4298,-1.4298,-1.4286,-1.4262,-1.4262,-1.425,-1.4226,-1.4226,-1.4226,-2.1852,-2.1928,-2.2134,-2.208,-2.2435,-2.301,-2.3818,0.0,-2.5312,-2.5312,-2.5312,-2.5468,-2.5997,-2.6274,-2.6557,0.0,0.0,0.0,0.0,0.0,0.0,0.0,0.0,0.0,0.0,0.0,0.0,0.0,0.0,0.0,-2.3135,-2.3135,-2.3135,-2.3135,-2.3135,-2.3135,-2.3135,-2.3135,-2.3135,-2.3135,-2.3135,-2.3135,-2.3135,-2.3135,-2.3135,-2.3135,-2.3057,0.0,0.0,-2.2441,-2.2185,-2.2097,-2.183,-2.1741,-2.1741,-2.1741,-2.1741,-2.1741,-2.1741,-2.1741,-2.1741,-2.1741,-2.1741,-2.1741,-2.1741,-2.1741,-2.1741,-2.1741,-2.1741,-2.1741,-2.1741,-2.1741,-2.1741,-2.1741,-2.1741,-2.1741,-2.1741,-2.1463,-2.1177,-2.1087,-2.0727,-2.0555,-2.0292,-1.992,-1.9355,-1.8972,-1.7956,-1.6929,-1.5981,-1.533,-1.4771,-1.4394,-1.4298,-1.4298,-1.4298,-1.4298,-1.4298,-1.4298,-1.4298,-1.4298,-1.4298,-1.4298,-1.4298,-1.4298,-1.4298,-1.4298,-1.4298,-1.4298,-1.4298,-1.4298,-1.4298,-1.4298,-2.2617,-2.2681,-2.2979,-2.2767,-2.299,-2.3401,0.0,0.0,-2.5312,-2.5312,-2.5312,-2.542,-2.5793,-2.5997,-2.6406,-2.7332,0.0,-2.685,0.0,0.0,0.0,0.0,0.0,0.0,0.0,0.0,0.0,0.0,0.0,0.0,-2.3135,-2.3135,-2.3135,-2.3135,-2.3135,-2.3135,-2.3135,-2.3135,-2.3135,-2.3135,-2.3135,-2.3135,-2.3135,-2.3135,-2.3135,-2.3135,-2.3135,0.0,0.0,-2.2618,-2.2441,-2.2274,-2.1919,-2.183,-2.183,-2.1741,-2.1741,-2.1741,-2.1741,-2.1741,-2.1741,-2.1741,-2.1741,-2.1741,-2.1741,-2.1741,-2.1741,-2.1741,-2.1741,-2.1741,-2.1741,-2.1741,-2.1741,-2.1741,-2.1741,-2.1741,-2.1741,-2.1454,-2.1177,-2.1177,-2.0916,-2.0744,-2.0744,-2.0555,-2.0275,-1.9621,-1.8888,-1.7863,-1.6452,-1.5805,-1.5153,-1.4394,-1.4298,-1.4298,-1.4298,-1.4298,-1.4298,-1.4298,-1.4298,-1.4298,-1.4298,-1.4298,-1.4298,-1.4298,-1.4298,-1.4298,-1.4298,-1.4298,-1.4298,-1.4298,-1.4298,-1.4298,-2.2542,-2.2703,-2.3075,-2.3519,-2.3604,-2.3886,0.0,0.0,-2.5312,-2.5312,-2.5312,-2.5312,-2.5312,-2.5745,-2.6286,-2.6851,-2.738,0.0,0.0,0.0,0.0,0.0,0.0,0.0,0.0,0.0,0.0,0.0,0.0,0.0,-2.3135,-2.3135,-2.3135,-2.3135,-2.3135,-2.3135,-2.3135,-2.3135,-2.3135,-2.3135,-2.3135,-2.3135,-2.3135,-2.3135,-2.3135,0.0,0.0,0.0,0.0,-2.2882,-2.2794,-2.2715,-2.2274,-2.2097,-2.2097,-2.183,-2.1741,-2.1741,-2.1741,-2.1741,-2.1741,-2.1741,-2.1741,-2.1741,-2.1741,-2.1741,-2.1741,-2.1741,-2.1741,-2.1741,-2.1741,-2.1741,-2.1741,-2.1741,-2.1741,-2.1741,-2.1741,-2.1741,-2.1731,-2.1731,-2.1651,-2.1651,-2.1651,-2.1275,-2.0817,-2.0374,-1.9171,-1.7971,-1.677,-1.5913,-1.5153,-1.4394,-1.4298,-1.4298,-1.4298,-1.4298,-1.4298,-1.4298,-1.4298,-1.4298,-1.4298,-1.4298,-1.4298,-1.4298,-1.4298,-1.4298,-1.4298,-1.4298,-1.4298,-1.4298,-1.4298,-1.4298,-2.4177,-2.3863,-2.3852,-2.4334,-2.4166,-2.4204,-2.5087,0.0,-2.5312,-2.5312,-2.5312,-2.5312,-2.5312,-2.5444,-2.5733,-2.6274,-2.6827,0.0,0.0,0.0,0.0,0.0,0.0,0.0,0.0,0.0,0.0,0.0,0.0,0.0,-2.3135,-2.3135,-2.3135,-2.3135,-2.3135,-2.3135,-2.3135,-2.3135,-2.3135,-2.3135,-2.3135,-2.3135,-2.3135,-2.3135,-2.3135,0.0,0.0,0.0,0.0,-2.2803,-2.2706,-2.253,-2.2353,-2.2185,-2.2097,-2.2008,-2.183,-2.1741,-2.1741,-2.1741,-2.1741,-2.1741,-2.1741,-2.1741,-2.1741,-2.1741,-2.1741,-2.1741,-2.1741,-2.1741,-2.1741,-2.1741,-2.1741,-2.1741,-2.1741,-2.1741,-2.1741,-2.1741,-2.1741,-2.1741,-2.1741,-2.1741,-2.1741,-2.1553,-2.1463,-2.1284,-2.0637,-1.9612,-1.8175,-1.725,-1.6188,-1.4878,-1.4469,-1.4298,-1.4298,-1.4298,-1.4298,-1.4298,-1.4298,-1.4298,-1.4298,-1.4298,-1.4298,-1.4298,-1.4298,-1.4298,-1.4298,-1.4298,-1.4298,-1.4298,-1.4298,-1.4298,0.0,-2.4622,-2.4455,-2.4718,-2.4611,0.0,0.0,0.0,-2.5312,-2.5312,-2.5312,-2.5312,-2.5312,-2.5312,-2.548,-2.6009,-2.6394,0.0,0.0,0.0,0.0,0.0,0.0,0.0,0.0,0.0,0.0,0.0,0.0,0.0,-2.3135,-2.3135,-2.3135,-2.3135,-2.3135,-2.3135,-2.3135,-2.3135,-2.3135,-2.3135,-2.3135,-2.3135,-2.3135,-2.3135,-2.3135,0.0,0.0,0.0,0.0,-2.2882,-2.2794,-2.2696,-2.2618,-2.2441,-2.2185,-2.2097,-2.1919,-2.1741,-2.1741,-2.1741,-2.1741,-2.1741,-2.1741,-2.1741,-2.1741,-2.1741,-2.1741,-2.1741,-2.1741,-2.1741,-2.1741,-2.1741,-2.1741,-2.1741,-2.1741,-2.1741,-2.1741,-2.1741,-2.1741,-2.1741,-2.1741,-2.1741,-2.1741,-2.1741,-2.1596,-2.1264,-2.0962,-2.0182,-1.8539,-1.7612,-1.6584,-1.5217,-1.4633,-1.4242,-1.4242,-1.4333,-1.4298,-1.4298,-1.4298,-1.4298,-1.4298,-1.4298,-1.4298,-1.4298,-1.4298,-1.4298,-1.4298,-1.4298,-1.4298,-1.4298,-1.4298,-1.4298,0.0,0.0,0.0,0.0,0.0,0.0,0.0,0.0,0.0,0.0,-2.5312,-2.5312,-2.5312,-2.5312,-2.5468,-2.5961,0.0,0.0,0.0,0.0,0.0,0.0,0.0,0.0,0.0,0.0,0.0,0.0,0.0,0.0,-2.3135,-2.3135,-2.3135,-2.3135,-2.3135,-2.3135,-2.3135,-2.3135,-2.3135,-2.3135,-2.3135,-2.3135,-2.3135,-2.3135,-2.3135,0.0,0.0,0.0,0.0,-2.3135,-2.3135,-2.3047,-2.2882,-2.2618,-2.2441,-2.2185,-2.2008,-2.1741,-2.1741,-2.1741,-2.1741,-2.1741,-2.1741,-2.1741,-2.1741,-2.1741,-2.1741,-2.1741,-2.1741,-2.1741,-2.1741,-2.1741,-2.1741,-2.1741,-2.1741,-2.1741,-2.1741,-2.1741,-2.1741,-2.1741,-2.1741,-2.1741,-2.1741,-2.1713,-2.1389,-2.057,-2.0403,-1.9791,-1.8197,-1.7201,-1.6411,-1.5697,-1.4806,-1.4248,-1.4248,-1.423,-1.4298,-1.4298,-1.4298,-1.4298,-1.4298,-1.4298,-1.4298,-1.4298,-1.4298,-1.4298,-1.4298,-1.4298,-1.4298,-1.4298,-1.4298,-1.4298,-2.4333,0.0,-2.5182,-2.5182,-2.5182,0.0,0.0,0.0,0.0,0.0,0.0,0.0,0.0,0.0,0.0,0.0,0.0,0.0,0.0,0.0,0.0,0.0,0.0,0.0,0.0,0.0,0.0,0.0,0.0,-2.3135,-2.3135,-2.3135,-2.3135,-2.3135,-2.3135,-2.3135,-2.3135,-2.3135,-2.3135,-2.3135,-2.3135,-2.3135,-2.3135,-2.3135,-2.3135,0.0,0.0,0.0,-2.3135,-2.3135,-2.3135,-2.3135,-2.3047,-2.2882,-2.2706,-2.2618,-2.2362,-2.2008,-2.2008,-2.183,-2.1741,-2.1741,-2.1741,-2.1741,-2.1741,-2.1741,-2.1741,-2.1741,-2.1741,-2.1741,-2.1741,-2.1741,-2.1741,-2.1741,-2.1741,-2.1741,-2.1741,-2.1741,-2.1741,-2.1741,-2.1741,-2.1741,-2.1741,-2.1465,-2.1131,-2.0953,-2.068,-2.009,-1.9112,-1.8181,-1.7368,-1.6612,-1.5301,-1.4411,-1.4411,-1.4309,-1.4298,-1.4298,-1.4298,-1.4298,-1.4298,-1.4298,-1.4298,-1.4298,-1.4298,-1.4298,-1.4298,-1.4298,-1.4298,-1.4298,-1.4298,-1.4298,-2.3664,-2.4374,-2.5011,-2.5252,-2.5312,-2.5312,0.0,0.0,0.0,0.0,0.0,0.0,0.0,0.0,0.0,0.0,0.0,0.0,0.0,0.0,0.0,0.0,0.0,0.0,0.0,0.0,0.0,0.0,0.0,-2.3135,-2.3135,-2.3135,-2.3135,-2.3135,-2.3135,-2.3135,-2.3135,-2.3135,-2.3135,-2.3135,-2.3135,-2.3135,-2.3135,-2.3135,-2.3135,0.0,0.0,0.0,-2.3135,-2.3135,-2.3135,-2.3135,-2.3135,-2.2969,-2.2803,-2.2618,-2.2362,-2.2097,-2.1919,-2.183,-2.1741,-2.1741,-2.1741,-2.1741,-2.1741,-2.1741,-2.1741,-2.1741,-2.1741,-2.1741,-2.1741,-2.1741,-2.1741,-2.1741,-2.1741,-2.1741,-2.1741,-2.1741,-2.1741,-2.1741,-2.1741,-2.1676,-2.1484,-2.1255,-2.0979,-2.0622,-2.0383,-2.0017,-1.9372,-1.8568,-1.7854,-1.7416,-1.6257,-1.5507,-1.5258,-1.5234,-1.4849,-1.4029,-1.4051,-1.4117,-1.4117,-1.4232,-1.4298,-1.4298,-1.4298,-1.4298,-1.4298,-1.4298,-1.4298,-1.4298,-1.4298,-1.4298,-2.2955,-2.3616,-2.4434,-2.5035,-2.5252,-2.5312,-2.5312,0.0,0.0,0.0,0.0,0.0,0.0,0.0,0.0,0.0,0.0,0.0,0.0,0.0,0.0,0.0,0.0,0.0,0.0,0.0,0.0,0.0,0.0,-2.3135,-2.3135,-2.3135,-2.3135,-2.3135,-2.3135,-2.3135,-2.3135,-2.3135,-2.3135,-2.3135,-2.3135,-2.3135,-2.3135,-2.3135,-2.3135,-2.3135,0.0,0.0,-2.3135,-2.3135,-2.3135,-2.3135,-2.3135,-2.2969,-2.2794,-2.253,-2.2274,-2.2097,-2.182,-2.1741,-2.1741,-2.1741,-2.1741,-2.1741,-2.1741,-2.1741,-2.1741,-2.1741,-2.1741,-2.1741,-2.1741,-2.1741,-2.1741,-2.1741,-2.1741,-2.1741,-2.1741,-2.1741,-2.1741,-2.1741,-2.1686,-2.153,-2.1172,-2.1007,-2.0704,-2.0035,-1.9879,-1.9705,-1.9347,-1.8567,-1.8086,-1.8086,-1.7284,-1.6546,-1.6137,-1.6045,-1.5327,-1.3746,-1.386,-1.3938,-1.3845,-1.4057,-1.4195,-1.4238,-1.4238,-1.4256,-1.4298,-1.4256,-1.4238,-1.4238,-1.4195,-1.4177,-2.2859,-2.3099,-2.3448,-2.4398,-2.4975,-2.5312,-2.5312,0.0,0.0,0.0,0.0,0.0,0.0,0.0,0.0,0.0,0.0,0.0,0.0,0.0,0.0,0.0,0.0,0.0,0.0,0.0,0.0,0.0,0.0,-2.3135,-2.3135,-2.3135,-2.3135,-2.3135,-2.3135,-2.3135,-2.3135,-2.3135,-2.3135,-2.3135,-2.3135,-2.3135,-2.3135,-2.3135,-2.3135,-2.3135,0.0,-2.3135,-2.3135,-2.3135,-2.3135,-2.3135,-2.3135,-2.2969,-2.2803,-2.2706,-2.2451,-2.2097,-2.182,-2.1741,-2.1741,-2.1741,-2.1741,-2.1741,-2.1741,-2.1741,-2.1741,-2.1741,-2.1741,-2.1741,-2.1741,-2.1741,-2.1741,-2.1741,-2.1741,-2.1741,-2.1741,-2.1741,-2.1741,-2.1741,-2.1447,-2.1181,-2.1117,-2.0549,-2.0072,-1.9943,-1.9622,-1.9375,-1.9311,-1.8922,-1.8612,-1.8612,-1.7335,-1.6472,-1.6389,-1.5518,-1.4789,-1.4535,-1.4445,-1.4107,-1.3574,-1.361,-1.3743,-1.396,-1.3966,-1.4075,-1.4298,-1.4075,-1.3966,-1.396,-1.3743,-1.3634,-2.2486,-2.2763,-2.3099,-2.3568,-2.429,-2.4951,-2.524,0.0,0.0,0.0,0.0,0.0,0.0,0.0,0.0,0.0,0.0,0.0,0.0,0.0,0.0,0.0,0.0,0.0,0.0,0.0,0.0,0.0,0.0,0.0,-2.3135,-2.3135,-2.3135,-2.3135,-2.3135,-2.3135,-2.3135,-2.3135,-2.3135,-2.3135,-2.3135,-2.3135,-2.3135,-2.3135,-2.3135,-2.3135,0.0,-2.3135,-2.3135,-2.3135,-2.3135,-2.3135,-2.3135,-2.3057,-2.2969,-2.2794,-2.2539,-2.2097,-2.1919,-2.183,-2.1741,-2.1741,-2.1741,-2.1741,-2.1741,-2.1741,-2.1741,-2.1741,-2.1741,-2.1741,-2.1741,-2.1741,-2.1741,-2.1741,-2.1741,-2.1741,-2.1741,-2.1741,-2.1741,-2.1741,-2.1392,-2.1034,-2.0824,-2.031,-1.9852,-1.9622,-1.943,-1.9301,-1.9301,-1.9152,-1.8922,-1.8692,-1.804,-1.7465,-1.6976,-1.6476,-1.5808,-1.4972,-1.4897,-1.4592,-1.4038,-1.4044,-1.3994,-1.39,-1.3906,-1.4039,-1.4298,-1.4032,-1.3906,-1.39,-1.3634,-1.3513,-2.2197,-2.2486,-2.2823,-2.2955,0.0,-2.4558,-2.4813,0.0,0.0,0.0,0.0,0.0,0.0,0.0,0.0,0.0,0.0,0.0,0.0,0.0,0.0,0.0,0.0,0.0,0.0,0.0,0.0,0.0,0.0,0.0,-2.3135,-2.3135,-2.3135,-2.3135,-2.3135,-2.3135,-2.3135,-2.3135,-2.3135,-2.3135,-2.3135,-2.3135,-2.3135,-2.3135,-2.3135,-2.3135,-2.3135,-2.3135,-2.3135,-2.3135,-2.3135,-2.3135,-2.3135,-2.3057,-2.2969,-2.2794,-2.2451,-2.2185,-2.2185,-2.2008,-2.182,-2.182,-2.1731,-2.1741,-2.1741,-2.1741,-2.1741,-2.1741,-2.1741,-2.1741,-2.1741,-2.1741,-2.1741,-2.1741,-2.1741,-2.1741,-2.1741,-2.1741,-2.1704,-2.1612,-2.1255,-2.0842,-2.0448,-2.0053,-1.9668,-1.9347,-1.9301,-1.9301,-1.9301,-1.9301,-1.9152,-1.8843,-1.8772,-1.8371,-1.7635,-1.7554,-1.7006,-1.5745,-1.5248,-1.4756,-1.4369,-1.4294,-1.4193,-1.3809,-1.3755,-1.3912,-1.4298,-1.3912,-1.3755,-1.3809,-1.3544,-1.3423,-2.2197,-2.2221,-2.2366,-2.2859,-2.3761,0.0,-2.3653,-2.439,0.0,-2.4337,0.0,0.0,0.0,0.0,0.0,0.0,0.0,0.0,0.0,0.0,0.0,0.0,0.0,0.0,0.0,0.0,0.0,0.0,0.0,0.0,-2.3115,-2.3135,-2.3135,-2.3135,-2.3135,-2.3135,-2.3135,-2.3135,-2.3135,-2.3135,-2.3135,-2.3135,-2.3135,-2.3135,-2.3135,-2.3135,-2.3135,-2.3135,-2.3135,-2.3135,-2.3135,-2.3135,-2.3135,-2.2969,-2.2794,-2.253,-2.2441,-2.2353,-2.2353,-2.2264,-2.2097,-2.2097,-2.1919,-2.1741,-2.1741,-2.1741,-2.1741,-2.1741,-2.1741,-2.1741,-2.1741,-2.1741,-2.1741,-2.1741,-2.1741,-2.1741,-2.1741,-2.1741,-2.1621,-2.1227,-2.0833,-2.0438,-2.0044,-1.9622,-1.9338,-1.9301,-1.9301,-1.9301,-1.9301,-1.9301,-1.9301,-1.9222,-1.8922,-1.8531,-1.804,-1.7959,-1.7725,-1.7261,-1.5688,-1.4446,-1.3796,-1.3796,-1.3709,-1.3532,-1.3302,-1.355,-1.4292,-1.3544,-1.3308,-1.3538,-1.3272,-1.3151,-2.2197,-2.2197,-2.2246,-2.2438,-2.328,0.0,0.0,-2.3632,-2.3756,0.0,0.0,0.0,0.0,0.0,0.0,0.0,0.0,0.0,0.0,0.0,0.0,0.0,0.0,0.0,0.0,0.0,0.0,0.0,0.0,0.0,-2.2353,-2.2353,-2.2353,-2.2353,-2.2353,-2.2606,-2.3089,-2.3089,-2.3329,-2.3815,-2.388,-2.3647,-2.3135,-2.3734,-2.3647,-2.3135,-2.3135,-2.3135,-2.3135,-2.3135,-2.3135,-2.3135,-2.3135,-2.3047,-2.2969,-2.2872,-2.2794,-2.2618,-2.2618,-2.2451,-2.2097,-2.2097,-2.1919,-2.1741,-2.1741,-2.1741,-2.1741,-2.1741,-2.1741,-2.1741,-2.1741,-2.1741,-2.1741,-2.1741,-2.1741,-2.1741,-2.1741,-2.153,-2.1291,-2.1135,-2.0585,-2.0108,-1.9962,-1.9577,-1.9301,-1.9301,-1.9301,-1.9301,-1.9301,-1.9301,-1.9222,-1.8922,-1.8523,-1.8121,-1.7635,-1.7635,-1.7473,-1.6976,-1.6566,-1.5733,-1.4405,-1.4321,-1.4084,-1.3501,-1.3417,-1.3676,-1.4298,-1.367,-1.3501,-1.3749,-1.332,-1.3212,-2.2197,-2.2197,-2.2197,0.0,0.0,0.0,-2.2628,-2.2965,0.0,0.0,0.0,0.0,0.0,0.0,0.0,0.0,0.0,0.0,0.0,0.0,0.0,0.0,0.0,0.0,0.0,0.0,0.0,0.0,0.0,0.0,0.0,-2.2594,-2.2594,-2.2594,-2.2594,-2.291,-2.3465,-2.3465,-2.3695,-2.4241,-2.4669,-2.4399,-2.3483,-2.4293,-2.4281,-2.3695,-2.3587,-2.356,-2.3474,-2.3222,-2.3135,-2.3135,-2.3135,-2.3135,-2.3135,-2.3135,-2.2969,-2.2882,-2.2882,-2.2618,-2.2274,-2.2185,-2.2008,-2.183,-2.1741,-2.1741,-2.1741,-2.1741,-2.1741,-2.1741,-2.1741,-2.1741,-2.1741,-2.1741,-2.1741,-2.1704,-2.1566,-2.131,-2.1034,-2.0787,-2.0301,-1.9888,-1.9751,-1.9494,-1.9301,-1.9301,-1.9301,-1.9301,-1.9301,-1.9301,-1.9222,-1.8922,-1.8603,-1.8273,-1.8031,-1.8031,-1.7708,-1.7139,-1.7302,-1.6558,-1.4734,-1.4734,-1.4295,-1.3381,-1.3302,-1.3562,-1.4171,-1.3646,-1.3568,-1.3894,-1.3538,-1.3465,-2.2197,-2.2197,0.0,0.0,0.0,0.0,0.0,0.0,0.0,0.0,0.0,0.0,0.0,0.0,0.0,0.0,0.0,0.0,0.0,0.0,0.0,0.0,0.0,0.0,0.0,0.0,0.0,0.0,0.0,0.0,0.0,-2.423,-2.423,-2.423,-2.423,-2.423,-2.4219,-2.4219,-2.4219,-2.423,-2.5182,-2.5116,-2.4252,-2.4729,-2.5017,-2.4968,-2.4619,-2.4478,-2.4392,-2.3474,-2.3135,-2.3135,-2.3135,-2.3135,-2.3135,-2.3135,-2.3135,-2.3135,-2.3135,-2.2969,-2.2803,-2.253,-2.2264,-2.2008,-2.1741,-2.1741,-2.1741,-2.1741,-2.1741,-2.1741,-2.1741,-2.1741,-2.1741,-2.1741,-2.1731,-2.1621,-2.12,-2.1099,-2.0869,-2.0081,-1.9925,-1.9797,-1.9375,-1.9301,-1.9301,-1.9301,-1.9301,-1.9301,-1.9301,-1.9301,-1.9301,-1.9301,-1.9301,-1.9301,-1.9301,-1.9301,-1.8904,-1.8031,-1.761,-1.6617,-1.4734,-1.4741,-1.4208,-1.3121,-1.2856,-1.3109,-1.3912,-1.3387,-1.3399,-1.3912,-1.3906,-1.3906,-2.2197,0.0,0.0,0.0,0.0,0.0,0.0,0.0,0.0,0.0,0.0,0.0,0.0,0.0,0.0,0.0,0.0,0.0,0.0,0.0,0.0,0.0,0.0,0.0,0.0,0.0,0.0,0.0,0.0,0.0,0.0,-2.3383,-2.3383,-2.3383,-2.3383,-2.3599,-2.4112,-2.4123,-2.442,-2.4958,-2.5262,-2.4958,-2.4241,-2.5026,-2.5093,-2.4458,-2.4358,-2.426,-2.4281,-2.3721,-2.3368,-2.3135,-2.3135,-2.3135,-2.3135,-2.3135,-2.3135,-2.3135,-2.3135,-2.2969,-2.2803,-2.253,-2.2264,-2.2008,-2.1741,-2.1741,-2.1741,-2.1741,-2.1741,-2.1741,-2.1741,-2.1741,-2.1741,-2.1741,-2.1511,-2.1264,-2.1135,-2.0668,-2.0209,-1.9971,-1.9687,-1.9448,-1.932,-1.9301,-1.9301,-1.9301,-1.9301,-1.9301,-1.9301,-1.9301,-1.9301,-1.9301,-1.9301,-1.9152,-1.8931,-1.8851,-1.8603,-1.804,-1.7627,-1.6558,-1.4734,-1.461,-1.4174,-1.3393,-1.3501,-1.3755,-1.4177,-1.3839,-1.3845,-1.4177,-1.399,-1.4002,-2.2197,0.0,0.0,0.0,0.0,0.0,0.0,0.0,0.0,0.0,0.0,0.0,0.0,0.0,0.0,0.0,0.0,0.0,0.0,0.0,0.0,0.0,0.0,0.0,0.0,0.0,0.0,0.0,0.0,0.0,0.0,-2.3902,-2.3902,-2.3902,-2.3902,-2.4131,-2.4564,-2.4564,-2.4791,-2.5312,-2.5312,-2.5048,-2.4672,-2.5419,-2.5512,-2.4966,-2.4781,-2.4557,-2.4183,-2.3677,-2.3463,-2.3456,-2.2883,-2.2808,-2.3053,-2.2722,-2.2646,-2.2646,-2.2646,-2.2561,-2.2389,-2.2122,-2.1949,-2.1785,-2.1429,-2.1332,-2.1332,-2.1255,-2.1255,-2.1255,-2.1255,-2.1255,-2.1291,-2.1447,-2.1291,-2.1016,-2.0704,-2.0264,-1.9879,-1.9714,-1.9476,-1.9301,-1.9301,-1.9301,-1.9301,-1.9301,-1.9301,-1.9301,-1.9301,-1.9301,-1.9301,-1.9301,-1.9301,-1.9231,-1.8922,-1.8922,-1.8763,-1.829,-1.8014,-1.7177,-1.5661,-1.5012,-1.4474,-1.396,-1.3854,-1.3882,-1.4141,-1.3984,-1.4039,-1.4292,-1.4135,-1.4147,0.0,0.0,0.0,0.0,0.0,0.0,0.0,0.0,0.0,0.0,0.0,0.0,0.0,0.0,0.0,0.0,0.0,0.0,0.0,0.0,0.0,0.0,0.0,0.0,0.0,0.0,0.0,0.0,0.0,0.0,0.0,-2.5312,-2.5312,-2.5312,-2.5312,-2.5312,-2.5312,-2.5312,-2.5312,-2.5312,-2.5312,-2.5312,-2.5324,-2.5805,-2.6021,-2.5985,-2.5716,-2.5081,-2.4176,-2.3551,-2.3663,-2.4083,-2.2594,-2.2441,-2.3001,-2.2205,-2.1885,-2.1885,-2.1885,-2.1885,-2.1885,-2.1627,-2.146,-2.1368,-2.0931,-2.0838,-2.0755,-2.0596,-2.0521,-2.0521,-2.0521,-2.0521,-2.0594,-2.0924,-2.0998,-2.0805,-2.009,-1.9897,-1.976,-1.9375,-1.9301,-1.9301,-1.9301,-1.9301,-1.9301,-1.9301,-1.9301,-1.9301,-1.9301,-1.9301,-1.9301,-1.9301,-1.9301,-1.9301,-1.9301,-1.9301,-1.917,-1.8825,-1.8737,-1.8188,-1.714,-1.5864,-1.5055,-1.4624,-1.3932,-1.3707,-1.3942,-1.3942,-1.4063,-1.4298,-1.4298,-1.4298,0.0,0.0,0.0,0.0,0.0,0.0,0.0,0.0,0.0,0.0,0.0,0.0,0.0,0.0,0.0,0.0,0.0,0.0,0.0,0.0,0.0,0.0,0.0,0.0,0.0,0.0,0.0,0.0,0.0,0.0,-2.5312,-2.5312,-2.5312,-2.5312,-2.5312,-2.5312,-2.5312,-2.5312,-2.5312,0.0,-2.5312,-2.5312,-2.5312,-2.5432,-2.548,-2.548,-2.5385,-2.5063,-2.4661,-2.4509,-2.436,-2.4083,-2.3234,-2.292,-2.3001,-2.2205,-2.1885,-2.1885,-2.1885,-2.1885,-2.1885,-2.1627,-2.146,-2.1368,-2.0931,-2.0838,-2.0755,-2.0596,-2.0521,-2.0521,-2.0521,-2.0521,-2.0457,-2.0237,-2.0182,-2.0136,-1.9971,-1.9668,-1.9412,-1.932,-1.9301,-1.9301,-1.9301,-1.9301,-1.9301,-1.9301,-1.9301,-1.9301,-1.9301,-1.9301,-1.9301,-1.9301,-1.9301,-1.9301,-1.9301,-1.9301,-1.9359,-1.9616,-1.9306,-1.8946,-1.8474,-1.6795,-1.5568,-1.4917,-1.4396,-1.4159,-1.4214,-1.4214,-1.4244,-1.4298,-1.4298,-1.4298,0.0,0.0,0.0,0.0,0.0,0.0,0.0,0.0,0.0,0.0,0.0,0.0,0.0,0.0,0.0,0.0,0.0,0.0,0.0,0.0,0.0,0.0,0.0,0.0,0.0,0.0,0.0,0.0,0.0,-2.5312,-2.5312,-2.5312,-2.5312,-2.5312,-2.5312,-2.5312,-2.5312,-2.5312,-2.5312,-2.5312,-2.5312,-2.5312,-2.5312,-2.5312,-2.5312,-2.5312,-2.5312,-2.5171,-2.5046,-2.4595,-2.4597,-2.4548,-2.3105,-2.2715,-2.2871,-2.172,-2.125,-2.125,-2.125,-2.125,-2.125,-2.1009,-2.0928,-2.0847,-2.0351,-2.027,-2.0179,-2.0016,-1.9934,-1.9934,-1.9934,-1.9934,-1.9879,-1.9677,-1.9787,-1.987,-1.9668,-1.9457,-1.9301,-1.9301,-1.9301,-1.9301,-1.9301,-1.9301,-1.9301,-1.9301,-1.9301,-1.9301,-1.9301,-1.9301,-1.9301,-1.9301,-1.9301,-1.9384,-1.9586,-1.9604,-1.9778,-2.0191,-2.0141,-1.9909,-1.9268,-1.843,-1.7139,-1.5591,-1.5347,-1.4956,-1.449,-1.4394,-1.4298,-1.4298,-1.4298,-1.4298,0.0,0.0,0.0,0.0,0.0,0.0,0.0,0.0,0.0,0.0,0.0,0.0,0.0,0.0,0.0,0.0,0.0,0.0,0.0,0.0,0.0,0.0,0.0,0.0,0.0,0.0,0.0,0.0,0.0,-2.5312,-2.5312,-2.5312,-2.5312,-2.5312,-2.5312,-2.5312,-2.5312,-2.5312,-2.5312,-2.5312,-2.5312,-2.5312,-2.5312,-2.5312,-2.5312,-2.5312,-2.5312,-2.5312,-2.5229,-2.4564,-2.4707,-2.5087,-2.3021,-2.2574,-2.3021,-2.1385,-2.0789,-2.0789,-2.0644,-2.0566,-2.0566,-2.042,-2.0342,-2.0264,-1.9882,-1.9715,-1.9715,-1.9469,-1.9381,-1.9381,-1.9381,-1.9381,-1.9301,-1.9301,-1.9567,-1.9723,-1.9375,-1.9301,-1.9301,-1.9301,-1.9301,-1.9301,-1.9301,-1.9301,-1.9301,-1.9301,-1.9301,-1.9301,-1.9301,-1.9366,-1.9412,-1.9412,-1.9467,-1.965,-1.9998,-2.0035,-2.02,-2.0594,-2.0924,-2.0709,-1.9829,-2.0112,-1.9055,-1.6655,-1.6358,-1.5704,-1.4592,-1.4394,-1.4298,-1.4298,-1.4298,-1.4298,0.0,0.0,0.0,0.0,0.0,0.0,0.0,0.0,0.0,0.0,0.0,0.0,0.0,0.0,0.0,0.0,0.0,0.0,0.0,0.0,0.0,0.0,0.0,0.0,0.0,0.0,0.0,0.0,-2.5312,-2.5312,-2.5312,-2.5312,-2.5312,-2.5312,-2.5312,-2.5312,-2.5312,-2.5312,-2.5312,-2.5312,-2.5312,-2.5312,-2.5312,-2.5312,-2.5312,-2.5312,-2.5312,-2.5312,-2.5312,-2.5158,-2.5229,-2.5229,-2.4192,-2.3891,-2.3756,-2.2199,-2.1614,-2.1538,-2.0867,-2.0566,-2.0566,-2.0566,-2.0566,-2.0489,-2.0264,-2.0186,-2.0186,-1.9863,-1.9784,-1.9784,-1.9636,-1.9557,-1.9557,-1.9301,-1.9347,-1.9366,-1.9311,-1.9301,-1.9301,-1.9301,-1.9301,-1.9301,-1.9301,-1.9301,-1.9301,-1.9301,-1.9301,-1.9301,-1.9301,-1.9622,-1.9842,-1.9842,-2.0154,-2.0383,-2.0438,-2.0438,-2.0613,-2.1007,-2.108,-2.0817,-2.0262,-2.106,-2.0538,-1.8511,-1.7008,-1.5602,-1.4394,-1.4298,-1.4298,-1.4298,-1.4298,-1.4298,0.0,0.0,0.0,0.0,0.0,0.0,0.0,0.0,0.0,0.0,0.0,0.0,0.0,0.0,0.0,0.0,0.0,0.0,0.0,0.0,0.0,0.0,0.0,0.0,0.0,0.0,0.0,0.0,-2.5312,-2.5312,-2.5312,-2.5312,-2.5312,-2.5312,-2.5312,-2.5312,-2.5312,-2.5312,-2.5155,-2.4867,-2.4867,-2.4711,-2.4446,-2.4446,-2.4759,-2.5312,-2.5312,-2.5312,-2.5312,-2.5312,-2.5312,-2.5229,-2.4409,-2.4108,-2.3891,-2.2349,-2.1832,-2.169,-2.0867,-2.0566,-2.0566,-2.0498,-2.0411,-2.042,-2.0177,-2.0108,-2.002,-1.9942,-1.9784,-1.9715,-1.9636,-1.9557,-1.939,-1.9301,-1.9301,-1.9301,-1.9301,-1.9301,-1.9301,-1.9301,-1.9301,-1.9301,-1.9301,-1.9301,-1.9301,-1.9301,-1.9301,-1.9384,-1.9622,-1.9815,-2.0017,-2.0237,-2.042,-2.0613,-2.0833,-2.0851,-2.1025,-2.1429,-2.1456,-2.1076,-2.0403,-2.1022,-2.0386,-1.8305,-1.7743,-1.7008,-1.6281,-1.5551,-1.5106,-1.495,-1.495,-1.4679,0.0,0.0,0.0,0.0,0.0,0.0,0.0,0.0,0.0,0.0,0.0,0.0,0.0,0.0,0.0,0.0,0.0,0.0,0.0,0.0,0.0,0.0,0.0,0.0,0.0,0.0,0.0,0.0,-2.5312,-2.5312,-2.5312,-2.5312,-2.5252,-2.5107,-2.5107,-2.5047,-2.4915,-2.4915,-2.4723,-2.4326,-2.4326,-2.4133,-2.3773,-2.3773,-2.4194,-2.4927,-2.5047,-2.518,-2.5312,-2.5312,-2.5312,-2.5229,-2.4636,-2.4409,-2.4264,-2.2861,-2.2285,-2.1983,-2.1385,-2.1088,-2.0944,-2.0934,-2.1011,-2.0934,-2.0779,-2.0624,-2.0557,-2.0624,-2.0323,-2.0029,-2.002,-1.9696,-1.946,-1.9301,-1.9301,-1.9301,-1.9301,-1.9301,-1.9301,-1.9301,-1.9301,-1.9301,-1.9301,-1.9301,-1.9338,-1.9439,-1.9457,-1.9577,-1.9888,-2.0017,-2.0154,-2.0347,-2.0457,-2.064,-2.0934,-2.0961,-2.1099,-2.141,-2.1337,-2.0971,-2.0318,-2.0534,-1.9903,-1.8253,-1.8241,-1.8021,-1.7497,-1.6339,-1.5659,-1.5694,-1.5177,-1.4716,0.0,0.0,0.0,0.0,0.0,0.0,0.0,0.0,0.0,0.0,0.0,0.0,0.0,0.0,0.0,0.0,0.0,0.0,0.0,0.0,0.0,0.0,0.0,0.0,0.0,0.0,0.0,0.0,-2.5312,-2.5312,-2.5312,-2.5312,-2.5083,-2.4578,-2.4554,-2.4338,-2.3857,-2.3845,-2.3833,-2.3809,-2.3809,-2.3797,-2.3773,-2.3773,-2.3797,-2.3881,-2.4362,-2.4843,-2.5312,-2.5312,-2.5312,-2.5312,-2.5229,-2.5229,-2.5158,-2.4264,-2.3537,-2.2957,-2.2883,-2.236,-2.1832,-2.2585,-2.2883,-2.2883,-2.2872,-2.2606,-2.2317,-2.2734,-2.2004,-2.1118,-2.1078,-2.0459,-1.9784,-1.9381,-1.9301,-1.9301,-1.9301,-1.9301,-1.9301,-1.9301,-1.9301,-1.9301,-1.9301,-1.9301,-1.9439,-1.9833,-1.9897,-1.9907,-1.9925,-2.0255,-2.0356,-1.9998,-2.0292,-2.053,-2.0549,-2.0549,-2.0558,-2.0585,-2.0228,-1.9935,-1.9916,-1.9604,-1.9304,-1.9197,-1.8342,-1.753,-1.6873,-1.5712,-1.5476,-1.6134,-1.4307,-1.3756,0.0,0.0,0.0,0.0,0.0,0.0,0.0,0.0,0.0,0.0,0.0,0.0,0.0,0.0,0.0,0.0,0.0,0.0,0.0,0.0,0.0,0.0,0.0,0.0,0.0,0.0,0.0,0.0,0.0,-2.4326,-2.4326,-2.4326,-2.4242,-2.4049,-2.4037,-2.3953,-2.3773,-2.3773,-2.3604,-2.3268,-2.3268,-2.3087,-2.2763,-2.2763,-2.2943,-2.328,-2.3448,-2.3833,-2.4326,-2.4326,-2.4506,-2.4807,-2.4807,-2.5011,-2.5229,-2.4409,-2.3891,-2.361,-2.3169,-2.2809,-2.266,-2.2883,-2.3032,-2.3032,-2.3032,-2.2883,-2.282,-2.2957,-2.2585,-2.1907,-2.1288,-2.076,-2.0313,-1.946,-1.9301,-1.9301,-1.9301,-1.9301,-1.9301,-1.9301,-1.9301,-1.9301,-1.9301,-1.9301,-1.9356,-1.9503,-1.9522,-1.9622,-1.9897,-2.0053,-2.0182,-2.0292,-2.0429,-2.0521,-2.0521,-2.0292,-2.0136,-2.0136,-1.9751,-1.9412,-1.9155,-1.9008,-1.8806,-1.855,-1.8159,-1.8013,-1.804,-1.6936,-1.6283,-1.5823,-1.5143,-1.4685,0.0,0.0,0.0,0.0,0.0,0.0,0.0,0.0,0.0,0.0,0.0,0.0,0.0,0.0,0.0,0.0,0.0,0.0,0.0,0.0,0.0,0.0,0.0,0.0,0.0,0.0,0.0,0.0,0.0,0.0,-2.3773,-2.3773,-2.3688,-2.3508,-2.334,-2.3244,-2.3244,-2.3244,-2.3063,-2.2714,-2.2714,-2.2534,-2.2197,-2.2197,-2.2378,-2.2714,-2.2714,-2.3111,-2.3773,-2.3773,-2.3965,-2.4266,-2.4266,-2.4482,-2.4737,-2.439,-2.4093,-2.383,-2.3772,-2.361,-2.339,-2.3683,-2.3756,-2.3756,-2.3756,-2.3694,-2.3644,-2.3768,-2.3158,-2.2264,-2.1659,-2.0904,-2.0148,-1.945,-1.9301,-1.9301,-1.9301,-1.9301,-1.9301,-1.9301,-1.9301,-1.9301,-1.9301,-1.9301,-1.9347,-1.9494,-1.9512,-1.9613,-1.9897,-1.9934,-1.9971,-2.009,-1.9989,-1.9916,-1.9916,-1.9549,-1.9329,-1.9329,-1.8926,-1.8577,-1.8311,-1.8174,-1.7981,-1.7724,-1.7715,-1.7844,-1.8109,-1.7316,-1.6716,-1.6321,-1.5597,-1.4932,0.0,0.0,0.0,0.0,0.0,0.0,0.0,0.0,0.0,0.0,0.0,0.0,0.0,0.0,0.0,0.0,0.0,0.0,0.0,0.0,0.0,0.0,0.0,0.0,0.0,0.0,0.0,0.0,-2.3725,-2.3725,-2.3725,-2.3725,-2.3484,-2.2967,-2.2462,-2.2197,-2.2197,-2.2197,-2.2197,-2.2197,-2.2197,-2.2197,-2.2197,-2.2197,-2.2197,-2.2197,-2.2197,-2.2775,-2.3725,-2.3725,-2.3725,-2.3749,-2.3749,-2.3827,-2.3833,-2.4314,-2.4013,-2.3583,-2.4814,-2.4767,-2.4241,-2.5004,-2.5312,-2.5312,-2.5312,-2.5052,-2.4861,-2.517,-2.3756,-2.2134,-2.2253,-2.0817,-1.9292,-1.9283,-1.9283,-1.9283,-1.9265,-1.9265,-1.9265,-1.9283,-1.9274,-1.9265,-1.9265,-1.9265,-1.9402,-1.9815,-1.9879,-1.9879,-1.9879,-1.9879,-1.9723,-1.9311,-1.8926,-1.8696,-1.8696,-1.833,-1.81,-1.81,-1.7706,-1.7477,-1.7477,-1.711,-1.6908,-1.6908,-1.6908,-1.6908,-1.6908,-1.6562,-1.6738,-1.7396,-1.5488,-1.453,-2.2197,0.0,0.0,0.0,0.0,0.0,0.0,0.0,0.0,0.0,0.0,0.0,0.0,0.0,0.0,0.0,0.0,0.0,0.0,0.0,0.0,0.0,0.0,0.0,0.0,0.0,0.0,0.0,-2.263,-2.263,-2.263,-2.263,-2.2558,-2.2414,-2.227,-2.2197,-2.2197,-2.2197,-2.2197,-2.2197,-2.2197,-2.2197,-2.2197,-2.2197,-2.2197,-2.2197,-2.2197,-2.2354,-2.263,-2.263,-2.2859,-2.3195,-2.3195,-2.3436,-2.3785,-2.3929,-2.3843,-2.3768,-2.4498,-2.4596,-2.4505,-2.5109,-2.5312,-2.5312,-2.5312,-2.4802,-2.4288,-2.442,-2.361,-2.2574,-2.1659,-2.0459,-1.9404,-1.8944,-1.8871,-1.8797,-1.8513,-1.8449,-1.854,-1.8815,-1.8641,-1.8449,-1.8449,-1.8449,-1.8485,-1.8605,-1.8623,-1.8623,-1.8623,-1.8623,-1.8586,-1.8458,-1.8357,-1.8284,-1.8284,-1.7908,-1.7669,-1.7669,-1.7293,-1.7064,-1.7064,-1.6963,-1.6908,-1.6908,-1.6908,-1.6908,-1.6908,-1.6799,-1.6563,-1.6272,-1.5735,-1.5108,0.0,0.0,0.0,0.0,0.0,0.0,-2.2197,-2.2197,0.0,0.0,0.0,0.0,0.0,0.0,0.0,0.0,0.0,0.0,0.0,0.0,0.0,0.0,0.0,0.0,0.0,-2.2197,-2.2197,-2.2197,-2.2197,-2.2197,-2.2197,-2.2197,-2.2197,-2.2197,-2.2197,-2.2197,-2.2197,-2.2197,-2.2197,-2.2197,-2.2197,-2.2197,-2.2197,-2.2197,-2.2197,-2.2197,-2.2197,-2.2197,-2.2197,-2.2197,-2.2378,-2.2654,-2.2654,-2.2847,-2.3135,-2.3364,-2.3436,-2.352,-2.4025,-2.4206,-2.4254,-2.4566,-2.4662,-2.4711,-2.4915,-2.4402,-2.3856,-2.4051,-2.3161,-2.1839,-2.0645,-1.9784,-1.9154,-1.8759,-1.8618,-1.8469,-1.8239,-1.8055,-1.7981,-1.8385,-1.8284,-1.8128,-1.8128,-1.8128,-1.8128,-1.8128,-1.8128,-1.8128,-1.8128,-1.8128,-1.8128,-1.8128,-1.7963,-1.7862,-1.7862,-1.7486,-1.7248,-1.7248,-1.7037,-1.6908,-1.6908,-1.6908,-1.6908,-1.6908,-1.6908,-1.6908,-1.6908,-1.6908,-1.6691,-1.6263,-1.6263,-1.5974,0.0,0.0,0.0,0.0,0.0,0.0,-2.2197,-2.2197,-2.2197,0.0,0.0,0.0,0.0,0.0,0.0,0.0,0.0,0.0,0.0,0.0,0.0,0.0,0.0,0.0,-2.2197,-2.2197,-2.2197,-2.2197,-2.2197,-2.2197,-2.2197,-2.2197,-2.2197,-2.2197,-2.2197,-2.2197,-2.2197,-2.2197,-2.2197,-2.2197,-2.2197,-2.2197,-2.2197,-2.2197,-2.2197,-2.2197,-2.2197,-2.2197,-2.2197,-2.2197,-2.2197,-2.2197,-2.2197,-2.2197,-2.2246,-2.2727,-2.2895,-2.2967,-2.3508,-2.3676,-2.3688,-2.3749,-2.3773,-2.3857,-2.4302,-2.3873,-2.3256,-2.3534,-2.2174,-2.042,-1.9477,-1.8995,-1.8711,-1.859,-1.8497,-1.8331,-1.8276,-1.7833,-1.7541,-1.7917,-1.799,-1.799,-1.799,-1.799,-1.799,-1.799,-1.799,-1.799,-1.799,-1.799,-1.799,-1.799,-1.7651,-1.7431,-1.7431,-1.711,-1.6908,-1.6908,-1.6908,-1.6908,-1.6908,-1.6908,-1.6908,-1.6908,-1.6908,-1.6908,-1.6908,-1.6908,-1.6908,-1.6908,-1.6908,-1.6908,0.0,0.0,0.0,0.0,0.0,0.0,-2.2197,-2.2197,-2.2197,0.0,0.0,0.0,0.0,0.0,0.0,0.0,0.0,0.0,0.0,0.0,0.0,0.0,0.0,0.0,-2.2197,-2.2197,-2.2197,-2.2197,-2.2197,-2.2197,-2.2197,-2.2197,-2.2197,-2.2197,-2.2197,-2.2197,-2.2197,-2.2197,-2.2197,-2.2197,-2.2197,-2.2197,-2.2197,-2.2197,-2.2197,-2.2197,-2.2197,-2.2197,-2.2197,-2.2197,-2.2197,-2.2197,-2.2197,-2.2197,-2.2209,-2.2306,-2.2354,-2.2426,-2.2955,-2.3135,-2.3207,-2.3628,-2.3773,-2.3785,-2.3893,-2.2993,-2.1669,-2.0576,-1.9902,-1.9478,-1.9129,-1.8998,-1.8781,-1.815,-1.7931,-1.7756,-1.7281,-1.7082,-1.7046,-1.7128,-1.7147,-1.7147,-1.7147,-1.7147,-1.7147,-1.7147,-1.7147,-1.7147,-1.7147,-1.7147,-1.7147,-1.7147,-1.7073,-1.7018,-1.7018,-1.6954,-1.6908,-1.6908,-1.6908,-1.6908,-1.6908,-1.6908,-1.6908,-1.6908,-1.6908,-1.6908,-1.6908,-1.6908,-1.6908,-1.6908,-1.6908,-1.6908,0.0,0.0,0.0,-2.2197,0.0,0.0,0.0,-2.2197,-2.2197,0.0,0.0,0.0,0.0,0.0,0.0,0.0,0.0,0.0,0.0,0.0,0.0,0.0,0.0,0.0,-2.2197,-2.2197,-2.2197,-2.2197,-2.2197,-2.2197,-2.2197,-2.2197,-2.2197,-2.2197,-2.2197,-2.2197,-2.2197,-2.2197,-2.2197,-2.2197,-2.2197,-2.2197,-2.2197,-2.2197,-2.2197,-2.2197,-2.2197,-2.2197,-2.2197,-2.2197,-2.2197,-2.2197,-2.2197,-2.2197,-2.2197,-2.2197,-2.2197,-2.2234,-2.2498,-2.2582,-2.263,-2.2895,-2.2979,-2.2963,-2.2876,-2.1958,-2.0755,-1.964,-1.9131,-1.8965,-1.8821,-1.8676,-1.8383,-1.7881,-1.7703,-1.7516,-1.7153,-1.6968,-1.6908,-1.6908,-1.6908,-1.6908,-1.6908,-1.6908,-1.6908,-1.6908,-1.6908,-1.6908,-1.6908,-1.6908,-1.6908,-1.6908,-1.6908,-1.6908,-1.6908,-1.6908,-1.6908,-1.6908,-1.6908,-1.6908,-1.6908,-1.6908,-1.6908,-1.6908,-1.6908,-1.6908,-1.6908,-1.6908,-1.6908,-1.6908,-1.6908,-1.6908,0.0,0.0,0.0,0.0,0.0,-2.2197,0.0,0.0,0.0,0.0,0.0,0.0,0.0,0.0,0.0,0.0,0.0,0.0,0.0,0.0,0.0,0.0,0.0,0.0,0.0,-2.2197,-2.2197,-2.2197,-2.2197,-2.2197,-2.2197,-2.2197,-2.2197,-2.2197,-2.2197,-2.2197,-2.2197,-2.2197,-2.2197,-2.2197,-2.2197,-2.2197,-2.2197,-2.2197,-2.2197,-2.2197,-2.2197,-2.2197,-2.2197,-2.2197,-2.2197,-2.2197,-2.2197,-2.2197,-2.2197,-2.2197,-2.2197,-2.2197,-2.2197,-2.2197,-2.2197,-2.2197,-2.2123,-2.1934,-2.1617,-2.1005,-2.0281,-1.9667,-1.9193,-1.8854,-1.8715,-1.8458,-1.8134,-1.7774,-1.7588,-1.7461,-1.7245,-1.7038,-1.6908,-1.6908,-1.6908,-1.6908,-1.6908,-1.6908,-1.6908,-1.6908,-1.6908,-1.6908,-1.6908,-1.6908,-1.6908,-1.6908,-1.6908,-1.6908,-1.6908,-1.6908,-1.6908,-1.6908,-1.6908,-1.6908,-1.6908,-1.6908,-1.6908,-1.6908,-1.6908,-1.6908,-1.6908,-1.6908,-1.6908,-1.6908,-1.6908,-1.6908,0.0,0.0,0.0,0.0,-2.2197,0.0,0.0,0.0,0.0,0.0,0.0,0.0,0.0,0.0,0.0,0.0,0.0,0.0,0.0,0.0,0.0,0.0,0.0,0.0,0.0,-2.2197,-2.2197,-2.2197,-2.2197,-2.2197,-2.2197,-2.2197,-2.2197,-2.2197,-2.2197,-2.2197,-2.2197,-2.2197,-2.2197,-2.2197,-2.2197,-2.2197,-2.2197,-2.2197,-2.2197,-2.2197,-2.2197,-2.2197,-2.2197,-2.2197,-2.2197,-2.2197,-2.2197,-2.2197,-2.2197,-2.2197,-2.2197,-2.2197,-2.2197,-2.2197,-2.2197,-2.2197,-2.1788,-2.1135,-2.0486,-2.0216,-2.0129,-2.0063,-1.9965,-1.979,-1.9116,-1.8952,-1.871,-1.791,-1.7588,-1.7461,-1.7245,-1.7038,-1.6908,-1.6908,-1.6908,-1.6908,-1.6908,-1.6908,-1.6908,-1.6908,-1.6908,-1.6908,-1.6908,-1.6908,-1.6908,-1.6908,-1.6908,-1.6908,-1.6908,-1.6908,-1.6908,-1.6908,-1.6908,-1.6908,-1.6908,-1.6908,-1.6908,-1.6908,-1.6908,-1.6908,-1.6908,-1.6908,-1.6908,-1.6908,-1.6908,-1.6908,0.0,0.0,0.0,0.0,0.0,0.0,-2.2247,0.0,-2.2665,0.0,0.0,0.0,0.0,0.0,0.0,0.0,-2.4019,0.0,0.0,0.0,0.0,0.0,0.0,0.0,0.0,0.0,0.0,0.0,-2.2197,-2.2197,-2.2197,-2.2197,-2.2197,-2.2197,-2.2197,-2.2197,-2.2197,-2.2197,-2.2197,-2.2197,-2.2197,-2.2197,-2.2197,-2.2197,-2.2197,-2.2197,-2.2197,-2.2197,-2.2197,-2.2197,-2.2197,-2.2197,-2.2197,-2.2197,-2.2197,-2.2197,-2.2197,-2.2197,-2.2197,-2.2197,-2.2197,-2.2197,-2.1726,-2.1071,-2.0741,-2.042,-2.0096,-2.0096,-2.0096,-2.0042,-1.9704,-1.9309,-1.8844,-1.8307,-1.7784,-1.7401,-1.7107,-1.6968,-1.6908,-1.6908,-1.6908,-1.6908,-1.6908,-1.6908,-1.6908,-1.6908,-1.6908,-1.6908,-1.6908,-1.6908,-1.6908,-1.6908,-1.6908,-1.6908,-1.6908,-1.6908,-1.6908,-1.6908,-1.6908,-1.6908,-1.6908,-1.6908,-1.6908,-1.6908,-1.6908,-1.6908,-1.6908,-1.6908,-1.6908,-1.6908,-1.6908,-1.6908,-2.2432,0.0,0.0,0.0,0.0,0.0,0.0,0.0,0.0,0.0,0.0,0.0,0.0,0.0,0.0,0.0,0.0,0.0,0.0,0.0,0.0,0.0,0.0,0.0,0.0,0.0,0.0,-2.2197,-2.2197,-2.2197,-2.2197,-2.2197,-2.2197,-2.2197,-2.2197,-2.2197,-2.2197,-2.2197,-2.2197,-2.2197,-2.2197,-2.2197,-2.2197,-2.2197,-2.2197,-2.2197,-2.2197,-2.2197,-2.2197,-2.2197,-2.2197,-2.2197,-2.2197,-2.2197,-2.2197,-2.2197,-2.2197,-2.2197,-2.2197,-2.2197,-2.2185,-2.1987,-2.1526,-2.1123,-2.1123,-2.0741,-2.042,-2.0624,-2.0688,-2.0624,-2.042,-1.9835,-1.9177,-1.8767,-1.8046,-1.7461,-1.7116,-1.7047,-1.6978,-1.6908,-1.6908,-1.6908,-1.6908,-1.6908,-1.6908,-1.6908,-1.6978,-1.6968,-1.6968,-1.7047,-1.7047,-1.7047,-1.7047,-1.7047,-1.7047,-1.7038,-1.6968,-1.6908,-1.6908,-1.6908,-1.6908,-1.6908,-1.6908,-1.6908,-1.6908,-1.6908,-1.6908,-1.6908,-1.6908,-1.6908,-1.6908,-1.6908,0.0,0.0,0.0,-2.2848,0.0,0.0,0.0,0.0,-2.3695,0.0,0.0,0.0,0.0,0.0,0.0,0.0,0.0,0.0,0.0,0.0,0.0,0.0,0.0,0.0,0.0,0.0,0.0,-2.2197,-2.2197,-2.2197,-2.2197,-2.2197,-2.2197,-2.2197,-2.2197,-2.2197,-2.2197,-2.2197,-2.2197,-2.2197,-2.2197,-2.2197,-2.2197,-2.2197,-2.2197,-2.2197,-2.2197,-2.2197,-2.2197,-2.2197,-2.2197,-2.2197,-2.2197,-2.2197,-2.2197,-2.2197,-2.2197,-2.2197,-2.2197,-2.2197,-2.2061,-2.14,-2.1135,-2.1123,-2.1123,-2.106,-2.1198,-2.1925,-2.2123,-2.1987,-2.1262,-2.0549,-1.9901,-1.9177,-1.8307,-1.7647,-1.7529,-1.7314,-1.7097,-1.6968,-1.6908,-1.6908,-1.6908,-1.6908,-1.6908,-1.6908,-1.7038,-1.7166,-1.7166,-1.7392,-1.747,-1.747,-1.747,-1.747,-1.747,-1.7314,-1.7107,-1.6908,-1.6908,-1.6908,-1.6908,-1.6908,-1.6908,-1.6908,-1.6908,-1.6908,-1.6908,-1.6908,-1.6908,-1.6908,-1.6908,-1.6908,0.0,0.0,-2.3662,-2.309,0.0,0.0,0.0,0.0,0.0,0.0,0.0,0.0,0.0,0.0,0.0,0.0,0.0,0.0,0.0,0.0,0.0,0.0,0.0,0.0,0.0,0.0,0.0,-2.2665,-2.2371,-2.2197,-2.2197,-2.2197,-2.2197,-2.2197,-2.2197,-2.2197,-2.2197,-2.2197,-2.2197,-2.2197,-2.2197,-2.2197,-2.2197,-2.2197,-2.2197,-2.2197,-2.2197,-2.2197,-2.2197,-2.2197,-2.2197,-2.2197,-2.2197,-2.2197,-2.2197,-2.2197,-2.2197,-2.2197,-2.2197,-2.2197,-2.2135,-2.1925,-2.1862,-2.1862,-2.1862,-2.1463,-2.1262,-2.1987,-2.1537,-2.088,-2.1071,-2.0215,-1.9299,-1.8967,-1.824,-1.7647,-1.7529,-1.747,-1.7392,-1.7323,-1.7332,-1.7332,-1.7332,-1.7332,-1.7254,-1.7107,-1.7245,-1.7392,-1.7392,-1.7461,-1.747,-1.747,-1.7392,-1.7314,-1.7314,-1.7107,-1.6968,-1.6908,-1.6908,-1.6908,-1.6908,-1.6908,-1.6908,-1.6908,-1.6908,-1.6908,-1.6908,-1.6908,-1.6908,-1.6908,-1.6908,-1.6908,-2.3872,-2.406,0.0,-2.3543,-2.3826,0.0,-2.3721,0.0,0.0,0.0,0.0,0.0,0.0,0.0,0.0,0.0,0.0,0.0,0.0,-2.4055,0.0,0.0,0.0,0.0,0.0,0.0,-2.2367,-2.2641,-2.2189,-2.1993,0.0,0.0,-2.2197,-2.2197,-2.2197,-2.2197,-2.2197,-2.2197,-2.2197,-2.2197,-2.2197,-2.2197,-2.2197,-2.2197,-2.2197,-2.2197,-2.2197,-2.2197,-2.2197,-2.2197,-2.2197,-2.2197,-2.2197,-2.2197,-2.2197,-2.2197,-2.2197,-2.2197,-2.2197,-2.2197,-2.2197,-2.2197,-2.2197,-2.2197,-2.2197,-2.1862,-2.1526,-2.1726,-2.1336,-2.0816,-2.0741,-2.0096,-1.9299,-1.8967,-1.8307,-1.7784,-1.7598,-1.7598,-1.7529,-1.7539,-1.7461,-1.7392,-1.747,-1.747,-1.7461,-1.7314,-1.7461,-1.7598,-1.7598,-1.7598,-1.7666,-1.7598,-1.7451,-1.7304,-1.7235,-1.7107,-1.6968,-1.6908,-1.6908,-1.6908,-1.6908,-1.6908,-1.6908,-1.6908,-1.6908,-1.6908,-1.6908,-1.6908,-1.6908,-1.6908,-1.6908,-1.6908]},{"header":{"parameterUnit":"m.s-1","parameterCategory":1,"la1":30.6,"la2":29.2853,"lo1":-89.7004,"lo2":-87.6739,"dy":0.0162,"dx":0.0183,"nx":112,"ny":82,"refTime":"2023-09-09T12:00:00:Z","depth":0,"parameterNumber":3,"parameterNumberName":"V-component_of_WINDS"},"data":[0.0,0.0,0.0,0.0,0.0,0.0,0.0,0.0,0.0,0.0,0.0,0.0,0.0,0.0,0.0,0.0,0.0,0.0,0.0,0.0,0.0,0.0,0.0,0.0,0.0,0.0,0.0,0.0,0.0,0.0,0.0,0.0,0.0,0.0,0.0,0.0,0.0,0.0,0.0,0.0,0.0,0.0,0.0,0.0,0.0,0.0,0.0,0.0,0.0,0.0,0.0,0.0,0.0,0.0,0.0,0.0,0.0,0.0,0.0,0.0,0.0,0.0,0.0,0.0,0.0,0.0,0.0,0.0,0.0,0.0,0.0,0.0,0.0,0.0,0.0,0.0,0.0,0.0,0.0,0.0,0.0,0.0,0.0,0.0,0.0,0.0,0.0,0.0,0.0,0.0,-3.5493,-3.5493,-3.5507,-3.5488,-3.552,-3.5509,-3.5528,-3.5604,0.0,0.0,0.0,0.0,0.0,0.0,0.0,0.0,0.0,0.0,0.0,0.0,0.0,0.0,0.0,0.0,0.0,0.0,0.0,0.0,0.0,0.0,0.0,0.0,0.0,0.0,0.0,0.0,0.0,0.0,0.0,0.0,0.0,0.0,0.0,0.0,0.0,0.0,0.0,0.0,0.0,0.0,0.0,0.0,0.0,0.0,0.0,0.0,0.0,0.0,0.0,0.0,0.0,0.0,0.0,0.0,0.0,0.0,0.0,0.0,0.0,0.0,0.0,0.0,0.0,0.0,0.0,0.0,0.0,0.0,0.0,0.0,0.0,0.0,0.0,0.0,0.0,0.0,0.0,0.0,0.0,0.0,0.0,0.0,0.0,0.0,0.0,0.0,0.0,0.0,0.0,0.0,0.0,0.0,0.0,0.0,0.0,0.0,0.0,0.0,0.0,0.0,0.0,0.0,-3.5493,-3.5493,-3.5495,-3.5515,-3.5579,-3.5591,-3.5616,-3.5673,0.0,0.0,0.0,0.0,0.0,0.0,0.0,0.0,0.0,0.0,0.0,0.0,0.0,0.0,0.0,0.0,0.0,0.0,0.0,0.0,0.0,0.0,0.0,0.0,0.0,0.0,0.0,0.0,0.0,0.0,0.0,0.0,0.0,0.0,0.0,0.0,0.0,0.0,0.0,0.0,0.0,0.0,0.0,0.0,0.0,0.0,0.0,0.0,0.0,0.0,0.0,0.0,0.0,0.0,0.0,0.0,0.0,0.0,0.0,0.0,0.0,0.0,0.0,0.0,0.0,0.0,0.0,0.0,0.0,0.0,0.0,0.0,0.0,0.0,0.0,0.0,0.0,0.0,0.0,0.0,0.0,0.0,0.0,0.0,0.0,0.0,0.0,0.0,0.0,0.0,0.0,0.0,0.0,0.0,0.0,0.0,0.0,0.0,0.0,0.0,0.0,0.0,0.0,-3.5493,-3.5493,-3.5493,-3.5501,-3.5515,-3.5541,-3.5579,-3.5579,-3.5534,-3.5174,0.0,0.0,0.0,0.0,0.0,0.0,0.0,0.0,0.0,0.0,0.0,0.0,0.0,0.0,0.0,0.0,0.0,0.0,0.0,0.0,0.0,0.0,0.0,0.0,0.0,0.0,0.0,0.0,0.0,0.0,0.0,0.0,0.0,0.0,0.0,0.0,0.0,0.0,0.0,0.0,0.0,0.0,0.0,0.0,0.0,0.0,0.0,0.0,0.0,0.0,0.0,0.0,0.0,0.0,0.0,0.0,0.0,0.0,0.0,0.0,0.0,0.0,0.0,0.0,0.0,0.0,0.0,0.0,0.0,0.0,0.0,0.0,0.0,0.0,0.0,0.0,0.0,0.0,0.0,0.0,0.0,0.0,0.0,0.0,0.0,0.0,0.0,0.0,0.0,0.0,0.0,0.0,0.0,0.0,0.0,0.0,0.0,0.0,0.0,0.0,0.0,0.0,-3.5493,-3.5493,-3.5493,-3.552,-3.5534,-3.5534,-3.5598,-3.5579,-3.5482,-3.5463,0.0,0.0,0.0,0.0,0.0,0.0,0.0,0.0,0.0,0.0,0.0,0.0,0.0,0.0,0.0,0.0,0.0,0.0,0.0,0.0,0.0,0.0,0.0,0.0,0.0,0.0,0.0,0.0,0.0,0.0,0.0,0.0,0.0,0.0,0.0,0.0,0.0,0.0,0.0,0.0,0.0,0.0,0.0,0.0,0.0,0.0,0.0,0.0,0.0,0.0,0.0,0.0,0.0,0.0,0.0,0.0,0.0,0.0,0.0,0.0,0.0,0.0,0.0,0.0,0.0,0.0,0.0,0.0,0.0,0.0,0.0,0.0,0.0,0.0,0.0,0.0,0.0,0.0,0.0,0.0,0.0,0.0,0.0,0.0,0.0,0.0,0.0,0.0,0.0,0.0,0.0,0.0,0.0,0.0,0.0,0.0,0.0,0.0,0.0,0.0,0.0,0.0,-3.5493,-3.5493,-3.5493,-3.5573,-3.5591,-3.5591,-3.5651,-3.5693,-3.5673,-3.5463,0.0,0.0,0.0,0.0,0.0,0.0,0.0,0.0,0.0,0.0,0.0,0.0,0.0,0.0,0.0,0.0,0.0,0.0,0.0,0.0,0.0,0.0,0.0,0.0,0.0,0.0,0.0,0.0,0.0,0.0,0.0,0.0,0.0,0.0,0.0,0.0,0.0,0.0,0.0,0.0,0.0,0.0,0.0,0.0,0.0,0.0,0.0,0.0,0.0,0.0,0.0,0.0,0.0,0.0,0.0,0.0,0.0,0.0,0.0,0.0,0.0,0.0,0.0,0.0,0.0,0.0,0.0,0.0,0.0,0.0,0.0,0.0,0.0,0.0,0.0,0.0,0.0,0.0,0.0,0.0,0.0,0.0,0.0,0.0,0.0,0.0,0.0,0.0,0.0,0.0,0.0,0.0,0.0,0.0,0.0,0.0,0.0,0.0,0.0,0.0,0.0,0.0,-3.5493,-3.5493,0.0,-3.5509,-3.5534,-3.5547,-3.5591,-3.5604,-3.5522,0.0,0.0,0.0,0.0,0.0,0.0,0.0,0.0,0.0,0.0,0.0,0.0,0.0,0.0,0.0,0.0,0.0,0.0,0.0,0.0,0.0,0.0,0.0,0.0,0.0,0.0,0.0,0.0,0.0,0.0,0.0,0.0,0.0,0.0,0.0,0.0,0.0,0.0,0.0,0.0,0.0,0.0,0.0,0.0,0.0,0.0,0.0,0.0,0.0,0.0,0.0,0.0,0.0,0.0,0.0,0.0,0.0,0.0,0.0,0.0,0.0,0.0,0.0,0.0,0.0,0.0,0.0,0.0,0.0,0.0,0.0,0.0,0.0,0.0,0.0,0.0,0.0,0.0,0.0,0.0,0.0,0.0,0.0,0.0,0.0,0.0,0.0,0.0,0.0,0.0,0.0,0.0,0.0,0.0,0.0,0.0,0.0,0.0,0.0,0.0,0.0,0.0,-3.5493,-3.5493,-3.5493,0.0,-3.5509,-3.5502,-3.5515,-3.5579,-3.5547,-3.5435,0.0,0.0,0.0,0.0,0.0,0.0,0.0,0.0,0.0,0.0,0.0,0.0,0.0,0.0,0.0,0.0,0.0,0.0,0.0,0.0,0.0,0.0,0.0,0.0,0.0,0.0,0.0,0.0,0.0,0.0,0.0,0.0,0.0,0.0,0.0,0.0,0.0,0.0,0.0,0.0,0.0,0.0,0.0,0.0,0.0,0.0,0.0,0.0,0.0,0.0,0.0,0.0,0.0,0.0,0.0,0.0,0.0,0.0,0.0,0.0,0.0,0.0,0.0,0.0,0.0,0.0,0.0,0.0,0.0,0.0,0.0,0.0,0.0,0.0,0.0,0.0,0.0,0.0,0.0,0.0,0.0,0.0,0.0,0.0,0.0,0.0,0.0,0.0,0.0,0.0,0.0,0.0,0.0,0.0,0.0,0.0,0.0,0.0,0.0,0.0,0.0,0.0,-3.5493,-3.5493,-3.5493,-3.5493,-3.5495,-3.5515,-3.5591,-3.5577,-3.5558,0.0,0.0,0.0,0.0,0.0,0.0,0.0,0.0,0.0,0.0,0.0,0.0,0.0,0.0,0.0,0.0,0.0,0.0,0.0,0.0,0.0,0.0,0.0,0.0,0.0,0.0,0.0,0.0,0.0,0.0,0.0,0.0,0.0,0.0,0.0,0.0,0.0,0.0,0.0,0.0,0.0,0.0,0.0,0.0,0.0,0.0,0.0,0.0,0.0,0.0,0.0,0.0,0.0,0.0,0.0,0.0,0.0,0.0,0.0,0.0,0.0,0.0,0.0,0.0,0.0,0.0,0.0,0.0,0.0,0.0,0.0,0.0,0.0,0.0,0.0,0.0,0.0,0.0,0.0,0.0,0.0,0.0,0.0,0.0,0.0,0.0,0.0,0.0,0.0,0.0,0.0,0.0,0.0,0.0,0.0,0.0,0.0,0.0,0.0,0.0,0.0,0.0,0.0,-3.5293,-3.5157,-3.5124,-3.5273,-3.5152,-3.5133,-3.53,-3.52,-3.5149,-3.5219,0.0,0.0,0.0,0.0,0.0,0.0,0.0,0.0,0.0,0.0,0.0,0.0,0.0,0.0,0.0,0.0,0.0,0.0,0.0,0.0,0.0,0.0,0.0,0.0,0.0,0.0,0.0,0.0,0.0,0.0,0.0,0.0,0.0,0.0,0.0,0.0,0.0,0.0,0.0,0.0,0.0,0.0,0.0,0.0,0.0,0.0,0.0,0.0,0.0,0.0,0.0,0.0,0.0,0.0,0.0,0.0,0.0,0.0,0.0,0.0,0.0,0.0,0.0,0.0,0.0,0.0,0.0,0.0,0.0,0.0,0.0,0.0,0.0,0.0,0.0,0.0,0.0,0.0,0.0,0.0,0.0,0.0,0.0,0.0,0.0,0.0,0.0,0.0,0.0,0.0,0.0,0.0,0.0,0.0,0.0,0.0,0.0,0.0,0.0,0.0,0.0,0.0,-3.611,-3.5988,-3.5894,-3.6025,-3.5932,-3.5932,-3.6062,-3.5646,-3.54,-3.5457,0.0,0.0,0.0,0.0,0.0,0.0,0.0,0.0,0.0,0.0,0.0,0.0,0.0,0.0,0.0,0.0,0.0,0.0,0.0,0.0,0.0,0.0,0.0,0.0,0.0,0.0,0.0,0.0,0.0,0.0,0.0,0.0,0.0,0.0,0.0,0.0,0.0,0.0,0.0,0.0,0.0,0.0,0.0,0.0,0.0,0.0,0.0,0.0,0.0,0.0,0.0,0.0,0.0,0.0,0.0,0.0,0.0,0.0,0.0,0.0,0.0,0.0,0.0,0.0,0.0,0.0,0.0,0.0,0.0,0.0,0.0,0.0,0.0,0.0,0.0,0.0,0.0,0.0,0.0,0.0,0.0,0.0,0.0,0.0,0.0,0.0,0.0,0.0,0.0,0.0,0.0,0.0,0.0,0.0,0.0,0.0,0.0,0.0,0.0,0.0,0.0,0.0,-3.745,-3.7374,-3.7249,-3.727,-3.727,-3.727,-3.7351,-3.6612,-3.6099,-3.596,0.0,0.0,0.0,0.0,0.0,0.0,0.0,0.0,0.0,0.0,0.0,0.0,0.0,0.0,0.0,0.0,0.0,0.0,0.0,0.0,0.0,0.0,0.0,0.0,0.0,0.0,0.0,0.0,0.0,0.0,0.0,0.0,0.0,0.0,0.0,0.0,0.0,0.0,0.0,0.0,0.0,0.0,0.0,0.0,0.0,0.0,0.0,0.0,0.0,0.0,0.0,0.0,0.0,0.0,0.0,0.0,0.0,0.0,0.0,0.0,-3.4503,0.0,0.0,0.0,0.0,0.0,0.0,0.0,0.0,0.0,0.0,0.0,0.0,0.0,0.0,0.0,0.0,0.0,0.0,0.0,0.0,0.0,0.0,0.0,0.0,0.0,0.0,0.0,0.0,0.0,0.0,0.0,0.0,0.0,0.0,0.0,0.0,0.0,0.0,0.0,0.0,0.0,-3.7122,-3.6953,-3.6876,-3.7047,-3.6924,-3.69,-3.7069,-3.678,-3.6334,-3.5731,-3.5548,0.0,0.0,0.0,0.0,0.0,0.0,0.0,0.0,0.0,0.0,0.0,0.0,0.0,0.0,0.0,0.0,0.0,0.0,0.0,0.0,0.0,0.0,0.0,0.0,0.0,0.0,0.0,0.0,0.0,0.0,0.0,0.0,0.0,0.0,0.0,0.0,0.0,0.0,0.0,0.0,0.0,0.0,0.0,0.0,0.0,0.0,0.0,0.0,0.0,0.0,0.0,0.0,0.0,0.0,0.0,0.0,0.0,0.0,0.0,0.0,-3.4851,0.0,0.0,0.0,0.0,0.0,0.0,0.0,0.0,0.0,0.0,0.0,0.0,0.0,0.0,0.0,0.0,0.0,0.0,0.0,0.0,0.0,0.0,0.0,0.0,0.0,0.0,0.0,0.0,0.0,0.0,0.0,0.0,0.0,0.0,0.0,0.0,0.0,0.0,0.0,0.0,-3.8169,-3.8003,-3.7891,-3.8003,-3.7917,-3.7891,-3.8003,-3.7564,-3.7102,-3.6733,-3.6,0.0,0.0,0.0,0.0,0.0,0.0,0.0,0.0,0.0,0.0,0.0,0.0,0.0,0.0,0.0,0.0,0.0,0.0,0.0,0.0,0.0,0.0,0.0,0.0,0.0,0.0,0.0,0.0,0.0,0.0,0.0,0.0,0.0,0.0,0.0,0.0,0.0,0.0,0.0,0.0,0.0,0.0,0.0,0.0,0.0,0.0,0.0,0.0,0.0,0.0,0.0,0.0,0.0,-3.5548,-3.5843,-3.5792,-3.6507,-3.6825,-3.6702,-3.5404,-3.4757,-3.4692,-3.4479,0.0,0.0,0.0,0.0,0.0,0.0,0.0,0.0,0.0,0.0,0.0,0.0,0.0,0.0,0.0,0.0,0.0,0.0,0.0,0.0,0.0,0.0,0.0,0.0,-3.4517,-3.4555,0.0,0.0,0.0,0.0,0.0,0.0,0.0,0.0,0.0,0.0,0.0,0.0,-3.9333,-3.9245,-3.9101,-3.9101,-3.9101,-3.9101,-3.9101,-3.8488,-3.8042,-3.7912,-3.6714,-3.5893,0.0,0.0,0.0,0.0,0.0,0.0,0.0,0.0,0.0,0.0,0.0,0.0,0.0,0.0,0.0,0.0,0.0,0.0,0.0,0.0,0.0,0.0,0.0,0.0,0.0,0.0,0.0,0.0,0.0,0.0,0.0,0.0,-3.2091,-3.2068,0.0,0.0,0.0,0.0,0.0,0.0,0.0,0.0,0.0,0.0,0.0,0.0,0.0,-3.4898,-3.545,-3.5892,-3.6278,-3.656,-3.6625,-3.6584,-3.6463,-3.6601,-3.6544,-3.6362,-3.6141,0.0,-3.5537,-3.5317,0.0,0.0,0.0,0.0,0.0,0.0,0.0,0.0,0.0,0.0,0.0,0.0,0.0,0.0,0.0,0.0,0.0,0.0,0.0,0.0,0.0,0.0,-3.4148,-3.4221,-3.4245,-3.445,0.0,-3.5133,-3.5097,-3.5758,-3.6005,0.0,0.0,0.0,0.0,0.0,0.0,0.0,-3.9137,-3.9129,-3.9101,-3.9101,-3.9101,-3.9101,-3.9101,-3.9008,-3.8637,-3.7931,-3.7716,-3.7005,-3.5675,-3.5506,0.0,0.0,0.0,0.0,0.0,0.0,0.0,0.0,0.0,0.0,0.0,0.0,0.0,0.0,0.0,0.0,0.0,0.0,0.0,0.0,0.0,0.0,0.0,0.0,0.0,0.0,0.0,0.0,0.0,-3.2782,-3.2972,-3.336,-3.3243,-3.3129,0.0,0.0,0.0,0.0,0.0,0.0,0.0,0.0,0.0,-3.5184,-3.533,-3.5542,-3.5818,-3.6017,-3.6182,-3.6344,-3.6805,-3.6969,-3.6909,-3.7379,-3.7569,-3.7546,-3.7546,-3.7227,-3.6663,-3.613,-3.591,-3.5846,0.0,0.0,0.0,0.0,-3.5202,-3.5128,-3.4651,-3.4486,0.0,-3.3954,0.0,0.0,0.0,0.0,0.0,0.0,0.0,0.0,0.0,0.0,-3.5008,-3.5497,-3.5609,-3.5702,-3.6073,-3.6024,-3.6021,0.0,-3.6803,-3.7328,-3.8083,0.0,0.0,0.0,0.0,-3.9101,-3.9101,-3.9101,-3.9101,-3.9101,-3.9101,-3.9101,-3.9101,-3.9101,-3.8952,-3.8599,-3.8154,-3.7604,-3.6912,-3.6056,-3.5497,0.0,0.0,0.0,0.0,0.0,0.0,0.0,0.0,0.0,0.0,0.0,0.0,0.0,0.0,0.0,0.0,0.0,0.0,0.0,0.0,0.0,0.0,0.0,0.0,0.0,0.0,0.0,0.0,-3.3452,-3.3721,-3.4255,-3.416,-3.4049,0.0,0.0,0.0,0.0,0.0,0.0,-3.4975,-3.5041,-3.5362,-3.5933,-3.6108,-3.6217,-3.6279,-3.6417,-3.6526,-3.6557,-3.7389,-3.7772,-3.7808,-3.8638,-3.91,-3.9163,-3.9163,-3.8884,-3.8322,-3.711,-3.6597,-3.6578,-3.6376,-3.6431,-3.6578,-3.6376,-3.6303,-3.6211,-3.5569,-3.5349,-3.5238,-3.4633,-3.4431,-3.4431,-3.4431,0.0,0.0,0.0,0.0,-3.4766,-3.542,-3.5692,-3.5936,-3.6556,-3.6686,-3.676,-3.6946,-3.7002,-3.7002,0.0,-3.7485,-3.7968,-3.8172,0.0,0.0,0.0,0.0,-3.9101,-3.9101,-3.9101,-3.9101,-3.9101,-3.9101,-3.9101,-3.9101,-3.9101,-3.9101,-3.9101,-3.8544,-3.8098,-3.7912,-3.6807,-3.6,-3.5619,0.0,0.0,0.0,0.0,0.0,0.0,0.0,0.0,0.0,0.0,0.0,0.0,0.0,0.0,0.0,0.0,0.0,0.0,0.0,0.0,0.0,0.0,0.0,0.0,0.0,0.0,0.0,0.0,0.0,-3.3868,-3.378,0.0,0.0,0.0,0.0,-3.4648,-3.5458,-3.5944,-3.5848,-3.5848,-3.5823,-3.5802,-3.6622,-3.7035,-3.7035,-3.7798,-3.8194,-3.8273,-3.9031,-3.9465,-3.9666,-4.0449,-4.0848,-4.095,-4.095,-4.0965,-4.0744,-3.8395,-3.7452,-3.7379,-3.6597,-3.6762,-3.7331,-3.6578,-3.6303,-3.6285,-3.6248,-3.6229,-3.6229,-3.6193,-3.6156,-3.6156,-3.6156,-3.6156,0.0,0.0,-3.6213,-3.6316,-3.6408,-3.6509,-3.6562,-3.6686,-3.6686,-3.6909,-3.7671,-3.7838,-3.7838,0.0,-3.7856,-3.8135,-3.8915,0.0,-3.9101,-3.9101,-3.9101,-3.9101,-3.9101,-3.9101,-3.9101,-3.9101,-3.9101,-3.9101,-3.9101,-3.9101,-3.9101,-3.9101,-3.9064,-3.8692,-3.7931,-3.7819,-3.7098,-3.5637,-3.5562,0.0,0.0,0.0,0.0,0.0,0.0,0.0,0.0,0.0,0.0,0.0,0.0,0.0,0.0,0.0,0.0,0.0,0.0,0.0,0.0,0.0,0.0,0.0,0.0,0.0,0.0,0.0,0.0,-3.4523,-3.4568,0.0,-3.5282,-3.5604,-3.574,-3.5545,-3.5889,-3.6273,-3.6667,-3.6653,-3.6908,-3.737,-3.8168,-3.8604,-3.8604,-3.9331,-3.9746,-3.9763,-4.0037,-4.0182,-4.027,-4.0524,-4.0721,-4.0894,-4.0894,-4.0961,-4.1038,-4.0175,-3.9515,-3.8946,-3.8157,-3.8028,-3.823,-3.7955,-3.7845,-3.7771,-3.7239,-3.7055,-3.6982,-3.6468,-3.6303,-3.6303,-3.6303,-3.6303,-3.6303,-3.6303,-3.637,-3.6611,-3.7137,-3.735,-3.757,-3.8116,-3.8228,-3.8321,-3.8599,-3.8674,-3.8674,-3.8674,-3.8674,-3.8767,-3.9045,-3.9101,-3.9101,-3.9101,-3.9101,-3.9101,-3.9101,-3.9101,-3.9101,-3.9101,-3.9101,-3.9101,-3.9101,-3.9101,-3.9101,-3.9101,-3.9101,-3.8971,-3.8674,-3.8172,-3.7642,-3.7098,-3.6056,-3.5459,0.0,0.0,0.0,0.0,0.0,0.0,0.0,0.0,0.0,0.0,0.0,0.0,0.0,0.0,0.0,0.0,0.0,0.0,0.0,0.0,0.0,0.0,0.0,0.0,0.0,0.0,-3.4835,-3.5385,-3.5459,-3.5632,-3.6182,-3.6358,-3.6444,-3.6413,-3.657,-3.6921,-3.7471,-3.7612,-3.7907,-3.8397,-3.8977,-3.9354,-3.9518,-3.9856,-4.0107,-4.0274,-4.0376,-4.0464,-4.0502,-4.0959,-4.1233,-4.1397,-4.1575,-4.175,-4.1867,-4.1592,-4.1185,-4.0634,-3.9827,-3.9515,-3.9515,-3.9515,-3.9515,-3.9405,-3.8579,-3.812,-3.7808,-3.7276,-3.711,-3.711,-3.711,-3.711,-3.711,-3.711,-3.7151,-3.7366,-3.794,-3.8183,-3.8396,-3.8971,-3.9101,-3.9101,-3.9101,-3.9101,-3.9101,-3.9101,-3.9101,-3.9101,-3.9101,-3.9101,-3.9101,-3.9101,-3.9101,-3.9101,-3.9101,-3.9101,-3.9101,-3.9101,-3.9101,-3.9101,-3.9101,-3.9101,-3.9101,-3.9101,-3.9101,-3.9101,-3.9101,-3.8635,-3.8226,-3.7912,-3.6315,-3.5535,-3.56,0.0,0.0,0.0,0.0,0.0,0.0,0.0,0.0,0.0,0.0,0.0,0.0,0.0,0.0,0.0,0.0,0.0,0.0,0.0,0.0,0.0,0.0,0.0,-3.5034,-3.5713,-3.6303,-3.6292,-3.6292,-3.6263,-3.6138,-3.6485,-3.6859,-3.7171,-3.7548,-3.7913,-3.8223,-3.8564,-3.8685,-3.8554,-3.8942,-3.9324,-3.9822,-3.9417,-3.9417,-3.9875,-4.0193,-4.0393,-4.0581,-4.1818,-4.24,-4.2523,-4.3123,-4.3359,-4.3321,-4.2585,-4.2307,-4.2216,-4.139,-4.1111,-4.1111,-4.1111,-4.1111,-4.1001,-4.0212,-3.9423,-3.8781,-3.8781,-3.8781,-3.8781,-3.8781,-3.8781,-3.8781,-3.8781,-3.8781,-3.8811,-3.8955,-3.8984,-3.8995,-3.9166,-3.9175,-3.9175,-3.9138,-3.9138,-3.912,-3.9101,-3.9101,-3.9101,-3.9101,-3.9101,-3.9101,-3.9101,-3.9101,0.0,-3.9101,-3.9101,-3.9101,-3.9101,-3.9101,-3.9101,-3.9101,-3.9101,-3.9101,-3.9101,-3.9101,-3.9101,-3.9101,-3.9219,-3.8846,-3.7912,-3.6352,-3.5591,-3.56,0.0,0.0,0.0,0.0,0.0,0.0,0.0,0.0,0.0,0.0,0.0,0.0,0.0,0.0,0.0,0.0,0.0,0.0,0.0,0.0,0.0,0.0,-3.6062,-3.5556,-3.5696,-3.5978,-3.6278,-3.6317,-3.6499,-3.7055,-3.7131,-3.7148,-3.7202,-3.7216,-3.7228,-3.7283,-3.7365,-3.7658,-3.8166,-3.8819,-3.9504,-4.0151,-4.0612,-4.0893,-4.1022,-4.1121,-4.1183,-4.1227,-4.1568,-4.1846,-4.2074,-4.2257,-4.2378,-4.2519,-4.2304,-4.2253,-4.2147,-4.1389,-4.1111,-4.1111,-4.1111,-4.1111,-4.1075,-4.0855,-4.0634,-4.0451,-4.0451,-4.0451,-4.0451,-4.0451,-4.0451,-4.0451,-4.0451,-4.0464,-4.0541,-4.0615,-4.0695,-4.0822,-4.0874,-4.0903,-4.0754,-4.016,-4.003,-3.9863,-3.9212,-3.9101,-3.9101,-3.9101,-3.9101,-3.9101,-3.9101,-3.9101,0.0,-3.9101,-3.9101,-3.9101,-3.9101,-3.9101,-3.9101,-3.9101,-3.9101,-3.9101,-3.9101,-3.9101,-3.9101,-3.9101,-3.9129,-3.8765,-3.7912,-3.7553,-3.6808,0.0,0.0,0.0,0.0,0.0,0.0,0.0,0.0,0.0,0.0,0.0,0.0,0.0,0.0,0.0,0.0,0.0,0.0,0.0,0.0,0.0,0.0,-3.6123,-3.6667,-3.6238,-3.6357,-3.6536,-3.6774,-3.6791,-3.697,-3.7361,-3.7193,-3.7079,-3.7097,-3.718,-3.7294,-3.7374,-3.7784,-3.8216,-3.8651,-3.924,-3.9863,-4.0478,-4.0793,-4.1001,-4.1185,-4.1001,-4.0908,-4.0908,-4.1094,-4.1321,-4.1534,-4.1796,-4.1966,-4.2115,-4.2157,-4.2198,0.0,0.0,0.0,0.0,0.0,-4.1468,-4.1316,-4.1316,-4.1235,-4.1111,-4.1111,-4.1111,-4.1111,-4.1111,-4.1111,-4.1111,-4.1111,-4.1144,-4.1172,-4.1248,-4.1329,-4.144,-4.1549,-4.1579,-4.146,-4.0996,-4.0903,-4.0736,-4.0253,-3.9881,0.0,-3.964,-3.9342,-3.9101,-3.9101,-3.9101,-3.9101,-3.9101,-3.9101,-3.9101,-3.9101,-3.9101,-3.9101,-3.9101,-3.9101,0.0,0.0,0.0,-3.9129,-3.9165,-3.9129,0.0,0.0,0.0,-3.7541,-3.6572,0.0,0.0,0.0,-3.492,-3.4811,0.0,0.0,0.0,0.0,0.0,0.0,0.0,0.0,0.0,0.0,0.0,0.0,0.0,0.0,0.0,0.0,-3.7017,-3.7246,-3.686,-3.7132,-3.734,-3.734,-3.7358,-3.7303,-3.721,-3.6895,-3.6806,-3.6965,-3.7408,-3.7715,-3.7958,0.0,0.0,0.0,0.0,-4.0218,-4.0724,-4.0303,-4.0303,-4.0724,-4.0303,-4.007,-4.0121,-4.0531,-4.0802,-4.099,-4.1534,-4.1778,-4.1906,-4.199,-4.2032,-4.2074,-4.2157,-4.2198,-4.2198,-4.2198,-4.1992,-4.1648,-4.1648,0.0,0.0,-4.1217,-4.1217,-4.1217,-4.1217,-4.1217,-4.1217,-4.1217,-4.1235,-4.1269,-4.1332,-4.1411,-4.1525,-4.1656,-4.1748,-4.1802,-4.1709,-4.172,-4.1702,-4.1609,-4.1014,-4.0531,-4.0531,-3.9733,-3.9101,-3.9101,-3.9101,-3.9101,-3.9101,-3.9101,-3.9101,-3.9101,0.0,0.0,-3.9101,-3.9101,-3.9101,-3.9101,-3.9101,-3.9137,-3.9272,-3.9165,-3.9156,-3.9272,-3.8457,-3.8013,-3.7894,-3.6657,-3.5983,-3.5889,-3.5036,-3.4708,0.0,0.0,0.0,0.0,0.0,0.0,0.0,0.0,0.0,0.0,0.0,0.0,0.0,0.0,0.0,-3.6276,-3.6426,-3.6492,-3.6409,-3.6492,-3.6516,-3.6516,-3.6468,-3.6426,-3.6426,-3.6663,-3.6891,-3.6935,-3.749,-3.7857,-3.7933,-3.8129,-3.8506,-3.9101,-3.9172,-3.9528,-4.0204,-4.0121,-4.0121,-4.0204,0.0,0.0,-4.0121,-4.0221,-4.037,-4.0597,-4.0693,-4.0884,-4.1117,-4.1134,-4.1134,-4.1209,-4.1924,-4.2198,-4.2198,-4.2198,-4.2149,-4.2087,-4.2087,-4.2038,-4.2009,-4.2009,-4.2009,-4.2009,-4.2009,-4.2009,0.0,-4.2009,-4.2109,-4.228,-4.2393,-4.2541,-4.2704,-4.2847,-4.3036,-4.3051,-4.2373,-4.2434,-4.237,-4.172,-4.146,-4.1367,-4.1367,-4.0104,-3.9101,-3.9101,-3.9101,-3.9101,-3.9101,-3.9101,-3.9101,-3.9101,-3.9101,-3.9101,-3.9101,-3.9101,-3.9101,-3.9101,-3.9101,-3.9129,-3.9156,-3.9129,-3.9129,-3.9156,-3.9069,-3.8678,-3.7894,-3.7741,-3.7281,-3.6509,-3.5386,-3.487,0.0,0.0,0.0,0.0,0.0,0.0,0.0,0.0,0.0,0.0,0.0,-3.5622,0.0,0.0,-3.6019,-3.6182,-3.6276,-3.6301,-3.6301,-3.6646,-3.6749,-3.6353,-3.6276,-3.6346,-3.661,-3.6942,-3.7183,-3.739,-3.8119,-3.8512,-3.8447,-3.8802,-3.9157,-3.9529,-3.9529,-3.9715,-4.007,-4.007,-4.007,-4.007,-4.007,-4.007,-4.007,-4.007,-4.0221,-4.0485,-4.0485,-4.0631,-4.0888,-4.0888,-4.0888,-4.0918,-4.1373,-4.1552,-4.1552,-4.1552,-4.1666,-4.1864,-4.1864,-4.199,-4.2198,-4.2198,-4.2198,-4.2198,-4.2198,-4.2198,-4.2198,-4.2198,-4.2279,-4.24,-4.2577,-4.2828,-4.3069,-4.3105,-4.3356,-4.3435,-4.2931,-4.299,-4.3074,-4.2686,-4.2372,-4.2203,-4.2203,-4.1163,-4.0346,-4.0346,-4.0011,-3.9751,-3.9751,-3.9361,-3.9101,-3.9101,-3.9101,-3.9101,-3.9101,-3.9101,-3.9101,-3.9101,-3.9101,-3.9101,-3.9101,-3.9101,-3.9101,-3.9101,-3.9183,-3.8979,-3.8488,-3.8212,-3.7872,-3.7366,-3.6408,-3.5708,0.0,0.0,0.0,0.0,0.0,0.0,0.0,0.0,-3.5622,-3.5622,-3.5622,-3.5667,-3.5817,-3.5905,-3.6019,-3.6165,-3.6251,-3.6301,-3.6301,-3.6991,-3.7249,-3.6611,-3.6603,-3.6861,-3.7274,-3.7524,-3.7775,-3.8075,-3.8899,-3.9323,-3.9208,-3.9766,-4.007,-4.007,-4.007,-4.007,-4.007,-4.007,-4.007,-4.007,-4.007,-4.007,-4.007,-4.007,-4.0221,-4.0485,-4.0534,-4.068,-4.0888,-4.0888,-4.0888,-4.0888,-4.0888,-4.0888,-4.0888,-4.0888,-4.1134,-4.1401,-4.1401,-4.1622,-4.1966,-4.1966,-4.199,-4.2074,-4.2074,-4.2115,-4.2157,-4.2074,-4.2157,-4.2279,-4.236,-4.2734,-4.3032,-4.3014,-4.3232,-4.3408,-4.3232,-4.3356,-4.3529,-4.3597,-4.3245,-4.2959,-4.302,-4.25,-4.1962,-4.1646,-4.1051,-4.0624,-4.0624,-3.9881,-3.9342,-3.9342,-3.9194,-3.9101,-3.9101,-3.9101,-3.9101,-3.9101,-3.9101,-3.9101,-3.9101,-3.9101,-3.9101,-3.9101,-3.9101,-3.9101,-3.9101,-3.8558,-3.8294,-3.8275,-3.7517,-3.6718,-3.3789,-3.4184,0.0,-3.5453,-3.5622,-3.5622,0.0,0.0,-3.5622,-3.5773,-3.5667,-3.5667,-3.5932,-3.5888,-3.5905,-3.6182,-3.6225,-3.6251,-3.6301,-3.6991,-3.7456,-3.737,-3.7744,-3.7991,-3.8077,-3.852,-3.8834,-3.8853,-3.9596,-4.0002,-3.9952,-4.0037,-4.007,-4.007,-4.007,-4.007,-4.007,-4.007,-4.007,-4.007,-4.007,-4.007,-4.007,-4.007,-4.0188,-4.0355,-4.06,-4.0745,-4.0888,-4.0888,-4.0888,-4.0888,-4.0888,-4.0888,-4.0888,-4.0888,-4.0918,-4.0965,-4.0965,-4.1012,-4.1059,-4.1059,-4.1283,-4.1561,-4.1561,-4.1864,-4.2115,-4.1692,-4.2032,-4.24,-4.2032,-4.2458,-4.2957,-4.2995,-4.3014,-4.3105,-4.316,-4.3232,-4.3339,-4.3545,-4.3557,-4.3601,-4.3825,-4.3782,-4.3243,-4.1813,-4.1516,-4.146,-4.146,-4.0754,-4.0253,-4.0253,-3.9547,-3.9101,-3.9101,-3.9101,-3.9101,-3.9101,-3.9101,-3.9101,-3.9101,-3.9101,-3.9101,-3.9101,-3.9101,-3.9101,-3.9101,-3.9036,-3.8998,-3.898,-3.8162,-3.7455,-3.4863,0.0,0.0,0.0,-3.5622,-3.5622,-3.5711,-3.5728,-3.5728,-3.5773,-3.5817,-3.5888,-3.5975,-3.5932,-3.5975,0.0,-3.6148,-3.632,-3.6922,-3.7585,-3.8222,-3.8715,-3.9208,-3.9358,-3.8931,-3.9092,-3.937,-3.9647,-3.9901,-4.007,-4.007,-4.007,-4.007,-4.007,-4.007,-4.007,-4.007,-4.007,-4.007,-4.007,-4.007,-4.007,-4.007,-4.007,-4.0188,-4.0288,-4.06,-4.0745,-4.0793,-4.0888,-4.0888,-4.0888,-4.0888,-4.0888,-4.0888,-4.0888,-4.0888,-4.0888,-4.0888,-4.0888,-4.0888,-4.0888,-4.0995,-4.1163,-4.1163,-4.13,-4.1418,-4.1209,-4.1373,-4.1534,-4.1507,-4.2032,-4.2559,-4.2537,-4.2921,-4.3232,-4.29,-4.3013,-4.316,-4.3069,-4.3373,-4.3631,-4.3763,-4.3892,-4.3763,-4.3095,-4.2593,-4.2296,-4.2296,-4.159,-4.0921,-4.0438,-4.0067,-3.964,-3.9138,-3.9101,-3.9101,-3.9101,-3.9101,-3.9101,-3.9101,-3.9101,-3.9101,-3.9101,-3.9101,-3.9101,-3.9101,-3.9101,-3.9101,-3.9082,-3.8767,-3.8449,-3.5316,0.0,0.0,-3.5577,-3.5622,-3.5622,-3.5773,-3.5773,-3.5773,-3.5861,-3.5844,-3.5932,-3.5975,-3.5932,-3.5975,-3.6174,-3.6233,-3.6532,-3.7344,-3.815,-3.894,-3.9583,-4.0199,-4.0329,-3.9703,-3.9586,-3.9759,-4.0087,-4.007,-4.007,-4.007,-4.007,-4.007,-4.007,-4.007,-4.007,-4.007,-4.007,-4.007,-4.007,-4.007,-4.007,-4.007,-4.007,-4.0188,-4.0305,-4.0534,-4.0648,-4.0697,-4.084,-4.0888,-4.0888,-4.0888,-4.0888,-4.0888,-4.0888,-4.0888,-4.0888,-4.0888,-4.0888,-4.0888,-4.0888,-4.0965,-4.1088,-4.1088,-4.118,-4.1209,-4.1088,-4.1163,-4.1255,-4.1283,-4.176,-4.2284,-4.2422,-4.2865,-4.3178,-4.2824,-4.2938,-4.2995,-4.275,-4.3032,-4.3408,-4.3579,-4.3763,-4.3923,-4.4005,-4.3503,-4.3132,-4.3132,-4.2426,-4.1609,-4.081,-4.0717,-4.0383,-3.9528,-3.9454,-3.9361,-3.912,-3.9101,-3.9101,-3.9101,-3.9101,-3.9101,-3.9101,-3.9101,-3.9101,-3.9101,-3.9101,-3.9101,-3.9101,-3.9101,-3.9101,0.0,0.0,-3.4927,-3.547,-3.5622,-3.5622,-3.5773,-3.5711,-3.5667,-3.5932,-3.58,-3.5711,-3.5932,-3.58,-3.5711,-3.5975,-3.6485,-3.6979,-3.7281,-3.8551,-3.9495,-3.9512,-4.0216,-4.0583,0.0,-4.0154,-4.0104,-4.007,-4.007,-4.007,-4.007,-4.007,-4.007,-4.007,-4.007,-4.007,-4.007,-4.007,-4.007,-4.007,-4.007,-4.007,-4.007,-4.007,-4.0188,-4.0305,-4.0436,-4.0583,-4.0697,-4.084,-4.0888,-4.0888,-4.0888,-4.0888,-4.0888,-4.0888,-4.0888,-4.0888,-4.0888,-4.0888,-4.0888,-4.0888,-4.1163,-4.1472,-4.1472,-4.1778,-4.2074,-4.1604,-4.1821,-4.2074,-4.1604,-4.1864,-4.2342,-4.2941,-4.2885,-4.2788,-4.3123,-4.2957,-4.2711,-4.2711,-4.2693,-4.2921,-4.3511,-4.3631,-4.3697,-4.3974,-4.3986,-4.3968,-4.3968,-4.3262,-4.2463,-4.1646,-4.1553,-4.1237,-4.042,-4.0346,-3.9993,-3.9157,-3.9101,-3.9101,-3.9101,-3.9101,-3.9101,-3.9101,-3.9101,-3.9101,-3.9101,-3.9101,-3.9101,-3.9101,-3.9101,-3.9101,-3.5085,0.0,-3.5379,-3.556,-3.5622,-3.5622,-3.5773,-3.5773,-3.5756,-3.5975,-3.5932,-3.5888,-3.5975,-3.5844,-3.597,-3.6597,-3.6877,-3.7388,-3.8591,-3.9221,-3.9735,-4.025,-4.0542,0.0,0.0,0.0,0.0,-4.0138,-4.007,-4.007,-4.007,-4.007,-4.007,-4.007,-4.007,-4.007,-4.007,-4.007,-4.007,-4.007,-4.007,-4.007,-4.007,-4.007,-4.0121,-4.0188,-4.037,-4.0534,-4.0583,-4.084,-4.0888,-4.0888,-4.0888,-4.0888,-4.0888,-4.0888,-4.0888,-4.0888,-4.0888,-4.0888,-4.0888,-4.0888,-4.1012,-4.1071,-4.1071,-4.1209,-4.1283,-4.1163,-4.1209,-4.13,-4.1117,-4.1418,-4.1778,-4.1997,-4.2505,-4.2885,-4.2616,-4.2788,-4.292,-4.2494,-4.2555,-4.277,-4.2958,-4.332,-4.3697,-4.3974,-4.4005,-4.4005,-4.4005,-4.3763,-4.328,-4.2482,-4.2389,-4.2073,-4.1256,-4.0698,-4.0271,-3.9974,-3.9417,-3.9101,-3.9101,-3.9101,-3.9101,-3.9101,-3.9101,-3.9101,-3.9101,-3.9101,-3.9101,-3.9101,-3.9101,-3.9101,-3.5068,-3.547,-3.5622,-3.5622,-3.5622,-3.5622,-3.5773,-3.5773,-3.5773,-3.5888,-3.5739,-3.5628,-3.5915,-3.5701,-3.5807,-3.6912,-3.7208,-3.7806,-3.9187,-3.9645,-4.0052,-4.0483,-4.06,-4.0534,0.0,0.0,0.0,-4.0121,-4.0121,-4.0138,-4.007,-4.007,-4.007,-4.007,-4.007,-4.007,-4.007,-4.007,-4.007,-4.007,-4.007,-4.007,-4.007,-4.007,-4.007,-4.0121,-4.0337,-4.0436,-4.0534,-4.0745,-4.084,-4.0888,-4.0888,-4.0888,-4.0888,-4.0888,-4.0888,-4.0888,-4.0888,-4.0888,-4.0888,-4.0888,-4.0888,-4.0888,-4.0888,-4.0888,-4.0888,-4.0888,-4.0888,-4.0888,-4.0888,-4.1071,-4.1311,-4.1534,-4.208,-4.2505,-4.2198,-4.2537,-4.2768,-4.2269,-4.2374,-4.2613,-4.2673,-4.3213,-4.3664,-4.3828,-4.3942,-4.4005,-4.4005,-4.4005,-4.3801,-4.328,-4.3225,-4.289,-4.2092,-4.1553,-4.1126,-4.0847,-4.003,-3.9547,-3.9547,-3.9268,-3.9101,-3.9101,-3.9101,-3.9101,-3.9101,-3.9101,-3.9101,-3.9101,-3.9101,-3.9101,-3.4721,-3.5224,-3.5622,-3.5622,-3.5622,-3.5622,-3.5773,-3.5667,-3.5622,-3.5728,-3.5224,-3.5017,0.0,-3.5315,-3.5315,-3.6803,-3.7584,-3.8275,-3.9101,-3.9863,-4.0305,0.0,0.0,0.0,0.0,0.0,0.0,-4.0138,0.0,-4.0238,-4.0138,-4.007,-4.007,-4.007,-4.007,-4.007,-4.007,-4.007,-4.007,-4.007,-4.007,-4.007,-4.007,-4.007,-4.007,-4.0138,-4.0238,-4.0387,-4.0534,-4.0631,-4.0793,-4.0888,-4.0888,-4.0888,-4.0888,-4.0888,-4.0888,-4.0888,-4.0888,-4.0888,-4.0888,-4.0888,-4.0888,-4.0888,-4.0888,-4.0888,-4.0888,-4.0888,-4.0888,-4.0888,-4.0888,-4.0888,-4.1059,-4.1534,-4.1666,-4.1753,-4.1948,-4.2157,-4.2257,-4.1959,-4.2103,-4.2391,-4.2634,-4.3178,-4.3545,-4.3597,-4.3828,-4.3986,-4.4005,-4.4005,-4.4005,-4.4005,-4.4005,-4.3689,-4.2927,-4.2816,-4.2463,-4.1702,-4.0903,-4.0457,-4.0457,-3.9621,-3.9175,-3.9175,-3.912,-3.9101,-3.9101,-3.9101,-3.9101,-3.9101,-3.9101,-3.9101,-3.5379,-3.5577,-3.5622,-3.5711,-3.5667,-3.5622,-3.5622,-3.5622,-3.5515,-3.527,-3.4975,-3.4904,0.0,-3.5564,-3.6141,-3.7582,-3.8438,0.0,-3.9914,-4.0268,0.0,-4.0305,0.0,-4.0551,-4.0305,-4.0502,0.0,0.0,-4.0188,-4.0138,-4.007,-4.007,-4.007,-4.007,-4.007,-4.007,-4.007,-4.007,-4.007,-4.007,-4.007,-4.007,-4.007,-4.007,-4.007,-4.0138,-4.0238,-4.0387,-4.0534,-4.0631,-4.0793,-4.0888,-4.0888,-4.0888,-4.0888,-4.0888,-4.0888,-4.0888,-4.0888,-4.0888,-4.0888,-4.0888,-4.0888,-4.0888,-4.0888,-4.0888,-4.0888,-4.0888,-4.0888,-4.0888,-4.0888,-4.0888,-4.0918,-4.1088,-4.1418,-4.1666,-4.1445,-4.1778,-4.205,-4.1917,-4.2103,-4.2391,-4.2634,-4.2808,-4.3069,-4.3545,-4.3664,-4.3763,-4.3955,-4.4005,-4.4005,-4.4005,-4.4005,-4.3912,-4.3708,-4.3132,-4.2705,-4.25,-4.1739,-4.1293,-4.1293,-4.0494,-4.0067,-4.0067,-3.9435,-3.9101,-3.9101,-3.9101,-3.9101,-3.9101,-3.9101,-3.9101,-3.5577,-3.5711,-3.5667,-3.5728,-3.5515,-3.5316,-3.527,-3.5068,-3.4816,-3.4625,-3.4317,0.0,-3.5085,-3.547,0.0,0.0,0.0,0.0,-4.0086,-4.0288,-4.0288,0.0,-4.0436,0.0,-4.0305,-4.0502,-4.0551,0.0,-4.0238,-4.0188,-4.007,-4.007,-4.007,-4.007,-4.007,-4.007,-4.007,-4.007,-4.007,-4.007,-4.007,-4.007,-4.007,-4.007,-4.007,-4.0121,0.0,-4.0337,-4.0534,-4.0583,-4.0745,-4.0888,-4.0888,-4.0888,-4.0888,-4.0888,-4.0888,-4.0888,-4.0888,-4.0888,-4.0888,-4.0888,-4.0888,-4.0888,-4.0888,-4.0888,-4.0888,-4.0888,-4.0888,-4.0888,-4.0888,-4.0888,-4.0888,-4.0888,-4.1134,-4.13,-4.1134,-4.1356,-4.1666,-4.1744,-4.1977,-4.2187,-4.2315,-4.2537,-4.2846,-4.3356,-4.3529,-4.3697,-4.3974,-4.4005,-4.4005,-4.4005,-4.4005,-4.4005,-4.4005,-4.3596,-4.3336,-4.3336,-4.2575,-4.2129,-4.2129,-4.1349,-4.0921,-4.0921,-4.0438,-4.0011,-3.9658,-3.9658,-3.9472,-3.9101,-3.9101,-3.9101,-3.5515,-3.5711,-3.5773,-3.5667,-3.5316,-3.4975,-3.4864,-3.4382,-3.3986,-3.3935,0.0,-3.3625,-3.4951,-3.5208,-3.5877,-3.7954,0.0,-3.9294,-3.9986,-4.007,-4.007,-4.007,-4.0337,-4.0436,-4.0305,-4.0387,-4.0436,-4.0305,-4.0288,-4.0238,-4.0138,-4.007,-4.007,-4.007,-4.007,-4.007,-4.007,-4.007,-4.007,-4.007,-4.007,-4.007,-4.007,-4.007,-4.007,-4.007,-4.0138,0.0,-4.0485,-4.0534,-4.068,-4.0888,-4.0888,-4.0888,-4.0888,-4.0888,-4.0888,-4.0888,-4.0888,-4.0888,-4.0888,-4.0888,-4.0888,-4.0888,-4.0888,-4.0888,-4.0888,-4.0888,-4.0888,-4.0888,-4.0888,-4.0888,-4.0888,-4.0888,-4.0888,-4.0888,-4.0888,-4.1041,-4.13,-4.156,-4.1762,-4.1917,-4.1934,-4.2356,-4.2826,-4.316,-4.3426,-4.3697,-4.3974,-4.4005,-4.4005,-4.4005,-4.4005,-4.4005,-4.4005,-4.4005,-4.4005,-4.4005,-4.3355,-4.2965,-4.2965,-4.2184,-4.1757,-4.1757,-4.1646,-4.1256,-4.055,-4.055,-4.016,-3.9435,-3.9435,-3.9435,-3.5728,-3.5773,-3.5817,-3.5888,-3.5453,-3.4975,-3.4975,-3.448,0.0,0.0,0.0,-3.3464,-3.4488,-3.5027,0.0,-3.7979,0.0,0.0,0.0,0.0,-4.007,0.0,0.0,0.0,0.0,0.0,0.0,0.0,0.0,-4.0121,-4.007,-4.007,-4.007,-4.007,-4.007,-4.007,-4.007,-4.007,-4.007,-4.007,-4.007,-4.007,-4.007,-4.007,-4.007,-4.0138,-4.0238,0.0,-4.0534,-4.0648,-4.0745,-4.0888,-4.0888,-4.0888,-4.0888,-4.0888,-4.0888,-4.0888,-4.0888,-4.0888,-4.0888,-4.0888,-4.0888,-4.0888,-4.0888,-4.0888,-4.0888,-4.0888,-4.0888,-4.0888,-4.0888,-4.0888,-4.0888,-4.0888,-4.0888,-4.0888,-4.0888,-4.1041,-4.13,-4.156,-4.1762,-4.1977,-4.2187,-4.2494,-4.2826,-4.316,-4.3426,-4.3697,-4.3974,-4.4005,-4.4005,-4.4005,-4.4005,-4.4005,-4.4005,-4.4005,-4.4005,-4.4005,-4.3875,-4.3782,-4.3782,-4.302,-4.2593,-4.2593,-4.1943,-4.1534,-4.1386,-4.1386,-4.1311,-4.1163,-4.1163,-4.1163,-3.5622,-3.5532,-3.547,-3.5694,-3.5191,-3.456,-3.448,0.0,0.0,0.0,-3.2788,-3.313,-3.4272,0.0,0.0,0.0,0.0,0.0,0.0,0.0,0.0,0.0,0.0,0.0,0.0,0.0,0.0,0.0,0.0,-4.007,-4.007,-4.007,-4.007,-4.007,-4.007,-4.007,-4.007,-4.007,-4.007,-4.007,-4.007,-4.007,-4.007,-4.007,-4.007,-4.0121,-4.0188,0.0,-4.0387,-4.0534,-4.068,-4.0793,-4.0871,-4.0888,-4.0888,-4.0888,-4.0888,-4.0888,-4.0888,-4.0888,-4.0888,-4.0888,-4.0888,-4.0888,-4.0888,-4.0888,-4.0888,-4.0888,-4.0888,-4.0888,-4.0888,-4.0888,-4.0888,-4.0888,-4.0888,-4.0888,-4.0888,-4.1041,-4.1255,-4.1363,-4.1675,-4.1934,-4.2061,-4.2292,-4.2652,-4.3123,-4.3304,-4.3529,-4.3942,-4.4005,-4.4005,-4.4005,-4.4005,-4.4005,-4.4005,-4.4005,-4.4005,-4.4005,-4.4005,-4.4005,-4.4005,-4.3633,-4.3429,-4.3429,-4.3039,-4.263,-4.2222,-4.2222,-4.1999,-4.159,-4.159,-4.159,-3.5515,-3.5333,-3.5131,-3.5424,-3.4847,-3.4137,-3.3919,-3.3108,0.0,0.0,-3.2398,-3.2767,-3.4014,0.0,0.0,0.0,0.0,0.0,0.0,0.0,0.0,0.0,0.0,0.0,0.0,0.0,0.0,0.0,0.0,0.0,-4.007,-4.007,-4.007,-4.007,-4.007,-4.007,-4.007,-4.007,-4.007,-4.007,-4.007,-4.007,-4.007,-4.007,-4.007,-4.007,-4.0121,0.0,0.0,-4.0485,-4.0583,-4.0697,-4.084,-4.0888,-4.0888,-4.0888,-4.0888,-4.0888,-4.0888,-4.0888,-4.0888,-4.0888,-4.0888,-4.0888,-4.0888,-4.0888,-4.0888,-4.0888,-4.0888,-4.0888,-4.0888,-4.0888,-4.0888,-4.0888,-4.0888,-4.0888,-4.0888,-4.1041,-4.1163,-4.1209,-4.1525,-4.1744,-4.1849,-4.2103,-4.2472,-4.2975,-4.3196,-4.3444,-4.386,-4.3955,-4.4005,-4.4005,-4.4005,-4.4005,-4.4005,-4.4005,-4.4005,-4.4005,-4.4005,-4.4005,-4.4005,-4.4005,-4.4005,-4.4005,-4.4005,-4.3689,-4.3058,-4.3058,-4.2723,-4.211,-4.211,-4.211,-3.5577,-3.547,-3.5316,-3.5131,-3.4592,-3.4087,-3.3598,0.0,0.0,-3.2398,-3.2398,-3.2628,-3.3367,-3.4087,0.0,0.0,0.0,0.0,0.0,0.0,0.0,0.0,0.0,0.0,0.0,0.0,0.0,0.0,0.0,0.0,-4.007,-4.007,-4.007,-4.007,-4.007,-4.007,-4.007,-4.007,-4.007,-4.007,-4.007,-4.007,-4.007,-4.007,-4.007,-4.0138,-4.0238,0.0,0.0,-4.06,-4.0697,-4.0697,-4.084,-4.0888,-4.0888,-4.0888,-4.0888,-4.0888,-4.0888,-4.0888,-4.0888,-4.0888,-4.0888,-4.0888,-4.0888,-4.0888,-4.0888,-4.0888,-4.0888,-4.0888,-4.0888,-4.0888,-4.0888,-4.0888,-4.0888,-4.0888,-4.0888,-4.0918,-4.0965,-4.1163,-4.1237,-4.1346,-4.1604,-4.2044,-4.2396,-4.2476,-4.3105,-4.3597,-4.3631,-4.386,-4.4005,-4.4005,-4.4005,-4.4005,-4.4005,-4.4005,-4.4005,-4.4005,-4.4005,-4.4005,-4.4005,-4.4005,-4.4005,-4.4005,-4.4005,-4.3968,-4.3893,-4.3893,-4.3856,-4.3782,-4.3782,-4.3782,-3.4802,-3.4754,-3.4577,-3.4658,-3.4382,-3.3953,-3.3391,0.0,-3.2398,-3.2398,-3.2398,-3.2598,-3.3275,-3.3629,-3.4299,0.0,0.0,0.0,0.0,0.0,0.0,0.0,0.0,0.0,0.0,0.0,0.0,0.0,0.0,0.0,-4.007,-4.007,-4.007,-4.007,-4.007,-4.007,-4.007,-4.007,-4.007,-4.007,-4.007,-4.007,-4.007,-4.007,-4.007,-4.007,-4.0138,0.0,0.0,-4.0485,-4.0648,-4.0697,-4.084,-4.0888,-4.0888,-4.0888,-4.0888,-4.0888,-4.0888,-4.0888,-4.0888,-4.0888,-4.0888,-4.0888,-4.0888,-4.0888,-4.0888,-4.0888,-4.0888,-4.0888,-4.0888,-4.0888,-4.0888,-4.0888,-4.0888,-4.0888,-4.0888,-4.1012,-4.1117,-4.1163,-4.1346,-4.1453,-4.1604,-4.1762,-4.1984,-4.2115,-4.2559,-4.2977,-4.3318,-4.3594,-4.3828,-4.3974,-4.4005,-4.4005,-4.4005,-4.4005,-4.4005,-4.4005,-4.4005,-4.4005,-4.4005,-4.4005,-4.4005,-4.4005,-4.4005,-4.4005,-4.4005,-4.4005,-4.4005,-4.4005,-4.4005,-4.4005,-3.4333,-3.4267,-3.4068,-3.4234,-3.4084,-3.3732,0.0,0.0,-3.2398,-3.2398,-3.2398,-3.2536,-3.3013,-3.3275,-3.3798,-3.4983,0.0,-3.6452,0.0,0.0,0.0,0.0,0.0,0.0,0.0,0.0,0.0,0.0,0.0,0.0,-4.007,-4.007,-4.007,-4.007,-4.007,-4.007,-4.007,-4.007,-4.007,-4.007,-4.007,-4.007,-4.007,-4.007,-4.007,-4.007,-4.007,0.0,0.0,-4.0387,-4.0485,-4.06,-4.0793,-4.084,-4.084,-4.0888,-4.0888,-4.0888,-4.0888,-4.0888,-4.0888,-4.0888,-4.0888,-4.0888,-4.0888,-4.0888,-4.0888,-4.0888,-4.0888,-4.0888,-4.0888,-4.0888,-4.0888,-4.0888,-4.0888,-4.0888,-4.0888,-4.0995,-4.1117,-4.1117,-4.1272,-4.138,-4.138,-4.1453,-4.1569,-4.1839,-4.2175,-4.2598,-4.3141,-4.3424,-4.3697,-4.3974,-4.4005,-4.4005,-4.4005,-4.4005,-4.4005,-4.4005,-4.4005,-4.4005,-4.4005,-4.4005,-4.4005,-4.4005,-4.4005,-4.4005,-4.4005,-4.4005,-4.4005,-4.4005,-4.4005,-4.4005,-3.4382,-3.43,-3.405,-3.3745,-3.371,-3.3487,0.0,0.0,-3.2398,-3.2398,-3.2398,-3.2398,-3.2398,-3.2952,-3.3644,-3.4368,-3.5045,0.0,0.0,0.0,0.0,0.0,0.0,0.0,0.0,0.0,0.0,0.0,0.0,0.0,-4.007,-4.007,-4.007,-4.007,-4.007,-4.007,-4.007,-4.007,-4.007,-4.007,-4.007,-4.007,-4.007,-4.007,-4.007,0.0,0.0,0.0,0.0,-4.0238,-4.0288,-4.0355,-4.06,-4.0697,-4.0697,-4.084,-4.0888,-4.0888,-4.0888,-4.0888,-4.0888,-4.0888,-4.0888,-4.0888,-4.0888,-4.0888,-4.0888,-4.0888,-4.0888,-4.0888,-4.0888,-4.0888,-4.0888,-4.0888,-4.0888,-4.0888,-4.0888,-4.0888,-4.0871,-4.0871,-4.0935,-4.0935,-4.0935,-4.1088,-4.13,-4.1542,-4.2068,-4.2595,-4.3123,-4.3426,-4.3697,-4.3974,-4.4005,-4.4005,-4.4005,-4.4005,-4.4005,-4.4005,-4.4005,-4.4005,-4.4005,-4.4005,-4.4005,-4.4005,-4.4005,-4.4005,-4.4005,-4.4005,-4.4005,-4.4005,-4.4005,-4.4005,-3.3277,-3.3455,-3.3439,-3.3187,-3.3261,-3.3161,-3.2547,0.0,-3.2398,-3.2398,-3.2398,-3.2398,-3.2398,-3.2567,-3.2936,-3.3629,-3.4337,0.0,0.0,0.0,0.0,0.0,0.0,0.0,0.0,0.0,0.0,0.0,0.0,0.0,-4.007,-4.007,-4.007,-4.007,-4.007,-4.007,-4.007,-4.007,-4.007,-4.007,-4.007,-4.007,-4.007,-4.007,-4.007,0.0,0.0,0.0,0.0,-4.0305,-4.0337,-4.0436,-4.0534,-4.0648,-4.0697,-4.0745,-4.084,-4.0888,-4.0888,-4.0888,-4.0888,-4.0888,-4.0888,-4.0888,-4.0888,-4.0888,-4.0888,-4.0888,-4.0888,-4.0888,-4.0888,-4.0888,-4.0888,-4.0888,-4.0888,-4.0888,-4.0888,-4.0888,-4.0888,-4.0888,-4.0888,-4.0888,-4.0888,-4.0965,-4.1012,-4.1105,-4.1391,-4.1584,-4.155,-4.2428,-4.3011,-4.2904,-4.3558,-4.4005,-4.4005,-4.4005,-4.4005,-4.4005,-4.4005,-4.4005,-4.4005,-4.4005,-4.4005,-4.4005,-4.4005,-4.4005,-4.4005,-4.4005,-4.4005,-4.4005,-4.4005,-4.4005,0.0,-3.2973,-3.3049,-3.2951,-3.2958,0.0,0.0,0.0,-3.2398,-3.2398,-3.2398,-3.2398,-3.2398,-3.2398,-3.2613,-3.329,-3.3783,0.0,0.0,0.0,0.0,0.0,0.0,0.0,0.0,0.0,0.0,0.0,0.0,0.0,-4.007,-4.007,-4.007,-4.007,-4.007,-4.007,-4.007,-4.007,-4.007,-4.007,-4.007,-4.007,-4.007,-4.007,-4.007,0.0,0.0,0.0,0.0,-4.0238,-4.0288,-4.032,-4.0387,-4.0485,-4.0648,-4.0697,-4.0793,-4.0888,-4.0888,-4.0888,-4.0888,-4.0888,-4.0888,-4.0888,-4.0888,-4.0888,-4.0888,-4.0888,-4.0888,-4.0888,-4.0888,-4.0888,-4.0888,-4.0888,-4.0888,-4.0888,-4.0888,-4.0888,-4.0888,-4.0888,-4.0888,-4.0888,-4.0888,-4.0888,-4.0832,-4.0631,-4.07,-4.0701,-4.0446,-4.124,-4.1833,-4.1809,-4.2802,-4.3509,-4.3509,-4.3788,-4.4005,-4.4005,-4.4005,-4.4005,-4.4005,-4.4005,-4.4005,-4.4005,-4.4005,-4.4005,-4.4005,-4.4005,-4.4005,-4.4005,-4.4005,-4.4005,0.0,0.0,0.0,0.0,0.0,0.0,0.0,0.0,0.0,0.0,-3.2398,-3.2398,-3.2398,-3.2398,-3.2598,-3.3229,0.0,0.0,0.0,0.0,0.0,0.0,0.0,0.0,0.0,0.0,0.0,0.0,0.0,0.0,-4.007,-4.007,-4.007,-4.007,-4.007,-4.007,-4.007,-4.007,-4.007,-4.007,-4.007,-4.007,-4.007,-4.007,-4.007,0.0,0.0,0.0,0.0,-4.007,-4.007,-4.0121,-4.0238,-4.0387,-4.0485,-4.0648,-4.0745,-4.0888,-4.0888,-4.0888,-4.0888,-4.0888,-4.0888,-4.0888,-4.0888,-4.0888,-4.0888,-4.0888,-4.0888,-4.0888,-4.0888,-4.0888,-4.0888,-4.0888,-4.0888,-4.0888,-4.0888,-4.0888,-4.0888,-4.0888,-4.0888,-4.0888,-4.0888,-4.0836,-4.0654,-4.0155,-4.0043,-3.9913,-3.97,-4.0036,-4.0366,-4.0628,-4.1811,-4.2582,-4.2582,-4.3472,-4.4005,-4.4005,-4.4005,-4.4005,-4.4005,-4.4005,-4.4005,-4.4005,-4.4005,-4.4005,-4.4005,-4.4005,-4.4005,-4.4005,-4.4005,-4.4005,-3.1427,0.0,-3.2523,-3.2523,-3.2523,0.0,0.0,0.0,0.0,0.0,0.0,0.0,0.0,0.0,0.0,0.0,0.0,0.0,0.0,0.0,0.0,0.0,0.0,0.0,0.0,0.0,0.0,0.0,0.0,-4.007,-4.007,-4.007,-4.007,-4.007,-4.007,-4.007,-4.007,-4.007,-4.007,-4.007,-4.007,-4.007,-4.007,-4.007,-4.007,0.0,0.0,0.0,-4.007,-4.007,-4.007,-4.007,-4.0121,-4.0238,-4.0337,-4.0387,-4.0551,-4.0745,-4.0745,-4.084,-4.0888,-4.0888,-4.0888,-4.0888,-4.0888,-4.0888,-4.0888,-4.0888,-4.0888,-4.0888,-4.0888,-4.0888,-4.0888,-4.0888,-4.0888,-4.0888,-4.0888,-4.0888,-4.0888,-4.0888,-4.0888,-4.0888,-4.0888,-4.0371,-3.9951,-3.9824,-3.9306,-3.8799,-3.8332,-3.9213,-3.9707,-3.9373,-4.0653,-4.1557,-4.1557,-4.3076,-4.4005,-4.4005,-4.4005,-4.4005,-4.4005,-4.4005,-4.4005,-4.4005,-4.4005,-4.4005,-4.4005,-4.4005,-4.4005,-4.4005,-4.4005,-4.4005,-3.0289,-3.1197,-3.2013,-3.2321,-3.2398,-3.2398,0.0,0.0,0.0,0.0,0.0,0.0,0.0,0.0,0.0,0.0,0.0,0.0,0.0,0.0,0.0,0.0,0.0,0.0,0.0,0.0,0.0,0.0,0.0,-4.007,-4.007,-4.007,-4.007,-4.007,-4.007,-4.007,-4.007,-4.007,-4.007,-4.007,-4.007,-4.007,-4.007,-4.007,-4.007,0.0,0.0,0.0,-4.007,-4.007,-4.007,-4.007,-4.007,-4.0188,-4.0305,-4.0387,-4.0551,-4.0697,-4.0793,-4.084,-4.0888,-4.0888,-4.0888,-4.0888,-4.0888,-4.0888,-4.0888,-4.0888,-4.0888,-4.0888,-4.0888,-4.0888,-4.0888,-4.0888,-4.0888,-4.0888,-4.0888,-4.0888,-4.0888,-4.0888,-4.0888,-4.0767,-4.0405,-3.9974,-3.9457,-3.8784,-3.8336,-3.7845,-3.7213,-3.786,-3.8288,-3.7996,-3.9247,-4.0136,-4.0273,-4.1574,-4.2521,-4.286,-4.3243,-4.3448,-4.3448,-4.3801,-4.4005,-4.4005,-4.4005,-4.4005,-4.4005,-4.4005,-4.4005,-4.4005,-4.4005,-4.4005,-2.9381,-3.0228,-3.1274,-3.2044,-3.2321,-3.2398,-3.2398,0.0,0.0,0.0,0.0,0.0,0.0,0.0,0.0,0.0,0.0,0.0,0.0,0.0,0.0,0.0,0.0,0.0,0.0,0.0,0.0,0.0,0.0,-4.007,-4.007,-4.007,-4.007,-4.007,-4.007,-4.007,-4.007,-4.007,-4.007,-4.007,-4.007,-4.007,-4.007,-4.007,-4.007,-4.007,0.0,0.0,-4.007,-4.007,-4.007,-4.007,-4.007,-4.0188,-4.0288,-4.0436,-4.06,-4.0697,-4.0823,-4.0888,-4.0888,-4.0888,-4.0888,-4.0888,-4.0888,-4.0888,-4.0888,-4.0888,-4.0888,-4.0888,-4.0888,-4.0888,-4.0888,-4.0888,-4.0888,-4.0888,-4.0888,-4.0888,-4.0888,-4.0888,-4.0784,-4.0491,-3.9819,-3.9508,-3.8939,-3.768,-3.7387,-3.706,-3.6387,-3.6638,-3.6878,-3.6878,-3.7927,-3.8744,-3.8958,-3.9713,-4.0455,-4.1082,-4.2032,-4.2581,-4.2612,-4.3262,-4.3689,-4.3819,-4.3819,-4.3875,-4.4005,-4.3875,-4.3819,-4.3819,-4.3689,-4.3633,-2.9258,-2.9566,-3.0012,-3.1228,-3.1967,-3.2398,-3.2398,0.0,0.0,0.0,0.0,0.0,0.0,0.0,0.0,0.0,0.0,0.0,0.0,0.0,0.0,0.0,0.0,0.0,0.0,0.0,0.0,0.0,0.0,-4.007,-4.007,-4.007,-4.007,-4.007,-4.007,-4.007,-4.007,-4.007,-4.007,-4.007,-4.007,-4.007,-4.007,-4.007,-4.007,-4.007,0.0,-4.007,-4.007,-4.007,-4.007,-4.007,-4.007,-4.0188,-4.0305,-4.0337,-4.0502,-4.0697,-4.0823,-4.0888,-4.0888,-4.0888,-4.0888,-4.0888,-4.0888,-4.0888,-4.0888,-4.0888,-4.0888,-4.0888,-4.0888,-4.0888,-4.0888,-4.0888,-4.0888,-4.0888,-4.0888,-4.0888,-4.0888,-4.0888,-4.0336,-3.9836,-3.9715,-3.8646,-3.7749,-3.7508,-3.6904,-3.6439,-3.6318,-3.6544,-3.6725,-3.6725,-3.7388,-3.7882,-3.7918,-3.8409,-3.878,-3.8875,-4.0509,-4.1558,-4.1776,-4.1887,-4.2296,-4.2965,-4.2983,-4.3318,-4.4005,-4.3318,-4.2983,-4.2965,-4.2296,-4.1962,-2.8781,-2.9135,-2.9566,-3.0166,-3.1089,-3.1936,-3.2305,0.0,0.0,0.0,0.0,0.0,0.0,0.0,0.0,0.0,0.0,0.0,0.0,0.0,0.0,0.0,0.0,0.0,0.0,0.0,0.0,0.0,0.0,0.0,-4.007,-4.007,-4.007,-4.007,-4.007,-4.007,-4.007,-4.007,-4.007,-4.007,-4.007,-4.007,-4.007,-4.007,-4.007,-4.007,0.0,-4.007,-4.007,-4.007,-4.007,-4.007,-4.007,-4.0138,-4.0188,-4.0288,-4.0453,-4.0697,-4.0793,-4.084,-4.0888,-4.0888,-4.0888,-4.0888,-4.0888,-4.0888,-4.0888,-4.0888,-4.0888,-4.0888,-4.0888,-4.0888,-4.0888,-4.0888,-4.0888,-4.0888,-4.0888,-4.0888,-4.0888,-4.0888,-4.0233,-3.956,-3.9163,-3.8198,-3.7335,-3.6904,-3.6542,-3.6301,-3.6301,-3.6402,-3.6544,-3.6684,-3.6987,-3.7241,-3.7466,-3.7667,-3.8164,-3.9002,-3.9845,-4.0643,-4.1354,-4.1373,-4.1822,-4.2779,-4.2797,-4.3206,-4.4005,-4.3188,-4.2797,-4.2779,-4.1962,-4.159,-2.8411,-2.8781,-2.9212,-2.9381,0.0,-3.1574,-3.2191,0.0,0.0,0.0,0.0,0.0,0.0,0.0,0.0,0.0,0.0,0.0,0.0,0.0,0.0,0.0,0.0,0.0,0.0,0.0,0.0,0.0,0.0,0.0,-4.007,-4.007,-4.007,-4.007,-4.007,-4.007,-4.007,-4.007,-4.007,-4.007,-4.007,-4.007,-4.007,-4.007,-4.007,-4.007,-4.007,-4.007,-4.007,-4.007,-4.007,-4.007,-4.007,-4.0138,-4.0188,-4.0288,-4.0502,-4.0648,-4.0648,-4.0745,-4.0823,-4.0823,-4.0871,-4.0888,-4.0888,-4.0888,-4.0888,-4.0888,-4.0888,-4.0888,-4.0888,-4.0888,-4.0888,-4.0888,-4.0888,-4.0888,-4.0888,-4.0888,-4.0819,-4.0647,-3.9974,-3.9198,-3.8456,-3.7715,-3.6991,-3.6387,-3.6301,-3.6301,-3.6301,-3.6301,-3.6402,-3.6585,-3.6643,-3.6846,-3.7182,-3.722,-3.7753,-3.8971,-3.921,-3.9731,-4.0578,-4.0646,-4.1219,-4.25,-4.2333,-4.2816,-4.4005,-4.2816,-4.2333,-4.25,-4.1683,-4.1311,-2.8411,-2.8442,-2.8627,-2.9258,-3.0412,0.0,-3.2112,-3.2367,0.0,-3.3039,0.0,0.0,0.0,0.0,0.0,0.0,0.0,0.0,0.0,0.0,0.0,0.0,0.0,0.0,0.0,0.0,0.0,0.0,0.0,0.0,-4.0037,-4.007,-4.007,-4.007,-4.007,-4.007,-4.007,-4.007,-4.007,-4.007,-4.007,-4.007,-4.007,-4.007,-4.007,-4.007,-4.007,-4.007,-4.007,-4.007,-4.007,-4.007,-4.007,-4.0188,-4.0288,-4.0436,-4.0485,-4.0534,-4.0534,-4.0583,-4.0697,-4.0697,-4.0793,-4.0888,-4.0888,-4.0888,-4.0888,-4.0888,-4.0888,-4.0888,-4.0888,-4.0888,-4.0888,-4.0888,-4.0888,-4.0888,-4.0888,-4.0888,-4.0664,-3.9922,-3.9181,-3.8439,-3.7698,-3.6904,-3.637,-3.6301,-3.6301,-3.6301,-3.6301,-3.6301,-3.6301,-3.6343,-3.6544,-3.6766,-3.6987,-3.7027,-3.7161,-3.7443,-3.8108,-3.8638,-3.8958,-3.8958,-3.9815,-4.1646,-4.094,-4.1702,-4.3986,-4.1683,-4.0958,-4.1664,-4.0847,-4.0476,-2.8411,-2.8411,-2.8473,-2.8719,-2.9797,0.0,0.0,-3.2827,-3.3459,0.0,0.0,0.0,0.0,0.0,0.0,0.0,0.0,0.0,0.0,0.0,0.0,0.0,0.0,0.0,0.0,0.0,0.0,0.0,0.0,0.0,-3.8717,-3.8717,-3.8717,-3.8717,-3.8717,-3.857,-3.8238,-3.8238,-3.8069,-3.7744,-3.8968,-3.9747,-4.007,-3.9696,-3.9747,-4.007,-4.007,-4.007,-4.007,-4.007,-4.007,-4.007,-4.007,-4.0121,-4.0188,-4.0221,-4.0288,-4.0387,-4.0387,-4.0502,-4.0697,-4.0697,-4.0793,-4.0888,-4.0888,-4.0888,-4.0888,-4.0888,-4.0888,-4.0888,-4.0888,-4.0888,-4.0888,-4.0888,-4.0888,-4.0888,-4.0888,-4.0491,-4.0043,-3.975,-3.8715,-3.7818,-3.7542,-3.6818,-3.6301,-3.6301,-3.6301,-3.6301,-3.6301,-3.6301,-3.6343,-3.6544,-3.6748,-3.6948,-3.7182,-3.7182,-3.7259,-3.7466,-3.7649,-3.7984,-3.8528,-3.8559,-3.9498,-4.1553,-4.1293,-4.2092,-4.4005,-4.2073,-4.1553,-4.2314,-4.0996,-4.0661,-2.8411,-2.8411,-2.8411,0.0,0.0,0.0,-3.1577,-3.2798,0.0,0.0,0.0,0.0,0.0,0.0,0.0,0.0,0.0,0.0,0.0,0.0,0.0,0.0,0.0,0.0,0.0,0.0,0.0,0.0,0.0,0.0,0.0,-3.7418,-3.7418,-3.7418,-3.7418,-3.7203,-3.6832,-3.6832,-3.6662,-3.6279,-3.7448,-3.8298,-3.889,-3.8689,-3.8858,-3.9241,-3.9647,-3.9799,-3.985,-4.002,-4.007,-4.007,-4.007,-4.007,-4.007,-4.007,-4.0188,-4.0238,-4.0238,-4.0387,-4.06,-4.0648,-4.0745,-4.084,-4.0888,-4.0888,-4.0888,-4.0888,-4.0888,-4.0888,-4.0888,-4.0888,-4.0888,-4.0888,-4.0888,-4.0819,-4.056,-4.0077,-3.956,-3.9094,-3.818,-3.7404,-3.7146,-3.6663,-3.6301,-3.6301,-3.6301,-3.6301,-3.6301,-3.6301,-3.6343,-3.6544,-3.6708,-3.6851,-3.697,-3.697,-3.7126,-3.7392,-3.7317,-3.7631,-3.8382,-3.8382,-3.9276,-4.1181,-4.094,-4.1739,-4.3615,-4.1999,-4.1757,-4.276,-4.1664,-4.1441,-2.8411,-2.8411,0.0,0.0,0.0,0.0,0.0,0.0,0.0,0.0,0.0,0.0,0.0,0.0,0.0,0.0,0.0,0.0,0.0,0.0,0.0,0.0,0.0,0.0,0.0,0.0,0.0,0.0,0.0,0.0,0.0,-3.6263,-3.6263,-3.6263,-3.6263,-3.6263,-3.6247,-3.6247,-3.6247,-3.6263,-3.5632,-3.5703,-3.6296,-3.701,-3.7264,-3.7367,-3.8644,-3.9172,-3.9226,-3.985,-4.007,-4.007,-4.007,-4.007,-4.007,-4.007,-4.007,-4.007,-4.007,-4.0188,-4.0305,-4.0436,-4.0583,-4.0745,-4.0888,-4.0888,-4.0888,-4.0888,-4.0888,-4.0888,-4.0888,-4.0888,-4.0888,-4.0888,-4.0871,-4.0664,-3.9871,-3.9681,-3.925,-3.7767,-3.7473,-3.7232,-3.6439,-3.6301,-3.6301,-3.6301,-3.6301,-3.6301,-3.6301,-3.6301,-3.6301,-3.6301,-3.6301,-3.6301,-3.6301,-3.6301,-3.6509,-3.697,-3.7129,-3.7542,-3.8382,-3.8401,-3.9038,-4.0383,-3.9565,-4.0346,-4.2816,-4.12,-4.1237,-4.2816,-4.2797,-4.2797,-2.8411,0.0,0.0,0.0,0.0,0.0,0.0,0.0,0.0,0.0,0.0,0.0,0.0,0.0,0.0,0.0,0.0,0.0,0.0,0.0,0.0,0.0,0.0,0.0,0.0,0.0,0.0,0.0,0.0,0.0,0.0,-3.4667,-3.4667,-3.4667,-3.4667,-3.4497,-3.4117,-3.4133,-3.3921,-3.3576,-3.3372,-3.4352,-3.6279,-3.6075,-3.6172,-3.6604,-3.6975,-3.7179,-3.7212,-3.8332,-3.9277,-4.007,-4.007,-4.007,-4.007,-4.007,-4.007,-4.007,-4.007,-4.0188,-4.0305,-4.0436,-4.0583,-4.0745,-4.0888,-4.0888,-4.0888,-4.0888,-4.0888,-4.0888,-4.0888,-4.0888,-4.0888,-4.0888,-4.0457,-3.9991,-3.975,-3.887,-3.8008,-3.756,-3.7025,-3.6577,-3.6335,-3.6301,-3.6301,-3.6301,-3.6301,-3.6301,-3.6301,-3.6301,-3.6301,-3.6301,-3.6301,-3.6402,-3.6561,-3.6602,-3.6708,-3.6987,-3.7164,-3.7631,-3.8382,-3.9077,-4.0025,-4.1219,-4.1553,-4.2333,-4.3633,-4.2593,-4.2612,-4.3633,-4.3058,-4.3095,-2.8411,0.0,0.0,0.0,0.0,0.0,0.0,0.0,0.0,0.0,0.0,0.0,0.0,0.0,0.0,0.0,0.0,0.0,0.0,0.0,0.0,0.0,0.0,0.0,0.0,0.0,0.0,0.0,0.0,0.0,0.0,-3.3355,-3.3355,-3.3355,-3.3355,-3.3214,-3.2895,-3.2895,-3.2749,-3.2398,-3.2398,-3.324,-3.4749,-3.4668,-3.4794,-3.5163,-3.5722,-3.6066,-3.6365,-3.7345,-3.8101,-3.8655,-3.9042,-3.9109,-3.8942,-3.9158,-3.9225,-3.9225,-3.9225,-3.9274,-3.9372,-3.9501,-3.9597,-3.9709,-3.9881,-3.991,-3.991,-3.9974,-3.9974,-3.9974,-3.9974,-3.9974,-4.0043,-4.0336,-4.0043,-3.9526,-3.8939,-3.8112,-3.7387,-3.7077,-3.6628,-3.6301,-3.6301,-3.6301,-3.6301,-3.6301,-3.6301,-3.6301,-3.6301,-3.6301,-3.6301,-3.6301,-3.6301,-3.636,-3.6544,-3.6544,-3.6626,-3.6886,-3.7347,-3.7911,-3.852,-3.9363,-4.0312,-4.1422,-4.2013,-4.2723,-4.3522,-4.3039,-4.3206,-4.3986,-4.3503,-4.354,0.0,0.0,0.0,0.0,0.0,0.0,0.0,0.0,0.0,0.0,0.0,0.0,0.0,0.0,0.0,0.0,0.0,0.0,0.0,0.0,0.0,0.0,0.0,0.0,0.0,0.0,0.0,0.0,0.0,0.0,0.0,-3.2398,-3.2398,-3.2398,-3.2398,-3.2398,-3.2398,-3.2398,-3.2398,-3.2398,-3.2398,-3.2398,-3.2413,-3.3029,-3.3306,-3.3409,-3.4595,-3.5489,-3.6182,-3.6615,-3.6612,-3.6385,-3.7418,-3.7533,-3.717,-3.7696,-3.7905,-3.7905,-3.7905,-3.7905,-3.7905,-3.8031,-3.8125,-3.8155,-3.8351,-3.838,-3.8425,-3.8532,-3.8594,-3.8594,-3.8594,-3.8594,-3.8732,-3.9353,-3.9491,-3.9129,-3.7784,-3.7422,-3.7163,-3.6439,-3.6301,-3.6301,-3.6301,-3.6301,-3.6301,-3.6301,-3.6301,-3.6301,-3.6301,-3.6301,-3.6301,-3.6301,-3.6301,-3.6301,-3.6301,-3.6301,-3.6437,-3.6748,-3.758,-3.8347,-3.8954,-3.9512,-4.0266,-4.1296,-4.1637,-4.2184,-4.2909,-4.2909,-4.328,-4.4005,-4.4005,-4.4005,0.0,0.0,0.0,0.0,0.0,0.0,0.0,0.0,0.0,0.0,0.0,0.0,0.0,0.0,0.0,0.0,0.0,0.0,0.0,0.0,0.0,0.0,0.0,0.0,0.0,0.0,0.0,0.0,0.0,0.0,-3.2398,-3.2398,-3.2398,-3.2398,-3.2398,-3.2398,-3.2398,-3.2398,-3.2398,0.0,-3.2398,-3.2398,-3.2398,-3.2552,-3.2613,-3.2613,-3.2934,-3.3717,-3.4733,-3.484,-3.5444,-3.6385,-3.7002,-3.722,-3.717,-3.7696,-3.7905,-3.7905,-3.7905,-3.7905,-3.7905,-3.8031,-3.8125,-3.8155,-3.8351,-3.838,-3.8425,-3.8532,-3.8594,-3.8594,-3.8594,-3.8594,-3.8474,-3.806,-3.7956,-3.787,-3.756,-3.6991,-3.6508,-3.6335,-3.6301,-3.6301,-3.6301,-3.6301,-3.6301,-3.6301,-3.6301,-3.6301,-3.6301,-3.6301,-3.6301,-3.6301,-3.6301,-3.6301,-3.6301,-3.6301,-3.6602,-3.7283,-3.7686,-3.8631,-4.0304,-4.1053,-4.1638,-4.2124,-4.3026,-4.3578,-4.3745,-4.3745,-4.3838,-4.4005,-4.4005,-4.4005,0.0,0.0,0.0,0.0,0.0,0.0,0.0,0.0,0.0,0.0,0.0,0.0,0.0,0.0,0.0,0.0,0.0,0.0,0.0,0.0,0.0,0.0,0.0,0.0,0.0,0.0,0.0,0.0,0.0,-3.2398,-3.2398,-3.2398,-3.2398,-3.2398,-3.2398,-3.2398,-3.2398,-3.2398,-3.2398,-3.2398,-3.2398,-3.2398,-3.2398,-3.2398,-3.2398,-3.2398,-3.2398,-3.2803,-3.3388,-3.3698,-3.401,-3.4574,-3.5578,-3.5828,-3.5728,-3.6508,-3.6806,-3.6806,-3.6806,-3.6806,-3.6806,-3.6944,-3.699,-3.7036,-3.7288,-3.7332,-3.7359,-3.7447,-3.7491,-3.7491,-3.7491,-3.7491,-3.7387,-3.7008,-3.7215,-3.737,-3.6991,-3.6594,-3.6301,-3.6301,-3.6301,-3.6301,-3.6301,-3.6301,-3.6301,-3.6301,-3.6301,-3.6301,-3.6301,-3.6301,-3.6301,-3.6301,-3.6301,-3.6456,-3.6835,-3.687,-3.7198,-3.7974,-3.8486,-3.9286,-4.0623,-4.1395,-4.2157,-4.2837,-4.3339,-4.3744,-4.3942,-4.3974,-4.4005,-4.4005,-4.4005,-4.4005,0.0,0.0,0.0,0.0,0.0,0.0,0.0,0.0,0.0,0.0,0.0,0.0,0.0,0.0,0.0,0.0,0.0,0.0,0.0,0.0,0.0,0.0,0.0,0.0,0.0,0.0,0.0,0.0,0.0,-3.2398,-3.2398,-3.2398,-3.2398,-3.2398,-3.2398,-3.2398,-3.2398,-3.2398,-3.2398,-3.2398,-3.2398,-3.2398,-3.2398,-3.2398,-3.2398,-3.2398,-3.2398,-3.2398,-3.2437,-3.2895,-3.2788,-3.2547,-3.3969,-3.4268,-3.3969,-3.5068,-3.547,-3.547,-3.5577,-3.5622,-3.5622,-3.5728,-3.5773,-3.5817,-3.6053,-3.6122,-3.6122,-3.6233,-3.6259,-3.6259,-3.6259,-3.6259,-3.6301,-3.6301,-3.6801,-3.7094,-3.6439,-3.6301,-3.6301,-3.6301,-3.6301,-3.6301,-3.6301,-3.6301,-3.6301,-3.6301,-3.6301,-3.6301,-3.6301,-3.6422,-3.6508,-3.6508,-3.6611,-3.6956,-3.7611,-3.768,-3.7991,-3.8732,-3.9353,-3.9995,-4.0656,-4.1236,-4.2056,-4.3105,-4.3177,-4.344,-4.3929,-4.3974,-4.4005,-4.4005,-4.4005,-4.4005,0.0,0.0,0.0,0.0,0.0,0.0,0.0,0.0,0.0,0.0,0.0,0.0,0.0,0.0,0.0,0.0,0.0,0.0,0.0,0.0,0.0,0.0,0.0,0.0,0.0,0.0,0.0,0.0,-3.2398,-3.2398,-3.2398,-3.2398,-3.2398,-3.2398,-3.2398,-3.2398,-3.2398,-3.2398,-3.2398,-3.2398,-3.2398,-3.2398,-3.2398,-3.2398,-3.2398,-3.2398,-3.2398,-3.2398,-3.2398,-3.2492,-3.2437,-3.2437,-3.3145,-3.3339,-3.3459,-3.4512,-3.4927,-3.4975,-3.5424,-3.5622,-3.5622,-3.5622,-3.5622,-3.5667,-3.5817,-3.5861,-3.5861,-3.6019,-3.6062,-3.6062,-3.6165,-3.6208,-3.6208,-3.6301,-3.6387,-3.6422,-3.6318,-3.6301,-3.6301,-3.6301,-3.6301,-3.6301,-3.6301,-3.6301,-3.6301,-3.6301,-3.6301,-3.6301,-3.6301,-3.6904,-3.7318,-3.7318,-3.7905,-3.8336,-3.8439,-3.8439,-3.8767,-3.9508,-3.9646,-4.0203,-4.1314,-4.1111,-4.1418,-4.232,-4.2904,-4.3456,-4.3974,-4.4005,-4.4005,-4.4005,-4.4005,-4.4005,0.0,0.0,0.0,0.0,0.0,0.0,0.0,0.0,0.0,0.0,0.0,0.0,0.0,0.0,0.0,0.0,0.0,0.0,0.0,0.0,0.0,0.0,0.0,0.0,0.0,0.0,0.0,0.0,-3.2398,-3.2398,-3.2398,-3.2398,-3.2398,-3.2398,-3.2398,-3.2398,-3.2398,-3.2398,-3.2198,-3.1828,-3.1828,-3.1628,-3.1289,-3.1289,-3.169,-3.2398,-3.2398,-3.2398,-3.2398,-3.2398,-3.2398,-3.2437,-3.2986,-3.3182,-3.3339,-3.4415,-3.4769,-3.488,-3.5424,-3.5622,-3.5622,-3.5684,-3.5711,-3.5728,-3.5844,-3.5905,-3.5932,-3.5975,-3.6062,-3.6122,-3.6165,-3.6208,-3.6276,-3.6301,-3.6301,-3.6301,-3.6301,-3.6301,-3.6301,-3.6301,-3.6301,-3.6301,-3.6301,-3.6301,-3.6301,-3.6301,-3.6301,-3.6456,-3.6904,-3.7267,-3.7646,-3.806,-3.8405,-3.8767,-3.9181,-3.9215,-3.9543,-4.0302,-4.0353,-4.0487,-4.0699,-4.0383,-4.0446,-4.0873,-4.2055,-4.2631,-4.2412,-4.2727,-4.2658,-4.2216,-4.2216,-4.2332,0.0,0.0,0.0,0.0,0.0,0.0,0.0,0.0,0.0,0.0,0.0,0.0,0.0,0.0,0.0,0.0,0.0,0.0,0.0,0.0,0.0,0.0,0.0,0.0,0.0,0.0,0.0,0.0,-3.2398,-3.2398,-3.2398,-3.2398,-3.2321,-3.2136,-3.2136,-3.2059,-3.189,-3.189,-3.1643,-3.1136,-3.1136,-3.0889,-3.0428,-3.0428,-3.0966,-3.1905,-3.2059,-3.2228,-3.2398,-3.2398,-3.2398,-3.2437,-3.2841,-3.2986,-3.3093,-3.4053,-3.448,-3.4673,-3.5068,-3.527,-3.5379,-3.5362,-3.5316,-3.5362,-3.5453,-3.5543,-3.5605,-3.5543,-3.5739,-3.5949,-3.5932,-3.6088,-3.6216,-3.6301,-3.6301,-3.6301,-3.6301,-3.6301,-3.6301,-3.6301,-3.6301,-3.6301,-3.6301,-3.6301,-3.637,-3.6559,-3.6594,-3.6818,-3.7404,-3.7646,-3.7905,-3.8267,-3.8474,-3.8819,-3.937,-3.9422,-3.9681,-4.0267,-4.0129,-3.9859,-3.945,-3.9029,-3.8851,-3.8921,-4.0259,-4.0957,-4.0971,-4.1215,-4.1061,-4.0357,-4.0324,-4.0432,0.0,0.0,0.0,0.0,0.0,0.0,0.0,0.0,0.0,0.0,0.0,0.0,0.0,0.0,0.0,0.0,0.0,0.0,0.0,0.0,0.0,0.0,0.0,0.0,0.0,0.0,0.0,0.0,-3.2398,-3.2398,-3.2398,-3.2398,-3.2105,-3.1459,-3.1428,-3.1151,-3.0535,-3.052,-3.0505,-3.0474,-3.0474,-3.0458,-3.0428,-3.0428,-3.0458,-3.0566,-3.1182,-3.1797,-3.2398,-3.2398,-3.2398,-3.2398,-3.2437,-3.2437,-3.2492,-3.3093,-3.3614,-3.4036,-3.4086,-3.4431,-3.4769,-3.4284,-3.4086,-3.4086,-3.407,-3.4317,-3.4529,-3.4185,-3.4706,-3.5321,-3.5253,-3.5616,-3.6062,-3.6259,-3.6301,-3.6301,-3.6301,-3.6301,-3.6301,-3.6301,-3.6301,-3.6301,-3.6301,-3.6301,-3.6559,-3.7301,-3.7422,-3.7439,-3.7473,-3.8094,-3.8284,-3.7611,-3.8163,-3.8612,-3.8646,-3.8646,-3.8663,-3.8715,-3.8043,-3.7689,-3.7655,-3.687,-3.6498,-3.6488,-3.6991,-3.8244,-4.0238,-3.9888,-3.954,-3.9192,-3.9043,-3.8847,0.0,0.0,0.0,0.0,0.0,0.0,0.0,0.0,0.0,0.0,0.0,0.0,0.0,0.0,0.0,0.0,0.0,0.0,0.0,0.0,0.0,0.0,0.0,0.0,0.0,0.0,0.0,0.0,0.0,-3.1136,-3.1136,-3.1136,-3.1028,-3.0782,-3.0766,-3.0658,-3.0428,-3.0428,-3.0212,-2.9781,-2.9781,-2.955,-2.9135,-2.9135,-2.9366,-2.9797,-3.0012,-3.0505,-3.1136,-3.1136,-3.1366,-3.1751,-3.1751,-3.2013,-3.2437,-3.2986,-3.3339,-3.3563,-3.3869,-3.4136,-3.4235,-3.4086,-3.3986,-3.3986,-3.3986,-3.4086,-3.4152,-3.4036,-3.4284,-3.4721,-3.5081,-3.5419,-3.5722,-3.6216,-3.6301,-3.6301,-3.6301,-3.6301,-3.6301,-3.6301,-3.6301,-3.6301,-3.6301,-3.6301,-3.6404,-3.668,-3.6715,-3.6904,-3.7422,-3.7715,-3.7956,-3.8163,-3.8422,-3.8594,-3.8594,-3.8163,-3.787,-3.787,-3.7146,-3.6508,-3.6025,-3.5749,-3.537,-3.4887,-3.507,-3.5737,-3.6987,-3.7163,-3.7006,-3.6609,-3.6558,-3.6576,0.0,0.0,0.0,0.0,0.0,0.0,0.0,0.0,0.0,0.0,0.0,0.0,0.0,0.0,0.0,0.0,0.0,0.0,0.0,0.0,0.0,0.0,0.0,0.0,0.0,0.0,0.0,0.0,0.0,0.0,-3.0428,-3.0428,-3.032,-3.0089,-2.9874,-2.975,-2.975,-2.975,-2.952,-2.9073,-2.9073,-2.8842,-2.8411,-2.8411,-2.8642,-2.9073,-2.9073,-2.9581,-3.0428,-3.0428,-3.0674,-3.1059,-3.1059,-3.1336,-3.1805,-3.2367,-3.2709,-3.295,-3.3328,-3.3563,-3.3716,-3.3511,-3.3459,-3.3459,-3.3459,-3.3527,-3.361,-3.3475,-3.3853,-3.4447,-3.483,-3.5311,-3.5793,-3.6199,-3.6301,-3.6301,-3.6301,-3.6301,-3.6301,-3.6301,-3.6301,-3.6301,-3.6301,-3.6301,-3.6387,-3.6663,-3.6697,-3.6887,-3.7422,-3.7491,-3.756,-3.7784,-3.7594,-3.7456,-3.7456,-3.6766,-3.6353,-3.6353,-3.5594,-3.4938,-3.4438,-3.418,-3.3818,-3.3335,-3.3317,-3.3559,-3.4059,-3.4731,-3.4851,-3.4411,-3.4424,-3.4548,0.0,0.0,0.0,0.0,0.0,0.0,0.0,0.0,0.0,0.0,0.0,0.0,0.0,0.0,0.0,0.0,0.0,0.0,0.0,0.0,0.0,0.0,0.0,0.0,0.0,0.0,0.0,0.0,-3.0366,-3.0366,-3.0366,-3.0366,-3.0058,-2.9396,-2.875,-2.8411,-2.8411,-2.8411,-2.8411,-2.8411,-2.8411,-2.8411,-2.8411,-2.8411,-2.8411,-2.8411,-2.8411,-2.915,-3.0366,-3.0366,-3.0366,-3.0397,-3.0397,-3.036,-3.0505,-3.112,-3.1721,-3.2163,-3.2338,-3.2718,-3.3061,-3.2586,-3.2398,-3.2398,-3.2398,-3.2648,-3.2843,-3.2508,-3.3459,-3.4577,-3.4431,-3.534,-3.6284,-3.6266,-3.6266,-3.6266,-3.6232,-3.6232,-3.6232,-3.6266,-3.6249,-3.6232,-3.6232,-3.6232,-3.649,-3.7267,-3.7387,-3.7387,-3.7387,-3.7387,-3.7094,-3.6318,-3.5594,-3.5163,-3.5163,-3.4473,-3.4042,-3.4042,-3.33,-3.2869,-3.2869,-3.2179,-3.18,-3.18,-3.18,-3.18,-3.18,-3.2859,-3.3208,-3.289,-3.2839,-3.2827,-2.8411,0.0,0.0,0.0,0.0,0.0,0.0,0.0,0.0,0.0,0.0,0.0,0.0,0.0,0.0,0.0,0.0,0.0,0.0,0.0,0.0,0.0,0.0,0.0,0.0,0.0,0.0,0.0,-2.8965,-2.8965,-2.8965,-2.8965,-2.8873,-2.8688,-2.8504,-2.8411,-2.8411,-2.8411,-2.8411,-2.8411,-2.8411,-2.8411,-2.8411,-2.8411,-2.8411,-2.8411,-2.8411,-2.8611,-2.8965,-2.8965,-2.9258,-2.9689,-2.9689,-2.9997,-3.0443,-3.0628,-3.0794,-3.0975,-3.1497,-3.1766,-3.1935,-3.2283,-3.2398,-3.2398,-3.2398,-3.2765,-3.3124,-3.3002,-3.3563,-3.4268,-3.483,-3.5616,-3.6113,-3.5628,-3.549,-3.5352,-3.4818,-3.4697,-3.4869,-3.5387,-3.5059,-3.4697,-3.4697,-3.4697,-3.4766,-3.499,-3.5025,-3.5025,-3.5025,-3.5025,-3.4956,-3.4714,-3.4525,-3.4387,-3.4387,-3.368,-3.3231,-3.3231,-3.2524,-3.2093,-3.2093,-3.1903,-3.18,-3.18,-3.18,-3.18,-3.18,-3.21,-3.2332,-3.2458,-3.244,-3.2586,0.0,0.0,0.0,0.0,0.0,0.0,-2.8411,-2.8411,0.0,0.0,0.0,0.0,0.0,0.0,0.0,0.0,0.0,0.0,0.0,0.0,0.0,0.0,0.0,0.0,0.0,-2.8411,-2.8411,-2.8411,-2.8411,-2.8411,-2.8411,-2.8411,-2.8411,-2.8411,-2.8411,-2.8411,-2.8411,-2.8411,-2.8411,-2.8411,-2.8411,-2.8411,-2.8411,-2.8411,-2.8411,-2.8411,-2.8411,-2.8411,-2.8411,-2.8411,-2.8642,-2.8996,-2.8996,-2.9243,-2.9612,-2.9904,-2.9997,-3.0104,-3.0751,-3.0982,-3.1043,-3.1443,-3.1567,-3.1628,-3.189,-3.2382,-3.2835,-3.3103,-3.3542,-3.4116,-3.4875,-3.5146,-3.5094,-3.473,-3.4651,-3.4553,-3.4123,-3.3778,-3.3818,-3.4576,-3.4387,-3.4093,-3.4093,-3.4093,-3.4093,-3.4093,-3.4093,-3.4093,-3.4093,-3.4093,-3.4093,-3.4093,-3.3783,-3.3593,-3.3593,-3.2886,-3.2438,-3.2438,-3.2041,-3.18,-3.18,-3.18,-3.18,-3.18,-3.18,-3.18,-3.18,-3.18,-3.1893,-3.2091,-3.2091,-3.2214,0.0,0.0,0.0,0.0,0.0,0.0,-2.8411,-2.8411,-2.8411,0.0,0.0,0.0,0.0,0.0,0.0,0.0,0.0,0.0,0.0,0.0,0.0,0.0,0.0,0.0,-2.8411,-2.8411,-2.8411,-2.8411,-2.8411,-2.8411,-2.8411,-2.8411,-2.8411,-2.8411,-2.8411,-2.8411,-2.8411,-2.8411,-2.8411,-2.8411,-2.8411,-2.8411,-2.8411,-2.8411,-2.8411,-2.8411,-2.8411,-2.8411,-2.8411,-2.8411,-2.8411,-2.8411,-2.8411,-2.8411,-2.8473,-2.9089,-2.9304,-2.9396,-3.0089,-3.0304,-3.032,-3.0397,-3.0428,-3.0535,-3.1105,-3.168,-3.2304,-3.2994,-3.3502,-3.3985,-3.4602,-3.4267,-3.3755,-3.371,-3.3716,-3.3762,-3.3659,-3.3188,-3.299,-3.3697,-3.3835,-3.3835,-3.3835,-3.3835,-3.3835,-3.3835,-3.3835,-3.3835,-3.3835,-3.3835,-3.3835,-3.3835,-3.3197,-3.2783,-3.2783,-3.2179,-3.18,-3.18,-3.18,-3.18,-3.18,-3.18,-3.18,-3.18,-3.18,-3.18,-3.18,-3.18,-3.18,-3.18,-3.18,-3.18,0.0,0.0,0.0,0.0,0.0,0.0,-2.8411,-2.8411,-2.8411,0.0,0.0,0.0,0.0,0.0,0.0,0.0,0.0,0.0,0.0,0.0,0.0,0.0,0.0,0.0,-2.8411,-2.8411,-2.8411,-2.8411,-2.8411,-2.8411,-2.8411,-2.8411,-2.8411,-2.8411,-2.8411,-2.8411,-2.8411,-2.8411,-2.8411,-2.8411,-2.8411,-2.8411,-2.8411,-2.8411,-2.8411,-2.8411,-2.8411,-2.8411,-2.8411,-2.8411,-2.8411,-2.8411,-2.8411,-2.8411,-2.8427,-2.855,-2.8611,-2.8704,-2.9381,-2.9612,-2.9704,-3.0243,-3.0428,-3.0443,-3.0582,-3.1215,-3.2125,-3.3089,-3.3453,-3.3567,-3.3811,-3.3751,-3.3536,-3.3083,-3.3024,-3.2874,-3.2331,-3.2127,-3.2059,-3.2214,-3.2248,-3.2248,-3.2248,-3.2248,-3.2248,-3.2248,-3.2248,-3.2248,-3.2248,-3.2248,-3.2248,-3.2248,-3.211,-3.2007,-3.2007,-3.1886,-3.18,-3.18,-3.18,-3.18,-3.18,-3.18,-3.18,-3.18,-3.18,-3.18,-3.18,-3.18,-3.18,-3.18,-3.18,-3.18,0.0,0.0,0.0,-2.8411,0.0,0.0,0.0,-2.8411,-2.8411,0.0,0.0,0.0,0.0,0.0,0.0,0.0,0.0,0.0,0.0,0.0,0.0,0.0,0.0,0.0,-2.8411,-2.8411,-2.8411,-2.8411,-2.8411,-2.8411,-2.8411,-2.8411,-2.8411,-2.8411,-2.8411,-2.8411,-2.8411,-2.8411,-2.8411,-2.8411,-2.8411,-2.8411,-2.8411,-2.8411,-2.8411,-2.8411,-2.8411,-2.8411,-2.8411,-2.8411,-2.8411,-2.8411,-2.8411,-2.8411,-2.8411,-2.8411,-2.8411,-2.8458,-2.8796,-2.8904,-2.8965,-2.9304,-2.9412,-2.9524,-3.0083,-3.1214,-3.2422,-3.3177,-3.3136,-3.2848,-3.293,-3.2676,-3.2326,-3.2093,-3.2102,-3.2094,-3.1757,-3.1746,-3.18,-3.18,-3.18,-3.18,-3.18,-3.18,-3.18,-3.18,-3.18,-3.18,-3.18,-3.18,-3.18,-3.18,-3.18,-3.18,-3.18,-3.18,-3.18,-3.18,-3.18,-3.18,-3.18,-3.18,-3.18,-3.18,-3.18,-3.18,-3.18,-3.18,-3.18,-3.18,-3.18,-3.18,0.0,0.0,0.0,0.0,0.0,-2.8411,0.0,0.0,0.0,0.0,0.0,0.0,0.0,0.0,0.0,0.0,0.0,0.0,0.0,0.0,0.0,0.0,0.0,0.0,0.0,-2.8411,-2.8411,-2.8411,-2.8411,-2.8411,-2.8411,-2.8411,-2.8411,-2.8411,-2.8411,-2.8411,-2.8411,-2.8411,-2.8411,-2.8411,-2.8411,-2.8411,-2.8411,-2.8411,-2.8411,-2.8411,-2.8411,-2.8411,-2.8411,-2.8411,-2.8411,-2.8411,-2.8411,-2.8411,-2.8411,-2.8411,-2.8411,-2.8411,-2.8411,-2.8411,-2.8411,-2.8411,-2.8444,-2.8714,-2.9753,-3.0995,-3.2144,-3.257,-3.2261,-3.1849,-3.1931,-3.1493,-3.1095,-3.1257,-3.1406,-3.15,-3.1596,-3.1709,-3.18,-3.18,-3.18,-3.18,-3.18,-3.18,-3.18,-3.18,-3.18,-3.18,-3.18,-3.18,-3.18,-3.18,-3.18,-3.18,-3.18,-3.18,-3.18,-3.18,-3.18,-3.18,-3.18,-3.18,-3.18,-3.18,-3.18,-3.18,-3.18,-3.18,-3.18,-3.18,-3.18,-3.18,0.0,0.0,0.0,0.0,-2.8411,0.0,0.0,0.0,0.0,0.0,0.0,0.0,0.0,0.0,0.0,0.0,0.0,0.0,0.0,0.0,0.0,0.0,0.0,0.0,0.0,-2.8411,-2.8411,-2.8411,-2.8411,-2.8411,-2.8411,-2.8411,-2.8411,-2.8411,-2.8411,-2.8411,-2.8411,-2.8411,-2.8411,-2.8411,-2.8411,-2.8411,-2.8411,-2.8411,-2.8411,-2.8411,-2.8411,-2.8411,-2.8411,-2.8411,-2.8411,-2.8411,-2.8411,-2.8411,-2.8411,-2.8411,-2.8411,-2.8411,-2.8411,-2.8411,-2.8411,-2.8411,-2.8653,-2.909,-2.9669,-2.9972,-3.0124,-3.0168,-3.0163,-3.0185,-3.0593,-3.0626,-3.0683,-3.1179,-3.1406,-3.15,-3.1596,-3.1709,-3.18,-3.18,-3.18,-3.18,-3.18,-3.18,-3.18,-3.18,-3.18,-3.18,-3.18,-3.18,-3.18,-3.18,-3.18,-3.18,-3.18,-3.18,-3.18,-3.18,-3.18,-3.18,-3.18,-3.18,-3.18,-3.18,-3.18,-3.18,-3.18,-3.18,-3.18,-3.18,-3.18,-3.18,0.0,0.0,0.0,0.0,0.0,0.0,-2.8348,0.0,-2.7989,0.0,0.0,0.0,0.0,0.0,0.0,0.0,-2.6442,0.0,0.0,0.0,0.0,0.0,0.0,0.0,0.0,0.0,0.0,0.0,-2.8411,-2.8411,-2.8411,-2.8411,-2.8411,-2.8411,-2.8411,-2.8411,-2.8411,-2.8411,-2.8411,-2.8411,-2.8411,-2.8411,-2.8411,-2.8411,-2.8411,-2.8411,-2.8411,-2.8411,-2.8411,-2.8411,-2.8411,-2.8411,-2.8411,-2.8411,-2.8411,-2.8411,-2.8411,-2.8411,-2.8411,-2.8411,-2.8411,-2.8411,-2.87,-2.9136,-2.9348,-2.9572,-2.9793,-2.9793,-2.9793,-2.9853,-3.0054,-3.0309,-3.0601,-3.0925,-3.1274,-3.1555,-3.1671,-3.1746,-3.18,-3.18,-3.18,-3.18,-3.18,-3.18,-3.18,-3.18,-3.18,-3.18,-3.18,-3.18,-3.18,-3.18,-3.18,-3.18,-3.18,-3.18,-3.18,-3.18,-3.18,-3.18,-3.18,-3.18,-3.18,-3.18,-3.18,-3.18,-3.18,-3.18,-3.18,-3.18,-3.18,-3.18,-2.8201,0.0,0.0,0.0,0.0,0.0,0.0,0.0,0.0,0.0,0.0,0.0,0.0,0.0,0.0,0.0,0.0,0.0,0.0,0.0,0.0,0.0,0.0,0.0,0.0,0.0,0.0,-2.8411,-2.8411,-2.8411,-2.8411,-2.8411,-2.8411,-2.8411,-2.8411,-2.8411,-2.8411,-2.8411,-2.8411,-2.8411,-2.8411,-2.8411,-2.8411,-2.8411,-2.8411,-2.8411,-2.8411,-2.8411,-2.8411,-2.8411,-2.8411,-2.8411,-2.8411,-2.8411,-2.8411,-2.8411,-2.8411,-2.8411,-2.8411,-2.8411,-2.8396,-2.8525,-2.8826,-2.9074,-2.9074,-2.9348,-2.9572,-2.9454,-2.9409,-2.9454,-2.9572,-2.9968,-3.0393,-3.0625,-3.11,-3.15,-3.1688,-3.1726,-3.1763,-3.18,-3.18,-3.18,-3.18,-3.18,-3.18,-3.18,-3.1763,-3.1746,-3.1746,-3.1726,-3.1726,-3.1726,-3.1726,-3.1726,-3.1726,-3.1709,-3.1746,-3.18,-3.18,-3.18,-3.18,-3.18,-3.18,-3.18,-3.18,-3.18,-3.18,-3.18,-3.18,-3.18,-3.18,-3.18,0.0,0.0,0.0,-2.784,0.0,0.0,0.0,0.0,-2.7019,0.0,0.0,0.0,0.0,0.0,0.0,0.0,0.0,0.0,0.0,0.0,0.0,0.0,0.0,0.0,0.0,0.0,0.0,-2.8411,-2.8411,-2.8411,-2.8411,-2.8411,-2.8411,-2.8411,-2.8411,-2.8411,-2.8411,-2.8411,-2.8411,-2.8411,-2.8411,-2.8411,-2.8411,-2.8411,-2.8411,-2.8411,-2.8411,-2.8411,-2.8411,-2.8411,-2.8411,-2.8411,-2.8411,-2.8411,-2.8411,-2.8411,-2.8411,-2.8411,-2.8411,-2.8411,-2.8493,-2.892,-2.909,-2.9074,-2.9074,-2.912,-2.9044,-2.8573,-2.8444,-2.8525,-2.8997,-2.9483,-2.9924,-3.0393,-3.0925,-3.1351,-3.1462,-3.1559,-3.1654,-3.1746,-3.18,-3.18,-3.18,-3.18,-3.18,-3.18,-3.1709,-3.1617,-3.1617,-3.1538,-3.1517,-3.1517,-3.1517,-3.1517,-3.1517,-3.1559,-3.1671,-3.18,-3.18,-3.18,-3.18,-3.18,-3.18,-3.18,-3.18,-3.18,-3.18,-3.18,-3.18,-3.18,-3.18,-3.18,0.0,0.0,-2.71,-2.764,0.0,0.0,0.0,0.0,0.0,0.0,0.0,0.0,0.0,0.0,0.0,0.0,0.0,0.0,0.0,0.0,0.0,0.0,0.0,0.0,0.0,0.0,0.0,-2.7989,-2.825,-2.8411,-2.8411,-2.8411,-2.8411,-2.8411,-2.8411,-2.8411,-2.8411,-2.8411,-2.8411,-2.8411,-2.8411,-2.8411,-2.8411,-2.8411,-2.8411,-2.8411,-2.8411,-2.8411,-2.8411,-2.8411,-2.8411,-2.8411,-2.8411,-2.8411,-2.8411,-2.8411,-2.8411,-2.8411,-2.8411,-2.8411,-2.846,-2.8573,-2.8621,-2.8621,-2.8621,-2.8873,-2.8997,-2.8525,-2.8842,-2.9273,-2.9136,-2.9689,-3.0293,-3.0502,-3.0965,-3.1351,-3.1462,-3.1517,-3.1538,-3.1576,-3.1593,-3.1593,-3.1593,-3.1593,-3.1614,-3.1671,-3.1596,-3.1538,-3.1538,-3.15,-3.1517,-3.1517,-3.1538,-3.1559,-3.1559,-3.1671,-3.1746,-3.18,-3.18,-3.18,-3.18,-3.18,-3.18,-3.18,-3.18,-3.18,-3.18,-3.18,-3.18,-3.18,-3.18,-3.18,-2.6864,-2.6721,0.0,-2.7203,-2.693,0.0,-2.7049,0.0,0.0,0.0,0.0,0.0,0.0,0.0,0.0,0.0,0.0,0.0,0.0,-2.491,0.0,0.0,0.0,0.0,0.0,0.0,-2.7376,-2.7959,-2.8021,-2.815,0.0,0.0,-2.8411,-2.8411,-2.8411,-2.8411,-2.8411,-2.8411,-2.8411,-2.8411,-2.8411,-2.8411,-2.8411,-2.8411,-2.8411,-2.8411,-2.8411,-2.8411,-2.8411,-2.8411,-2.8411,-2.8411,-2.8411,-2.8411,-2.8411,-2.8411,-2.8411,-2.8411,-2.8411,-2.8411,-2.8411,-2.8411,-2.8411,-2.8411,-2.8411,-2.8621,-2.8826,-2.87,-2.8967,-2.9319,-2.9348,-2.9793,-3.0293,-3.0502,-3.0925,-3.1274,-3.1423,-3.1423,-3.1462,-3.1479,-3.15,-3.1538,-3.1517,-3.1517,-3.15,-3.1559,-3.15,-3.1423,-3.1423,-3.1423,-3.1385,-3.1423,-3.1483,-3.1542,-3.1579,-3.1671,-3.1746,-3.18,-3.18,-3.18,-3.18,-3.18,-3.18,-3.18,-3.18,-3.18,-3.18,-3.18,-3.18,-3.18,-3.18,-3.18]}]]